<?xml version="1.0" encoding="UTF-8" standalone="no" ?>
<gpx xmlns="http://www.topografix.com/GPX/1/1" xmlns:xsi="http://www.w3.org/2001/XMLSchema-instance" xsi:schemaLocation="http://www.topografix.com/GPX/1/1 http://www.topografix.com/GPX/1/1/gpx.xsd" version="1.1" creator="VisuGPX - https://www.visugpx.com">
  <metadata>
    <name>Marche Fabien Camus </name>
    <desc><![CDATA[Marche Fabien Camus de Saint-Quentin du 19 mars 2017.]]></desc>
  </metadata>
  <trk>
    <name><![CDATA[Fabien Camus]]></name>
    <trkseg>
      <trkpt lat="49.85543" lon="3.31045">
        <ele>83</ele>
        <time>2017-03-19T08:06:30Z</time>
      </trkpt>
      <trkpt lat="49.85543" lon="3.31045">
        <ele>82</ele>
        <time>2017-03-19T08:06:31Z</time>
      </trkpt>
      <trkpt lat="49.85537" lon="3.31043">
        <ele>79</ele>
        <time>2017-03-19T08:06:32Z</time>
      </trkpt>
      <trkpt lat="49.85533" lon="3.31044">
        <ele>76</ele>
        <time>2017-03-19T08:06:35Z</time>
      </trkpt>
      <trkpt lat="49.85537" lon="3.31048">
        <ele>74</ele>
        <time>2017-03-19T08:06:44Z</time>
      </trkpt>
      <trkpt lat="49.85542" lon="3.31048">
        <ele>73</ele>
        <time>2017-03-19T08:06:50Z</time>
      </trkpt>
      <trkpt lat="49.85547" lon="3.31048">
        <ele>73</ele>
        <time>2017-03-19T08:06:55Z</time>
      </trkpt>
      <trkpt lat="49.85552" lon="3.31049">
        <ele>74</ele>
        <time>2017-03-19T08:06:59Z</time>
      </trkpt>
      <trkpt lat="49.85557" lon="3.31049">
        <ele>76</ele>
        <time>2017-03-19T08:07:04Z</time>
      </trkpt>
      <trkpt lat="49.85562" lon="3.31051">
        <ele>76</ele>
        <time>2017-03-19T08:07:08Z</time>
      </trkpt>
      <trkpt lat="49.85567" lon="3.31053">
        <ele>76</ele>
        <time>2017-03-19T08:07:12Z</time>
      </trkpt>
      <trkpt lat="49.85571" lon="3.31054">
        <ele>76</ele>
        <time>2017-03-19T08:07:16Z</time>
      </trkpt>
      <trkpt lat="49.85576" lon="3.31055">
        <ele>75</ele>
        <time>2017-03-19T08:07:20Z</time>
      </trkpt>
      <trkpt lat="49.85582" lon="3.31055">
        <ele>75</ele>
        <time>2017-03-19T08:07:24Z</time>
      </trkpt>
      <trkpt lat="49.85587" lon="3.31056">
        <ele>75</ele>
        <time>2017-03-19T08:07:29Z</time>
      </trkpt>
      <trkpt lat="49.85593" lon="3.31057">
        <ele>75</ele>
        <time>2017-03-19T08:07:33Z</time>
      </trkpt>
      <trkpt lat="49.85598" lon="3.31057">
        <ele>75</ele>
        <time>2017-03-19T08:07:37Z</time>
      </trkpt>
      <trkpt lat="49.85603" lon="3.31058">
        <ele>75</ele>
        <time>2017-03-19T08:07:42Z</time>
      </trkpt>
      <trkpt lat="49.85609" lon="3.31059">
        <ele>74</ele>
        <time>2017-03-19T08:07:46Z</time>
      </trkpt>
      <trkpt lat="49.85614" lon="3.3106">
        <ele>74</ele>
        <time>2017-03-19T08:07:50Z</time>
      </trkpt>
      <trkpt lat="49.8562" lon="3.31061">
        <ele>74</ele>
        <time>2017-03-19T08:07:58Z</time>
      </trkpt>
      <trkpt lat="49.85627" lon="3.31063">
        <ele>73</ele>
        <time>2017-03-19T08:08:02Z</time>
      </trkpt>
      <trkpt lat="49.85631" lon="3.31064">
        <ele>74</ele>
        <time>2017-03-19T08:08:05Z</time>
      </trkpt>
      <trkpt lat="49.85637" lon="3.31065">
        <ele>75</ele>
        <time>2017-03-19T08:08:10Z</time>
      </trkpt>
      <trkpt lat="49.85642" lon="3.31068">
        <ele>75</ele>
        <time>2017-03-19T08:08:14Z</time>
      </trkpt>
      <trkpt lat="49.85647" lon="3.31069">
        <ele>75</ele>
        <time>2017-03-19T08:08:19Z</time>
      </trkpt>
      <trkpt lat="49.85652" lon="3.31069">
        <ele>75</ele>
        <time>2017-03-19T08:08:23Z</time>
      </trkpt>
      <trkpt lat="49.85657" lon="3.31068">
        <ele>74</ele>
        <time>2017-03-19T08:08:26Z</time>
      </trkpt>
      <trkpt lat="49.85661" lon="3.31069">
        <ele>75</ele>
        <time>2017-03-19T08:08:31Z</time>
      </trkpt>
      <trkpt lat="49.85666" lon="3.31067">
        <ele>76</ele>
        <time>2017-03-19T08:08:34Z</time>
      </trkpt>
      <trkpt lat="49.85672" lon="3.31068">
        <ele>77</ele>
        <time>2017-03-19T08:08:37Z</time>
      </trkpt>
      <trkpt lat="49.85677" lon="3.31067">
        <ele>78</ele>
        <time>2017-03-19T08:08:43Z</time>
      </trkpt>
      <trkpt lat="49.85682" lon="3.31066">
        <ele>79</ele>
        <time>2017-03-19T08:08:46Z</time>
      </trkpt>
      <trkpt lat="49.85687" lon="3.31065">
        <ele>78</ele>
        <time>2017-03-19T08:08:50Z</time>
      </trkpt>
      <trkpt lat="49.85692" lon="3.31065">
        <ele>77</ele>
        <time>2017-03-19T08:08:54Z</time>
      </trkpt>
      <trkpt lat="49.85697" lon="3.31065">
        <ele>74</ele>
        <time>2017-03-19T08:08:58Z</time>
      </trkpt>
      <trkpt lat="49.85702" lon="3.31064">
        <ele>72</ele>
        <time>2017-03-19T08:09:01Z</time>
      </trkpt>
      <trkpt lat="49.85707" lon="3.31064">
        <ele>70</ele>
        <time>2017-03-19T08:09:06Z</time>
      </trkpt>
      <trkpt lat="49.85712" lon="3.31063">
        <ele>68</ele>
        <time>2017-03-19T08:09:09Z</time>
      </trkpt>
      <trkpt lat="49.85717" lon="3.31062">
        <ele>68</ele>
        <time>2017-03-19T08:09:14Z</time>
      </trkpt>
      <trkpt lat="49.85722" lon="3.31064">
        <ele>68</ele>
        <time>2017-03-19T08:09:18Z</time>
      </trkpt>
      <trkpt lat="49.85728" lon="3.31064">
        <ele>68</ele>
        <time>2017-03-19T08:09:21Z</time>
      </trkpt>
      <trkpt lat="49.85734" lon="3.31065">
        <ele>67</ele>
        <time>2017-03-19T08:09:26Z</time>
      </trkpt>
      <trkpt lat="49.85739" lon="3.31065">
        <ele>67</ele>
        <time>2017-03-19T08:09:30Z</time>
      </trkpt>
      <trkpt lat="49.85744" lon="3.31065">
        <ele>66</ele>
        <time>2017-03-19T08:09:35Z</time>
      </trkpt>
      <trkpt lat="49.85749" lon="3.31067">
        <ele>66</ele>
        <time>2017-03-19T08:09:39Z</time>
      </trkpt>
      <trkpt lat="49.85754" lon="3.31071">
        <ele>66</ele>
        <time>2017-03-19T08:09:44Z</time>
      </trkpt>
      <trkpt lat="49.85759" lon="3.31075">
        <ele>68</ele>
        <time>2017-03-19T08:09:48Z</time>
      </trkpt>
      <trkpt lat="49.85762" lon="3.31082">
        <ele>71</ele>
        <time>2017-03-19T08:09:52Z</time>
      </trkpt>
      <trkpt lat="49.85765" lon="3.31089">
        <ele>74</ele>
        <time>2017-03-19T08:09:56Z</time>
      </trkpt>
      <trkpt lat="49.85767" lon="3.31095">
        <ele>76</ele>
        <time>2017-03-19T08:09:59Z</time>
      </trkpt>
      <trkpt lat="49.85765" lon="3.31101">
        <ele>78</ele>
        <time>2017-03-19T08:10:03Z</time>
      </trkpt>
      <trkpt lat="49.85765" lon="3.31108">
        <ele>79</ele>
        <time>2017-03-19T08:10:06Z</time>
      </trkpt>
      <trkpt lat="49.85765" lon="3.31115">
        <ele>80</ele>
        <time>2017-03-19T08:10:09Z</time>
      </trkpt>
      <trkpt lat="49.85766" lon="3.31124">
        <ele>81</ele>
        <time>2017-03-19T08:10:13Z</time>
      </trkpt>
      <trkpt lat="49.85766" lon="3.31132">
        <ele>82</ele>
        <time>2017-03-19T08:10:17Z</time>
      </trkpt>
      <trkpt lat="49.85766" lon="3.31139">
        <ele>83</ele>
        <time>2017-03-19T08:10:21Z</time>
      </trkpt>
      <trkpt lat="49.85767" lon="3.31147">
        <ele>84</ele>
        <time>2017-03-19T08:10:26Z</time>
      </trkpt>
      <trkpt lat="49.85764" lon="3.31157">
        <ele>84</ele>
        <time>2017-03-19T08:10:29Z</time>
      </trkpt>
      <trkpt lat="49.85767" lon="3.31164">
        <ele>85</ele>
        <time>2017-03-19T08:10:33Z</time>
      </trkpt>
      <trkpt lat="49.85764" lon="3.31171">
        <ele>85</ele>
        <time>2017-03-19T08:10:37Z</time>
      </trkpt>
      <trkpt lat="49.85764" lon="3.3118">
        <ele>86</ele>
        <time>2017-03-19T08:10:42Z</time>
      </trkpt>
      <trkpt lat="49.85763" lon="3.31187">
        <ele>86</ele>
        <time>2017-03-19T08:10:45Z</time>
      </trkpt>
      <trkpt lat="49.85766" lon="3.31194">
        <ele>86</ele>
        <time>2017-03-19T08:10:49Z</time>
      </trkpt>
      <trkpt lat="49.85766" lon="3.31202">
        <ele>86</ele>
        <time>2017-03-19T08:10:53Z</time>
      </trkpt>
      <trkpt lat="49.85767" lon="3.31211">
        <ele>87</ele>
        <time>2017-03-19T08:10:56Z</time>
      </trkpt>
      <trkpt lat="49.85767" lon="3.31218">
        <ele>87</ele>
        <time>2017-03-19T08:11:01Z</time>
      </trkpt>
      <trkpt lat="49.85767" lon="3.31227">
        <ele>87</ele>
        <time>2017-03-19T08:11:05Z</time>
      </trkpt>
      <trkpt lat="49.85766" lon="3.31235">
        <ele>86</ele>
        <time>2017-03-19T08:11:08Z</time>
      </trkpt>
      <trkpt lat="49.85766" lon="3.31244">
        <ele>86</ele>
        <time>2017-03-19T08:11:12Z</time>
      </trkpt>
      <trkpt lat="49.85765" lon="3.31252">
        <ele>85</ele>
        <time>2017-03-19T08:11:15Z</time>
      </trkpt>
      <trkpt lat="49.85767" lon="3.31258">
        <ele>85</ele>
        <time>2017-03-19T08:11:18Z</time>
      </trkpt>
      <trkpt lat="49.85764" lon="3.31263">
        <ele>85</ele>
        <time>2017-03-19T08:11:22Z</time>
      </trkpt>
      <trkpt lat="49.85764" lon="3.31271">
        <ele>85</ele>
        <time>2017-03-19T08:11:26Z</time>
      </trkpt>
      <trkpt lat="49.85762" lon="3.31279">
        <ele>85</ele>
        <time>2017-03-19T08:11:29Z</time>
      </trkpt>
      <trkpt lat="49.85761" lon="3.31286">
        <ele>84</ele>
        <time>2017-03-19T08:11:33Z</time>
      </trkpt>
      <trkpt lat="49.85762" lon="3.31297">
        <ele>84</ele>
        <time>2017-03-19T08:11:38Z</time>
      </trkpt>
      <trkpt lat="49.85761" lon="3.31305">
        <ele>83</ele>
        <time>2017-03-19T08:11:43Z</time>
      </trkpt>
      <trkpt lat="49.85762" lon="3.31312">
        <ele>81</ele>
        <time>2017-03-19T08:11:48Z</time>
      </trkpt>
      <trkpt lat="49.85762" lon="3.3132">
        <ele>80</ele>
        <time>2017-03-19T08:11:51Z</time>
      </trkpt>
      <trkpt lat="49.85763" lon="3.31329">
        <ele>79</ele>
        <time>2017-03-19T08:11:56Z</time>
      </trkpt>
      <trkpt lat="49.85762" lon="3.31337">
        <ele>78</ele>
        <time>2017-03-19T08:11:59Z</time>
      </trkpt>
      <trkpt lat="49.85761" lon="3.31345">
        <ele>79</ele>
        <time>2017-03-19T08:12:02Z</time>
      </trkpt>
      <trkpt lat="49.85763" lon="3.31353">
        <ele>79</ele>
        <time>2017-03-19T08:12:06Z</time>
      </trkpt>
      <trkpt lat="49.85763" lon="3.31361">
        <ele>79</ele>
        <time>2017-03-19T08:12:09Z</time>
      </trkpt>
      <trkpt lat="49.85761" lon="3.31368">
        <ele>79</ele>
        <time>2017-03-19T08:12:12Z</time>
      </trkpt>
      <trkpt lat="49.85761" lon="3.31375">
        <ele>79</ele>
        <time>2017-03-19T08:12:16Z</time>
      </trkpt>
      <trkpt lat="49.85761" lon="3.31382">
        <ele>79</ele>
        <time>2017-03-19T08:12:19Z</time>
      </trkpt>
      <trkpt lat="49.85759" lon="3.31389">
        <ele>79</ele>
        <time>2017-03-19T08:12:22Z</time>
      </trkpt>
      <trkpt lat="49.85759" lon="3.31399">
        <ele>79</ele>
        <time>2017-03-19T08:12:26Z</time>
      </trkpt>
      <trkpt lat="49.85757" lon="3.31408">
        <ele>80</ele>
        <time>2017-03-19T08:12:28Z</time>
      </trkpt>
      <trkpt lat="49.85755" lon="3.31415">
        <ele>80</ele>
        <time>2017-03-19T08:12:34Z</time>
      </trkpt>
      <trkpt lat="49.85754" lon="3.31423">
        <ele>80</ele>
        <time>2017-03-19T08:12:38Z</time>
      </trkpt>
      <trkpt lat="49.85754" lon="3.3143">
        <ele>81</ele>
        <time>2017-03-19T08:12:41Z</time>
      </trkpt>
      <trkpt lat="49.85753" lon="3.31437">
        <ele>81</ele>
        <time>2017-03-19T08:12:44Z</time>
      </trkpt>
      <trkpt lat="49.85754" lon="3.31446">
        <ele>80</ele>
        <time>2017-03-19T08:12:48Z</time>
      </trkpt>
      <trkpt lat="49.85756" lon="3.31453">
        <ele>80</ele>
        <time>2017-03-19T08:12:52Z</time>
      </trkpt>
      <trkpt lat="49.85757" lon="3.3146">
        <ele>81</ele>
        <time>2017-03-19T08:12:55Z</time>
      </trkpt>
      <trkpt lat="49.85758" lon="3.31469">
        <ele>81</ele>
        <time>2017-03-19T08:13:00Z</time>
      </trkpt>
      <trkpt lat="49.85757" lon="3.31477">
        <ele>81</ele>
        <time>2017-03-19T08:13:05Z</time>
      </trkpt>
      <trkpt lat="49.85758" lon="3.31484">
        <ele>81</ele>
        <time>2017-03-19T08:13:08Z</time>
      </trkpt>
      <trkpt lat="49.85757" lon="3.31492">
        <ele>81</ele>
        <time>2017-03-19T08:13:12Z</time>
      </trkpt>
      <trkpt lat="49.85757" lon="3.31499">
        <ele>81</ele>
        <time>2017-03-19T08:13:16Z</time>
      </trkpt>
      <trkpt lat="49.85757" lon="3.31506">
        <ele>81</ele>
        <time>2017-03-19T08:13:19Z</time>
      </trkpt>
      <trkpt lat="49.85756" lon="3.31513">
        <ele>82</ele>
        <time>2017-03-19T08:13:21Z</time>
      </trkpt>
      <trkpt lat="49.85757" lon="3.3152">
        <ele>82</ele>
        <time>2017-03-19T08:13:25Z</time>
      </trkpt>
      <trkpt lat="49.85758" lon="3.31528">
        <ele>82</ele>
        <time>2017-03-19T08:13:28Z</time>
      </trkpt>
      <trkpt lat="49.85758" lon="3.31536">
        <ele>82</ele>
        <time>2017-03-19T08:13:33Z</time>
      </trkpt>
      <trkpt lat="49.85758" lon="3.31544">
        <ele>82</ele>
        <time>2017-03-19T08:13:36Z</time>
      </trkpt>
      <trkpt lat="49.85759" lon="3.31551">
        <ele>81</ele>
        <time>2017-03-19T08:13:39Z</time>
      </trkpt>
      <trkpt lat="49.85758" lon="3.31558">
        <ele>81</ele>
        <time>2017-03-19T08:13:42Z</time>
      </trkpt>
      <trkpt lat="49.85755" lon="3.31566">
        <ele>79</ele>
        <time>2017-03-19T08:13:47Z</time>
      </trkpt>
      <trkpt lat="49.85754" lon="3.31574">
        <ele>78</ele>
        <time>2017-03-19T08:13:51Z</time>
      </trkpt>
      <trkpt lat="49.85754" lon="3.31581">
        <ele>76</ele>
        <time>2017-03-19T08:13:55Z</time>
      </trkpt>
      <trkpt lat="49.85752" lon="3.31589">
        <ele>74</ele>
        <time>2017-03-19T08:13:59Z</time>
      </trkpt>
      <trkpt lat="49.8575" lon="3.31597">
        <ele>72</ele>
        <time>2017-03-19T08:14:02Z</time>
      </trkpt>
      <trkpt lat="49.85748" lon="3.31604">
        <ele>71</ele>
        <time>2017-03-19T08:14:04Z</time>
      </trkpt>
      <trkpt lat="49.85747" lon="3.31611">
        <ele>71</ele>
        <time>2017-03-19T08:14:07Z</time>
      </trkpt>
      <trkpt lat="49.85746" lon="3.31618">
        <ele>71</ele>
        <time>2017-03-19T08:14:10Z</time>
      </trkpt>
      <trkpt lat="49.85745" lon="3.31626">
        <ele>71</ele>
        <time>2017-03-19T08:14:12Z</time>
      </trkpt>
      <trkpt lat="49.85744" lon="3.31633">
        <ele>70</ele>
        <time>2017-03-19T08:14:17Z</time>
      </trkpt>
      <trkpt lat="49.85743" lon="3.31642">
        <ele>70</ele>
        <time>2017-03-19T08:14:21Z</time>
      </trkpt>
      <trkpt lat="49.85738" lon="3.31646">
        <ele>70</ele>
        <time>2017-03-19T08:14:25Z</time>
      </trkpt>
      <trkpt lat="49.85737" lon="3.31653">
        <ele>69</ele>
        <time>2017-03-19T08:14:29Z</time>
      </trkpt>
      <trkpt lat="49.85737" lon="3.31661">
        <ele>69</ele>
        <time>2017-03-19T08:14:34Z</time>
      </trkpt>
      <trkpt lat="49.85734" lon="3.31667">
        <ele>69</ele>
        <time>2017-03-19T08:14:38Z</time>
      </trkpt>
      <trkpt lat="49.85733" lon="3.31677">
        <ele>68</ele>
        <time>2017-03-19T08:14:42Z</time>
      </trkpt>
      <trkpt lat="49.8573" lon="3.31684">
        <ele>68</ele>
        <time>2017-03-19T08:14:46Z</time>
      </trkpt>
      <trkpt lat="49.85729" lon="3.31693">
        <ele>69</ele>
        <time>2017-03-19T08:14:49Z</time>
      </trkpt>
      <trkpt lat="49.85728" lon="3.317">
        <ele>70</ele>
        <time>2017-03-19T08:14:51Z</time>
      </trkpt>
      <trkpt lat="49.85729" lon="3.31708">
        <ele>71</ele>
        <time>2017-03-19T08:14:59Z</time>
      </trkpt>
      <trkpt lat="49.85727" lon="3.31714">
        <ele>73</ele>
        <time>2017-03-19T08:15:02Z</time>
      </trkpt>
      <trkpt lat="49.85725" lon="3.31722">
        <ele>74</ele>
        <time>2017-03-19T08:15:07Z</time>
      </trkpt>
      <trkpt lat="49.8572" lon="3.31731">
        <ele>74</ele>
        <time>2017-03-19T08:15:10Z</time>
      </trkpt>
      <trkpt lat="49.85718" lon="3.31738">
        <ele>75</ele>
        <time>2017-03-19T08:15:16Z</time>
      </trkpt>
      <trkpt lat="49.85717" lon="3.31746">
        <ele>75</ele>
        <time>2017-03-19T08:15:23Z</time>
      </trkpt>
      <trkpt lat="49.85714" lon="3.31752">
        <ele>74</ele>
        <time>2017-03-19T08:15:25Z</time>
      </trkpt>
      <trkpt lat="49.85711" lon="3.31759">
        <ele>74</ele>
        <time>2017-03-19T08:15:30Z</time>
      </trkpt>
      <trkpt lat="49.85709" lon="3.31766">
        <ele>74</ele>
        <time>2017-03-19T08:15:33Z</time>
      </trkpt>
      <trkpt lat="49.85708" lon="3.31775">
        <ele>74</ele>
        <time>2017-03-19T08:15:36Z</time>
      </trkpt>
      <trkpt lat="49.85708" lon="3.31782">
        <ele>74</ele>
        <time>2017-03-19T08:15:41Z</time>
      </trkpt>
      <trkpt lat="49.85705" lon="3.31789">
        <ele>74</ele>
        <time>2017-03-19T08:15:45Z</time>
      </trkpt>
      <trkpt lat="49.85702" lon="3.31795">
        <ele>74</ele>
        <time>2017-03-19T08:15:49Z</time>
      </trkpt>
      <trkpt lat="49.85699" lon="3.31803">
        <ele>74</ele>
        <time>2017-03-19T08:15:56Z</time>
      </trkpt>
      <trkpt lat="49.85697" lon="3.31811">
        <ele>74</ele>
        <time>2017-03-19T08:16:00Z</time>
      </trkpt>
      <trkpt lat="49.85695" lon="3.3182">
        <ele>74</ele>
        <time>2017-03-19T08:16:04Z</time>
      </trkpt>
      <trkpt lat="49.85693" lon="3.31826">
        <ele>74</ele>
        <time>2017-03-19T08:16:07Z</time>
      </trkpt>
      <trkpt lat="49.85692" lon="3.31833">
        <ele>75</ele>
        <time>2017-03-19T08:16:10Z</time>
      </trkpt>
      <trkpt lat="49.85691" lon="3.31842">
        <ele>75</ele>
        <time>2017-03-19T08:16:14Z</time>
      </trkpt>
      <trkpt lat="49.85689" lon="3.31849">
        <ele>76</ele>
        <time>2017-03-19T08:16:18Z</time>
      </trkpt>
      <trkpt lat="49.85688" lon="3.31857">
        <ele>77</ele>
        <time>2017-03-19T08:16:23Z</time>
      </trkpt>
      <trkpt lat="49.85687" lon="3.31864">
        <ele>78</ele>
        <time>2017-03-19T08:16:28Z</time>
      </trkpt>
      <trkpt lat="49.85685" lon="3.3187">
        <ele>78</ele>
        <time>2017-03-19T08:16:32Z</time>
      </trkpt>
      <trkpt lat="49.85685" lon="3.31878">
        <ele>79</ele>
        <time>2017-03-19T08:16:37Z</time>
      </trkpt>
      <trkpt lat="49.85683" lon="3.31885">
        <ele>80</ele>
        <time>2017-03-19T08:16:39Z</time>
      </trkpt>
      <trkpt lat="49.85683" lon="3.31894">
        <ele>81</ele>
        <time>2017-03-19T08:16:42Z</time>
      </trkpt>
      <trkpt lat="49.85682" lon="3.31903">
        <ele>83</ele>
        <time>2017-03-19T08:16:46Z</time>
      </trkpt>
      <trkpt lat="49.8568" lon="3.31911">
        <ele>84</ele>
        <time>2017-03-19T08:16:49Z</time>
      </trkpt>
      <trkpt lat="49.85683" lon="3.31917">
        <ele>84</ele>
        <time>2017-03-19T08:16:52Z</time>
      </trkpt>
      <trkpt lat="49.85685" lon="3.31925">
        <ele>85</ele>
        <time>2017-03-19T08:16:55Z</time>
      </trkpt>
      <trkpt lat="49.85685" lon="3.31932">
        <ele>85</ele>
        <time>2017-03-19T08:16:58Z</time>
      </trkpt>
      <trkpt lat="49.85685" lon="3.3194">
        <ele>86</ele>
        <time>2017-03-19T08:17:02Z</time>
      </trkpt>
      <trkpt lat="49.85686" lon="3.31947">
        <ele>87</ele>
        <time>2017-03-19T08:17:05Z</time>
      </trkpt>
      <trkpt lat="49.85687" lon="3.31956">
        <ele>88</ele>
        <time>2017-03-19T08:17:10Z</time>
      </trkpt>
      <trkpt lat="49.85686" lon="3.31963">
        <ele>89</ele>
        <time>2017-03-19T08:17:14Z</time>
      </trkpt>
      <trkpt lat="49.85688" lon="3.3197">
        <ele>89</ele>
        <time>2017-03-19T08:17:16Z</time>
      </trkpt>
      <trkpt lat="49.85691" lon="3.31976">
        <ele>89</ele>
        <time>2017-03-19T08:17:21Z</time>
      </trkpt>
      <trkpt lat="49.85693" lon="3.31985">
        <ele>89</ele>
        <time>2017-03-19T08:17:26Z</time>
      </trkpt>
      <trkpt lat="49.85693" lon="3.31994">
        <ele>89</ele>
        <time>2017-03-19T08:17:30Z</time>
      </trkpt>
      <trkpt lat="49.85692" lon="3.32001">
        <ele>89</ele>
        <time>2017-03-19T08:17:34Z</time>
      </trkpt>
      <trkpt lat="49.85692" lon="3.3201">
        <ele>89</ele>
        <time>2017-03-19T08:17:39Z</time>
      </trkpt>
      <trkpt lat="49.85695" lon="3.32017">
        <ele>89</ele>
        <time>2017-03-19T08:17:43Z</time>
      </trkpt>
      <trkpt lat="49.85698" lon="3.32024">
        <ele>89</ele>
        <time>2017-03-19T08:17:47Z</time>
      </trkpt>
      <trkpt lat="49.857" lon="3.32031">
        <ele>89</ele>
        <time>2017-03-19T08:17:50Z</time>
      </trkpt>
      <trkpt lat="49.857" lon="3.32038">
        <ele>90</ele>
        <time>2017-03-19T08:17:53Z</time>
      </trkpt>
      <trkpt lat="49.85701" lon="3.32045">
        <ele>92</ele>
        <time>2017-03-19T08:17:56Z</time>
      </trkpt>
      <trkpt lat="49.85701" lon="3.32052">
        <ele>93</ele>
        <time>2017-03-19T08:18:00Z</time>
      </trkpt>
      <trkpt lat="49.85703" lon="3.32062">
        <ele>94</ele>
        <time>2017-03-19T08:18:04Z</time>
      </trkpt>
      <trkpt lat="49.85703" lon="3.3207">
        <ele>95</ele>
        <time>2017-03-19T08:18:08Z</time>
      </trkpt>
      <trkpt lat="49.85703" lon="3.32077">
        <ele>96</ele>
        <time>2017-03-19T08:18:11Z</time>
      </trkpt>
      <trkpt lat="49.85703" lon="3.32086">
        <ele>96</ele>
        <time>2017-03-19T08:18:16Z</time>
      </trkpt>
      <trkpt lat="49.85704" lon="3.32094">
        <ele>96</ele>
        <time>2017-03-19T08:18:20Z</time>
      </trkpt>
      <trkpt lat="49.85702" lon="3.321">
        <ele>96</ele>
        <time>2017-03-19T08:18:23Z</time>
      </trkpt>
      <trkpt lat="49.85702" lon="3.32107">
        <ele>95</ele>
        <time>2017-03-19T08:18:29Z</time>
      </trkpt>
      <trkpt lat="49.85701" lon="3.32116">
        <ele>94</ele>
        <time>2017-03-19T08:18:33Z</time>
      </trkpt>
      <trkpt lat="49.85701" lon="3.32123">
        <ele>94</ele>
        <time>2017-03-19T08:18:36Z</time>
      </trkpt>
      <trkpt lat="49.85701" lon="3.3213">
        <ele>93</ele>
        <time>2017-03-19T08:18:40Z</time>
      </trkpt>
      <trkpt lat="49.85701" lon="3.32139">
        <ele>93</ele>
        <time>2017-03-19T08:18:45Z</time>
      </trkpt>
      <trkpt lat="49.85701" lon="3.32148">
        <ele>93</ele>
        <time>2017-03-19T08:18:50Z</time>
      </trkpt>
      <trkpt lat="49.85702" lon="3.32156">
        <ele>93</ele>
        <time>2017-03-19T08:18:54Z</time>
      </trkpt>
      <trkpt lat="49.85702" lon="3.32163">
        <ele>93</ele>
        <time>2017-03-19T08:18:57Z</time>
      </trkpt>
      <trkpt lat="49.85701" lon="3.32172">
        <ele>93</ele>
        <time>2017-03-19T08:19:00Z</time>
      </trkpt>
      <trkpt lat="49.857" lon="3.32181">
        <ele>93</ele>
        <time>2017-03-19T08:19:04Z</time>
      </trkpt>
      <trkpt lat="49.85702" lon="3.32191">
        <ele>92</ele>
        <time>2017-03-19T08:19:10Z</time>
      </trkpt>
      <trkpt lat="49.85703" lon="3.32198">
        <ele>93</ele>
        <time>2017-03-19T08:19:13Z</time>
      </trkpt>
      <trkpt lat="49.85703" lon="3.32205">
        <ele>93</ele>
        <time>2017-03-19T08:19:16Z</time>
      </trkpt>
      <trkpt lat="49.85706" lon="3.32213">
        <ele>93</ele>
        <time>2017-03-19T08:19:20Z</time>
      </trkpt>
      <trkpt lat="49.85703" lon="3.3222">
        <ele>94</ele>
        <time>2017-03-19T08:19:25Z</time>
      </trkpt>
      <trkpt lat="49.85704" lon="3.32227">
        <ele>94</ele>
        <time>2017-03-19T08:19:29Z</time>
      </trkpt>
      <trkpt lat="49.85701" lon="3.32235">
        <ele>94</ele>
        <time>2017-03-19T08:19:32Z</time>
      </trkpt>
      <trkpt lat="49.85704" lon="3.32242">
        <ele>94</ele>
        <time>2017-03-19T08:19:36Z</time>
      </trkpt>
      <trkpt lat="49.85705" lon="3.3225">
        <ele>94</ele>
        <time>2017-03-19T08:19:40Z</time>
      </trkpt>
      <trkpt lat="49.85705" lon="3.32257">
        <ele>95</ele>
        <time>2017-03-19T08:19:42Z</time>
      </trkpt>
      <trkpt lat="49.85707" lon="3.32265">
        <ele>96</ele>
        <time>2017-03-19T08:19:46Z</time>
      </trkpt>
      <trkpt lat="49.85706" lon="3.32274">
        <ele>97</ele>
        <time>2017-03-19T08:19:52Z</time>
      </trkpt>
      <trkpt lat="49.85706" lon="3.32281">
        <ele>98</ele>
        <time>2017-03-19T08:19:55Z</time>
      </trkpt>
      <trkpt lat="49.85708" lon="3.32288">
        <ele>98</ele>
        <time>2017-03-19T08:20:00Z</time>
      </trkpt>
      <trkpt lat="49.85707" lon="3.32296">
        <ele>98</ele>
        <time>2017-03-19T08:20:03Z</time>
      </trkpt>
      <trkpt lat="49.85708" lon="3.32305">
        <ele>99</ele>
        <time>2017-03-19T08:20:08Z</time>
      </trkpt>
      <trkpt lat="49.85708" lon="3.32315">
        <ele>99</ele>
        <time>2017-03-19T08:20:12Z</time>
      </trkpt>
      <trkpt lat="49.85709" lon="3.32323">
        <ele>100</ele>
        <time>2017-03-19T08:20:16Z</time>
      </trkpt>
      <trkpt lat="49.85712" lon="3.32333">
        <ele>100</ele>
        <time>2017-03-19T08:20:20Z</time>
      </trkpt>
      <trkpt lat="49.8571" lon="3.32341">
        <ele>101</ele>
        <time>2017-03-19T08:20:24Z</time>
      </trkpt>
      <trkpt lat="49.85711" lon="3.32349">
        <ele>102</ele>
        <time>2017-03-19T08:20:27Z</time>
      </trkpt>
      <trkpt lat="49.85713" lon="3.32356">
        <ele>103</ele>
        <time>2017-03-19T08:20:30Z</time>
      </trkpt>
      <trkpt lat="49.85712" lon="3.32363">
        <ele>104</ele>
        <time>2017-03-19T08:20:33Z</time>
      </trkpt>
      <trkpt lat="49.85713" lon="3.32371">
        <ele>106</ele>
        <time>2017-03-19T08:20:37Z</time>
      </trkpt>
      <trkpt lat="49.85713" lon="3.3238">
        <ele>107</ele>
        <time>2017-03-19T08:20:42Z</time>
      </trkpt>
      <trkpt lat="49.85716" lon="3.32388">
        <ele>108</ele>
        <time>2017-03-19T08:20:45Z</time>
      </trkpt>
      <trkpt lat="49.85717" lon="3.32396">
        <ele>109</ele>
        <time>2017-03-19T08:20:48Z</time>
      </trkpt>
      <trkpt lat="49.85717" lon="3.32404">
        <ele>110</ele>
        <time>2017-03-19T08:20:52Z</time>
      </trkpt>
      <trkpt lat="49.85715" lon="3.32411">
        <ele>110</ele>
        <time>2017-03-19T08:20:56Z</time>
      </trkpt>
      <trkpt lat="49.85713" lon="3.3242">
        <ele>110</ele>
        <time>2017-03-19T08:21:01Z</time>
      </trkpt>
      <trkpt lat="49.85712" lon="3.32428">
        <ele>110</ele>
        <time>2017-03-19T08:21:05Z</time>
      </trkpt>
      <trkpt lat="49.85713" lon="3.32436">
        <ele>109</ele>
        <time>2017-03-19T08:21:09Z</time>
      </trkpt>
      <trkpt lat="49.85714" lon="3.32443">
        <ele>109</ele>
        <time>2017-03-19T08:21:12Z</time>
      </trkpt>
      <trkpt lat="49.85715" lon="3.3245">
        <ele>109</ele>
        <time>2017-03-19T08:21:15Z</time>
      </trkpt>
      <trkpt lat="49.85718" lon="3.32457">
        <ele>108</ele>
        <time>2017-03-19T08:21:20Z</time>
      </trkpt>
      <trkpt lat="49.85718" lon="3.32464">
        <ele>108</ele>
        <time>2017-03-19T08:21:23Z</time>
      </trkpt>
      <trkpt lat="49.85721" lon="3.32471">
        <ele>108</ele>
        <time>2017-03-19T08:21:26Z</time>
      </trkpt>
      <trkpt lat="49.85726" lon="3.32479">
        <ele>109</ele>
        <time>2017-03-19T08:21:30Z</time>
      </trkpt>
      <trkpt lat="49.8573" lon="3.32482">
        <ele>109</ele>
        <time>2017-03-19T08:21:34Z</time>
      </trkpt>
      <trkpt lat="49.85735" lon="3.32486">
        <ele>107</ele>
        <time>2017-03-19T08:21:42Z</time>
      </trkpt>
      <trkpt lat="49.85739" lon="3.32488">
        <ele>105</ele>
        <time>2017-03-19T08:21:46Z</time>
      </trkpt>
      <trkpt lat="49.85744" lon="3.32489">
        <ele>103</ele>
        <time>2017-03-19T08:21:51Z</time>
      </trkpt>
      <trkpt lat="49.85749" lon="3.3249">
        <ele>100</ele>
        <time>2017-03-19T08:21:56Z</time>
      </trkpt>
      <trkpt lat="49.85754" lon="3.32493">
        <ele>97</ele>
        <time>2017-03-19T08:21:59Z</time>
      </trkpt>
      <trkpt lat="49.85757" lon="3.32497">
        <ele>96</ele>
        <time>2017-03-19T08:22:03Z</time>
      </trkpt>
      <trkpt lat="49.85761" lon="3.32504">
        <ele>97</ele>
        <time>2017-03-19T08:22:06Z</time>
      </trkpt>
      <trkpt lat="49.85764" lon="3.32511">
        <ele>98</ele>
        <time>2017-03-19T08:22:09Z</time>
      </trkpt>
      <trkpt lat="49.85766" lon="3.32519">
        <ele>100</ele>
        <time>2017-03-19T08:22:13Z</time>
      </trkpt>
      <trkpt lat="49.85764" lon="3.32526">
        <ele>101</ele>
        <time>2017-03-19T08:22:18Z</time>
      </trkpt>
      <trkpt lat="49.85759" lon="3.3253">
        <ele>102</ele>
        <time>2017-03-19T08:22:21Z</time>
      </trkpt>
      <trkpt lat="49.85756" lon="3.32537">
        <ele>102</ele>
        <time>2017-03-19T08:22:25Z</time>
      </trkpt>
      <trkpt lat="49.85751" lon="3.32542">
        <ele>101</ele>
        <time>2017-03-19T08:22:33Z</time>
      </trkpt>
      <trkpt lat="49.85748" lon="3.32548">
        <ele>99</ele>
        <time>2017-03-19T08:22:37Z</time>
      </trkpt>
      <trkpt lat="49.85742" lon="3.32555">
        <ele>98</ele>
        <time>2017-03-19T08:22:40Z</time>
      </trkpt>
      <trkpt lat="49.85739" lon="3.32561">
        <ele>97</ele>
        <time>2017-03-19T08:22:43Z</time>
      </trkpt>
      <trkpt lat="49.85735" lon="3.32568">
        <ele>97</ele>
        <time>2017-03-19T08:22:46Z</time>
      </trkpt>
      <trkpt lat="49.85736" lon="3.32577">
        <ele>97</ele>
        <time>2017-03-19T08:22:51Z</time>
      </trkpt>
      <trkpt lat="49.85735" lon="3.32586">
        <ele>97</ele>
        <time>2017-03-19T08:22:54Z</time>
      </trkpt>
      <trkpt lat="49.85733" lon="3.32593">
        <ele>97</ele>
        <time>2017-03-19T08:22:57Z</time>
      </trkpt>
      <trkpt lat="49.85737" lon="3.32601">
        <ele>97</ele>
        <time>2017-03-19T08:23:01Z</time>
      </trkpt>
      <trkpt lat="49.85738" lon="3.3261">
        <ele>96</ele>
        <time>2017-03-19T08:23:06Z</time>
      </trkpt>
      <trkpt lat="49.85739" lon="3.32617">
        <ele>96</ele>
        <time>2017-03-19T08:23:09Z</time>
      </trkpt>
      <trkpt lat="49.8574" lon="3.32625">
        <ele>96</ele>
        <time>2017-03-19T08:23:13Z</time>
      </trkpt>
      <trkpt lat="49.85742" lon="3.32633">
        <ele>96</ele>
        <time>2017-03-19T08:23:17Z</time>
      </trkpt>
      <trkpt lat="49.85741" lon="3.3264">
        <ele>96</ele>
        <time>2017-03-19T08:23:21Z</time>
      </trkpt>
      <trkpt lat="49.85741" lon="3.32648">
        <ele>97</ele>
        <time>2017-03-19T08:23:26Z</time>
      </trkpt>
      <trkpt lat="49.85745" lon="3.32655">
        <ele>97</ele>
        <time>2017-03-19T08:23:29Z</time>
      </trkpt>
      <trkpt lat="49.85748" lon="3.32661">
        <ele>97</ele>
        <time>2017-03-19T08:23:32Z</time>
      </trkpt>
      <trkpt lat="49.85749" lon="3.32668">
        <ele>98</ele>
        <time>2017-03-19T08:23:36Z</time>
      </trkpt>
      <trkpt lat="49.85751" lon="3.32677">
        <ele>99</ele>
        <time>2017-03-19T08:23:40Z</time>
      </trkpt>
      <trkpt lat="49.85751" lon="3.32685">
        <ele>99</ele>
        <time>2017-03-19T08:23:44Z</time>
      </trkpt>
      <trkpt lat="49.85751" lon="3.32693">
        <ele>100</ele>
        <time>2017-03-19T08:23:47Z</time>
      </trkpt>
      <trkpt lat="49.85751" lon="3.32702">
        <ele>100</ele>
        <time>2017-03-19T08:23:52Z</time>
      </trkpt>
      <trkpt lat="49.85754" lon="3.32708">
        <ele>100</ele>
        <time>2017-03-19T08:23:55Z</time>
      </trkpt>
      <trkpt lat="49.85756" lon="3.32715">
        <ele>100</ele>
        <time>2017-03-19T08:23:58Z</time>
      </trkpt>
      <trkpt lat="49.85757" lon="3.32723">
        <ele>99</ele>
        <time>2017-03-19T08:24:02Z</time>
      </trkpt>
      <trkpt lat="49.85756" lon="3.32732">
        <ele>99</ele>
        <time>2017-03-19T08:24:06Z</time>
      </trkpt>
      <trkpt lat="49.85757" lon="3.3274">
        <ele>99</ele>
        <time>2017-03-19T08:24:10Z</time>
      </trkpt>
      <trkpt lat="49.85761" lon="3.32745">
        <ele>99</ele>
        <time>2017-03-19T08:24:13Z</time>
      </trkpt>
      <trkpt lat="49.85763" lon="3.32752">
        <ele>99</ele>
        <time>2017-03-19T08:24:17Z</time>
      </trkpt>
      <trkpt lat="49.85766" lon="3.32759">
        <ele>99</ele>
        <time>2017-03-19T08:24:20Z</time>
      </trkpt>
      <trkpt lat="49.85766" lon="3.32767">
        <ele>100</ele>
        <time>2017-03-19T08:24:24Z</time>
      </trkpt>
      <trkpt lat="49.85766" lon="3.32774">
        <ele>100</ele>
        <time>2017-03-19T08:24:27Z</time>
      </trkpt>
      <trkpt lat="49.85767" lon="3.32781">
        <ele>100</ele>
        <time>2017-03-19T08:24:31Z</time>
      </trkpt>
      <trkpt lat="49.85769" lon="3.32788">
        <ele>99</ele>
        <time>2017-03-19T08:24:35Z</time>
      </trkpt>
      <trkpt lat="49.8577" lon="3.32795">
        <ele>99</ele>
        <time>2017-03-19T08:24:39Z</time>
      </trkpt>
      <trkpt lat="49.85769" lon="3.32802">
        <ele>98</ele>
        <time>2017-03-19T08:24:42Z</time>
      </trkpt>
      <trkpt lat="49.85769" lon="3.32811">
        <ele>97</ele>
        <time>2017-03-19T08:24:47Z</time>
      </trkpt>
      <trkpt lat="49.8577" lon="3.3282">
        <ele>96</ele>
        <time>2017-03-19T08:24:51Z</time>
      </trkpt>
      <trkpt lat="49.85772" lon="3.32827">
        <ele>96</ele>
        <time>2017-03-19T08:24:54Z</time>
      </trkpt>
      <trkpt lat="49.85771" lon="3.32834">
        <ele>96</ele>
        <time>2017-03-19T08:24:57Z</time>
      </trkpt>
      <trkpt lat="49.85772" lon="3.32841">
        <ele>96</ele>
        <time>2017-03-19T08:25:00Z</time>
      </trkpt>
      <trkpt lat="49.85773" lon="3.32848">
        <ele>97</ele>
        <time>2017-03-19T08:25:03Z</time>
      </trkpt>
      <trkpt lat="49.85773" lon="3.32857">
        <ele>97</ele>
        <time>2017-03-19T08:25:06Z</time>
      </trkpt>
      <trkpt lat="49.85776" lon="3.32864">
        <ele>98</ele>
        <time>2017-03-19T08:25:09Z</time>
      </trkpt>
      <trkpt lat="49.85777" lon="3.32871">
        <ele>99</ele>
        <time>2017-03-19T08:25:13Z</time>
      </trkpt>
      <trkpt lat="49.85776" lon="3.32879">
        <ele>100</ele>
        <time>2017-03-19T08:25:17Z</time>
      </trkpt>
      <trkpt lat="49.85774" lon="3.32887">
        <ele>102</ele>
        <time>2017-03-19T08:25:20Z</time>
      </trkpt>
      <trkpt lat="49.85779" lon="3.32895">
        <ele>102</ele>
        <time>2017-03-19T08:25:22Z</time>
      </trkpt>
      <trkpt lat="49.85782" lon="3.32901">
        <ele>103</ele>
        <time>2017-03-19T08:25:25Z</time>
      </trkpt>
      <trkpt lat="49.85782" lon="3.32909">
        <ele>102</ele>
        <time>2017-03-19T08:25:29Z</time>
      </trkpt>
      <trkpt lat="49.85782" lon="3.32917">
        <ele>100</ele>
        <time>2017-03-19T08:25:33Z</time>
      </trkpt>
      <trkpt lat="49.85785" lon="3.32924">
        <ele>100</ele>
        <time>2017-03-19T08:25:36Z</time>
      </trkpt>
      <trkpt lat="49.85786" lon="3.32932">
        <ele>99</ele>
        <time>2017-03-19T08:25:40Z</time>
      </trkpt>
      <trkpt lat="49.85786" lon="3.32941">
        <ele>99</ele>
        <time>2017-03-19T08:25:44Z</time>
      </trkpt>
      <trkpt lat="49.85788" lon="3.32949">
        <ele>99</ele>
        <time>2017-03-19T08:25:48Z</time>
      </trkpt>
      <trkpt lat="49.85788" lon="3.32957">
        <ele>99</ele>
        <time>2017-03-19T08:25:52Z</time>
      </trkpt>
      <trkpt lat="49.8579" lon="3.32966">
        <ele>99</ele>
        <time>2017-03-19T08:25:57Z</time>
      </trkpt>
      <trkpt lat="49.85791" lon="3.32973">
        <ele>99</ele>
        <time>2017-03-19T08:26:00Z</time>
      </trkpt>
      <trkpt lat="49.85793" lon="3.32981">
        <ele>100</ele>
        <time>2017-03-19T08:26:04Z</time>
      </trkpt>
      <trkpt lat="49.85794" lon="3.32988">
        <ele>100</ele>
        <time>2017-03-19T08:26:08Z</time>
      </trkpt>
      <trkpt lat="49.85796" lon="3.32996">
        <ele>100</ele>
        <time>2017-03-19T08:26:11Z</time>
      </trkpt>
      <trkpt lat="49.85797" lon="3.33003">
        <ele>100</ele>
        <time>2017-03-19T08:26:14Z</time>
      </trkpt>
      <trkpt lat="49.858" lon="3.33011">
        <ele>100</ele>
        <time>2017-03-19T08:26:17Z</time>
      </trkpt>
      <trkpt lat="49.85799" lon="3.33019">
        <ele>100</ele>
        <time>2017-03-19T08:26:20Z</time>
      </trkpt>
      <trkpt lat="49.85798" lon="3.33026">
        <ele>100</ele>
        <time>2017-03-19T08:26:24Z</time>
      </trkpt>
      <trkpt lat="49.858" lon="3.33033">
        <ele>100</ele>
        <time>2017-03-19T08:26:27Z</time>
      </trkpt>
      <trkpt lat="49.85803" lon="3.33039">
        <ele>100</ele>
        <time>2017-03-19T08:26:30Z</time>
      </trkpt>
      <trkpt lat="49.85809" lon="3.33045">
        <ele>101</ele>
        <time>2017-03-19T08:26:33Z</time>
      </trkpt>
      <trkpt lat="49.85812" lon="3.33051">
        <ele>101</ele>
        <time>2017-03-19T08:26:36Z</time>
      </trkpt>
      <trkpt lat="49.85815" lon="3.33058">
        <ele>102</ele>
        <time>2017-03-19T08:26:40Z</time>
      </trkpt>
      <trkpt lat="49.85815" lon="3.33067">
        <ele>102</ele>
        <time>2017-03-19T08:26:45Z</time>
      </trkpt>
      <trkpt lat="49.85816" lon="3.33074">
        <ele>101</ele>
        <time>2017-03-19T08:26:49Z</time>
      </trkpt>
      <trkpt lat="49.85817" lon="3.33082">
        <ele>100</ele>
        <time>2017-03-19T08:26:53Z</time>
      </trkpt>
      <trkpt lat="49.85818" lon="3.33089">
        <ele>97</ele>
        <time>2017-03-19T08:26:56Z</time>
      </trkpt>
      <trkpt lat="49.85821" lon="3.33096">
        <ele>95</ele>
        <time>2017-03-19T08:27:00Z</time>
      </trkpt>
      <trkpt lat="49.85822" lon="3.33104">
        <ele>94</ele>
        <time>2017-03-19T08:27:04Z</time>
      </trkpt>
      <trkpt lat="49.85823" lon="3.33112">
        <ele>92</ele>
        <time>2017-03-19T08:27:08Z</time>
      </trkpt>
      <trkpt lat="49.85825" lon="3.33119">
        <ele>91</ele>
        <time>2017-03-19T08:27:13Z</time>
      </trkpt>
      <trkpt lat="49.85827" lon="3.33128">
        <ele>90</ele>
        <time>2017-03-19T08:27:17Z</time>
      </trkpt>
      <trkpt lat="49.8583" lon="3.33136">
        <ele>90</ele>
        <time>2017-03-19T08:27:21Z</time>
      </trkpt>
      <trkpt lat="49.85833" lon="3.33142">
        <ele>89</ele>
        <time>2017-03-19T08:27:24Z</time>
      </trkpt>
      <trkpt lat="49.85835" lon="3.3315">
        <ele>88</ele>
        <time>2017-03-19T08:27:28Z</time>
      </trkpt>
      <trkpt lat="49.85838" lon="3.33157">
        <ele>89</ele>
        <time>2017-03-19T08:27:31Z</time>
      </trkpt>
      <trkpt lat="49.85841" lon="3.33163">
        <ele>90</ele>
        <time>2017-03-19T08:27:34Z</time>
      </trkpt>
      <trkpt lat="49.85844" lon="3.33169">
        <ele>91</ele>
        <time>2017-03-19T08:27:37Z</time>
      </trkpt>
      <trkpt lat="49.85845" lon="3.33176">
        <ele>93</ele>
        <time>2017-03-19T08:27:41Z</time>
      </trkpt>
      <trkpt lat="49.85846" lon="3.33183">
        <ele>94</ele>
        <time>2017-03-19T08:27:45Z</time>
      </trkpt>
      <trkpt lat="49.85849" lon="3.33191">
        <ele>94</ele>
        <time>2017-03-19T08:27:49Z</time>
      </trkpt>
      <trkpt lat="49.85851" lon="3.33198">
        <ele>94</ele>
        <time>2017-03-19T08:27:52Z</time>
      </trkpt>
      <trkpt lat="49.85852" lon="3.33205">
        <ele>93</ele>
        <time>2017-03-19T08:27:55Z</time>
      </trkpt>
      <trkpt lat="49.85855" lon="3.33211">
        <ele>92</ele>
        <time>2017-03-19T08:27:58Z</time>
      </trkpt>
      <trkpt lat="49.85857" lon="3.33218">
        <ele>91</ele>
        <time>2017-03-19T08:28:02Z</time>
      </trkpt>
      <trkpt lat="49.85859" lon="3.33225">
        <ele>90</ele>
        <time>2017-03-19T08:28:07Z</time>
      </trkpt>
      <trkpt lat="49.85862" lon="3.33231">
        <ele>89</ele>
        <time>2017-03-19T08:28:10Z</time>
      </trkpt>
      <trkpt lat="49.85861" lon="3.33239">
        <ele>87</ele>
        <time>2017-03-19T08:28:15Z</time>
      </trkpt>
      <trkpt lat="49.85864" lon="3.33245">
        <ele>85</ele>
        <time>2017-03-19T08:28:18Z</time>
      </trkpt>
      <trkpt lat="49.85867" lon="3.33251">
        <ele>85</ele>
        <time>2017-03-19T08:28:21Z</time>
      </trkpt>
      <trkpt lat="49.8587" lon="3.33257">
        <ele>85</ele>
        <time>2017-03-19T08:28:24Z</time>
      </trkpt>
      <trkpt lat="49.85873" lon="3.33264">
        <ele>85</ele>
        <time>2017-03-19T08:28:27Z</time>
      </trkpt>
      <trkpt lat="49.85875" lon="3.33271">
        <ele>87</ele>
        <time>2017-03-19T08:28:30Z</time>
      </trkpt>
      <trkpt lat="49.85878" lon="3.33277">
        <ele>87</ele>
        <time>2017-03-19T08:28:33Z</time>
      </trkpt>
      <trkpt lat="49.85881" lon="3.33283">
        <ele>88</ele>
        <time>2017-03-19T08:28:36Z</time>
      </trkpt>
      <trkpt lat="49.85884" lon="3.3329">
        <ele>88</ele>
        <time>2017-03-19T08:28:40Z</time>
      </trkpt>
      <trkpt lat="49.85886" lon="3.33299">
        <ele>89</ele>
        <time>2017-03-19T08:28:44Z</time>
      </trkpt>
      <trkpt lat="49.85886" lon="3.33307">
        <ele>88</ele>
        <time>2017-03-19T08:28:49Z</time>
      </trkpt>
      <trkpt lat="49.8589" lon="3.33313">
        <ele>88</ele>
        <time>2017-03-19T08:28:52Z</time>
      </trkpt>
      <trkpt lat="49.85891" lon="3.33322">
        <ele>88</ele>
        <time>2017-03-19T08:28:56Z</time>
      </trkpt>
      <trkpt lat="49.85895" lon="3.33327">
        <ele>87</ele>
        <time>2017-03-19T08:28:59Z</time>
      </trkpt>
      <trkpt lat="49.85898" lon="3.33333">
        <ele>86</ele>
        <time>2017-03-19T08:29:03Z</time>
      </trkpt>
      <trkpt lat="49.85903" lon="3.33336">
        <ele>87</ele>
        <time>2017-03-19T08:29:06Z</time>
      </trkpt>
      <trkpt lat="49.85904" lon="3.33345">
        <ele>87</ele>
        <time>2017-03-19T08:29:10Z</time>
      </trkpt>
      <trkpt lat="49.85906" lon="3.33352">
        <ele>87</ele>
        <time>2017-03-19T08:29:14Z</time>
      </trkpt>
      <trkpt lat="49.85909" lon="3.33358">
        <ele>87</ele>
        <time>2017-03-19T08:29:17Z</time>
      </trkpt>
      <trkpt lat="49.85913" lon="3.33365">
        <ele>88</ele>
        <time>2017-03-19T08:29:21Z</time>
      </trkpt>
      <trkpt lat="49.85916" lon="3.33373">
        <ele>87</ele>
        <time>2017-03-19T08:29:25Z</time>
      </trkpt>
      <trkpt lat="49.85918" lon="3.3338">
        <ele>87</ele>
        <time>2017-03-19T08:29:28Z</time>
      </trkpt>
      <trkpt lat="49.85921" lon="3.33388">
        <ele>88</ele>
        <time>2017-03-19T08:29:33Z</time>
      </trkpt>
      <trkpt lat="49.85924" lon="3.33394">
        <ele>88</ele>
        <time>2017-03-19T08:29:36Z</time>
      </trkpt>
      <trkpt lat="49.85926" lon="3.33402">
        <ele>88</ele>
        <time>2017-03-19T08:29:40Z</time>
      </trkpt>
      <trkpt lat="49.85929" lon="3.33408">
        <ele>87</ele>
        <time>2017-03-19T08:29:43Z</time>
      </trkpt>
      <trkpt lat="49.85931" lon="3.33415">
        <ele>87</ele>
        <time>2017-03-19T08:29:47Z</time>
      </trkpt>
      <trkpt lat="49.85935" lon="3.33422">
        <ele>87</ele>
        <time>2017-03-19T08:29:50Z</time>
      </trkpt>
      <trkpt lat="49.85937" lon="3.33429">
        <ele>87</ele>
        <time>2017-03-19T08:29:54Z</time>
      </trkpt>
      <trkpt lat="49.85941" lon="3.33435">
        <ele>87</ele>
        <time>2017-03-19T08:29:57Z</time>
      </trkpt>
      <trkpt lat="49.85943" lon="3.33441">
        <ele>87</ele>
        <time>2017-03-19T08:30:01Z</time>
      </trkpt>
      <trkpt lat="49.85945" lon="3.33447">
        <ele>87</ele>
        <time>2017-03-19T08:30:03Z</time>
      </trkpt>
      <trkpt lat="49.8595" lon="3.33454">
        <ele>86</ele>
        <time>2017-03-19T08:30:07Z</time>
      </trkpt>
      <trkpt lat="49.85952" lon="3.33462">
        <ele>86</ele>
        <time>2017-03-19T08:30:11Z</time>
      </trkpt>
      <trkpt lat="49.85954" lon="3.33469">
        <ele>85</ele>
        <time>2017-03-19T08:30:15Z</time>
      </trkpt>
      <trkpt lat="49.85955" lon="3.33477">
        <ele>85</ele>
        <time>2017-03-19T08:30:19Z</time>
      </trkpt>
      <trkpt lat="49.85959" lon="3.33482">
        <ele>84</ele>
        <time>2017-03-19T08:30:22Z</time>
      </trkpt>
      <trkpt lat="49.85962" lon="3.33488">
        <ele>83</ele>
        <time>2017-03-19T08:30:25Z</time>
      </trkpt>
      <trkpt lat="49.85965" lon="3.33494">
        <ele>82</ele>
        <time>2017-03-19T08:30:28Z</time>
      </trkpt>
      <trkpt lat="49.85968" lon="3.33499">
        <ele>82</ele>
        <time>2017-03-19T08:30:32Z</time>
      </trkpt>
      <trkpt lat="49.85972" lon="3.33506">
        <ele>82</ele>
        <time>2017-03-19T08:30:35Z</time>
      </trkpt>
      <trkpt lat="49.85975" lon="3.33512">
        <ele>83</ele>
        <time>2017-03-19T08:30:37Z</time>
      </trkpt>
      <trkpt lat="49.85977" lon="3.3352">
        <ele>84</ele>
        <time>2017-03-19T08:30:42Z</time>
      </trkpt>
      <trkpt lat="49.85981" lon="3.33528">
        <ele>84</ele>
        <time>2017-03-19T08:30:45Z</time>
      </trkpt>
      <trkpt lat="49.85984" lon="3.33535">
        <ele>86</ele>
        <time>2017-03-19T08:30:49Z</time>
      </trkpt>
      <trkpt lat="49.85987" lon="3.3354">
        <ele>86</ele>
        <time>2017-03-19T08:30:52Z</time>
      </trkpt>
      <trkpt lat="49.85991" lon="3.33546">
        <ele>87</ele>
        <time>2017-03-19T08:30:55Z</time>
      </trkpt>
      <trkpt lat="49.85994" lon="3.33552">
        <ele>87</ele>
        <time>2017-03-19T08:30:58Z</time>
      </trkpt>
      <trkpt lat="49.85997" lon="3.33557">
        <ele>88</ele>
        <time>2017-03-19T08:31:01Z</time>
      </trkpt>
      <trkpt lat="49.85999" lon="3.33565">
        <ele>88</ele>
        <time>2017-03-19T08:31:05Z</time>
      </trkpt>
      <trkpt lat="49.86002" lon="3.33574">
        <ele>88</ele>
        <time>2017-03-19T08:31:09Z</time>
      </trkpt>
      <trkpt lat="49.86004" lon="3.3358">
        <ele>88</ele>
        <time>2017-03-19T08:31:13Z</time>
      </trkpt>
      <trkpt lat="49.86009" lon="3.33588">
        <ele>89</ele>
        <time>2017-03-19T08:31:18Z</time>
      </trkpt>
      <trkpt lat="49.86008" lon="3.33596">
        <ele>88</ele>
        <time>2017-03-19T08:31:23Z</time>
      </trkpt>
      <trkpt lat="49.8601" lon="3.33603">
        <ele>87</ele>
        <time>2017-03-19T08:31:27Z</time>
      </trkpt>
      <trkpt lat="49.86013" lon="3.33609">
        <ele>86</ele>
        <time>2017-03-19T08:31:31Z</time>
      </trkpt>
      <trkpt lat="49.86015" lon="3.33616">
        <ele>84</ele>
        <time>2017-03-19T08:31:36Z</time>
      </trkpt>
      <trkpt lat="49.8602" lon="3.33622">
        <ele>82</ele>
        <time>2017-03-19T08:31:39Z</time>
      </trkpt>
      <trkpt lat="49.86024" lon="3.33629">
        <ele>82</ele>
        <time>2017-03-19T08:31:42Z</time>
      </trkpt>
      <trkpt lat="49.86027" lon="3.33635">
        <ele>82</ele>
        <time>2017-03-19T08:31:46Z</time>
      </trkpt>
      <trkpt lat="49.86031" lon="3.33641">
        <ele>82</ele>
        <time>2017-03-19T08:31:50Z</time>
      </trkpt>
      <trkpt lat="49.86035" lon="3.33646">
        <ele>82</ele>
        <time>2017-03-19T08:31:53Z</time>
      </trkpt>
      <trkpt lat="49.86034" lon="3.33653">
        <ele>82</ele>
        <time>2017-03-19T08:31:58Z</time>
      </trkpt>
      <trkpt lat="49.86037" lon="3.33658">
        <ele>81</ele>
        <time>2017-03-19T08:32:01Z</time>
      </trkpt>
      <trkpt lat="49.8604" lon="3.33665">
        <ele>81</ele>
        <time>2017-03-19T08:32:05Z</time>
      </trkpt>
      <trkpt lat="49.86044" lon="3.33671">
        <ele>80</ele>
        <time>2017-03-19T08:32:08Z</time>
      </trkpt>
      <trkpt lat="49.86046" lon="3.33678">
        <ele>80</ele>
        <time>2017-03-19T08:32:11Z</time>
      </trkpt>
      <trkpt lat="49.8605" lon="3.33682">
        <ele>81</ele>
        <time>2017-03-19T08:32:14Z</time>
      </trkpt>
      <trkpt lat="49.86052" lon="3.3369">
        <ele>82</ele>
        <time>2017-03-19T08:32:17Z</time>
      </trkpt>
      <trkpt lat="49.86055" lon="3.33695">
        <ele>83</ele>
        <time>2017-03-19T08:32:19Z</time>
      </trkpt>
      <trkpt lat="49.86058" lon="3.337">
        <ele>84</ele>
        <time>2017-03-19T08:32:22Z</time>
      </trkpt>
      <trkpt lat="49.86061" lon="3.33708">
        <ele>85</ele>
        <time>2017-03-19T08:32:27Z</time>
      </trkpt>
      <trkpt lat="49.86063" lon="3.33714">
        <ele>85</ele>
        <time>2017-03-19T08:32:31Z</time>
      </trkpt>
      <trkpt lat="49.86066" lon="3.33721">
        <ele>85</ele>
        <time>2017-03-19T08:32:35Z</time>
      </trkpt>
      <trkpt lat="49.86069" lon="3.33727">
        <ele>84</ele>
        <time>2017-03-19T08:32:38Z</time>
      </trkpt>
      <trkpt lat="49.86074" lon="3.33732">
        <ele>84</ele>
        <time>2017-03-19T08:32:41Z</time>
      </trkpt>
      <trkpt lat="49.86075" lon="3.3374">
        <ele>84</ele>
        <time>2017-03-19T08:32:46Z</time>
      </trkpt>
      <trkpt lat="49.86077" lon="3.33747">
        <ele>84</ele>
        <time>2017-03-19T08:32:50Z</time>
      </trkpt>
      <trkpt lat="49.86078" lon="3.33755">
        <ele>84</ele>
        <time>2017-03-19T08:32:55Z</time>
      </trkpt>
      <trkpt lat="49.86081" lon="3.33761">
        <ele>84</ele>
        <time>2017-03-19T08:32:58Z</time>
      </trkpt>
      <trkpt lat="49.86085" lon="3.33768">
        <ele>84</ele>
        <time>2017-03-19T08:33:03Z</time>
      </trkpt>
      <trkpt lat="49.86087" lon="3.33775">
        <ele>83</ele>
        <time>2017-03-19T08:33:07Z</time>
      </trkpt>
      <trkpt lat="49.86092" lon="3.3378">
        <ele>83</ele>
        <time>2017-03-19T08:33:10Z</time>
      </trkpt>
      <trkpt lat="49.86095" lon="3.33786">
        <ele>83</ele>
        <time>2017-03-19T08:33:14Z</time>
      </trkpt>
      <trkpt lat="49.86098" lon="3.33793">
        <ele>82</ele>
        <time>2017-03-19T08:33:17Z</time>
      </trkpt>
      <trkpt lat="49.86101" lon="3.33799">
        <ele>83</ele>
        <time>2017-03-19T08:33:20Z</time>
      </trkpt>
      <trkpt lat="49.86105" lon="3.33804">
        <ele>83</ele>
        <time>2017-03-19T08:33:23Z</time>
      </trkpt>
      <trkpt lat="49.86107" lon="3.3381">
        <ele>84</ele>
        <time>2017-03-19T08:33:26Z</time>
      </trkpt>
      <trkpt lat="49.8611" lon="3.33817">
        <ele>85</ele>
        <time>2017-03-19T08:33:30Z</time>
      </trkpt>
      <trkpt lat="49.86113" lon="3.33822">
        <ele>85</ele>
        <time>2017-03-19T08:33:33Z</time>
      </trkpt>
      <trkpt lat="49.86116" lon="3.33827">
        <ele>86</ele>
        <time>2017-03-19T08:33:36Z</time>
      </trkpt>
      <trkpt lat="49.86121" lon="3.33832">
        <ele>86</ele>
        <time>2017-03-19T08:33:41Z</time>
      </trkpt>
      <trkpt lat="49.86126" lon="3.33838">
        <ele>86</ele>
        <time>2017-03-19T08:33:46Z</time>
      </trkpt>
      <trkpt lat="49.8613" lon="3.33843">
        <ele>85</ele>
        <time>2017-03-19T08:33:49Z</time>
      </trkpt>
      <trkpt lat="49.86134" lon="3.33848">
        <ele>84</ele>
        <time>2017-03-19T08:33:52Z</time>
      </trkpt>
      <trkpt lat="49.86137" lon="3.33854">
        <ele>83</ele>
        <time>2017-03-19T08:33:56Z</time>
      </trkpt>
      <trkpt lat="49.8614" lon="3.33858">
        <ele>82</ele>
        <time>2017-03-19T08:33:58Z</time>
      </trkpt>
      <trkpt lat="49.86145" lon="3.33863">
        <ele>81</ele>
        <time>2017-03-19T08:34:01Z</time>
      </trkpt>
      <trkpt lat="49.86149" lon="3.33869">
        <ele>80</ele>
        <time>2017-03-19T08:34:05Z</time>
      </trkpt>
      <trkpt lat="49.86151" lon="3.33877">
        <ele>80</ele>
        <time>2017-03-19T08:34:09Z</time>
      </trkpt>
      <trkpt lat="49.86154" lon="3.33883">
        <ele>79</ele>
        <time>2017-03-19T08:34:14Z</time>
      </trkpt>
      <trkpt lat="49.86158" lon="3.33889">
        <ele>79</ele>
        <time>2017-03-19T08:34:18Z</time>
      </trkpt>
      <trkpt lat="49.86162" lon="3.33894">
        <ele>79</ele>
        <time>2017-03-19T08:34:21Z</time>
      </trkpt>
      <trkpt lat="49.86166" lon="3.33898">
        <ele>79</ele>
        <time>2017-03-19T08:34:25Z</time>
      </trkpt>
      <trkpt lat="49.86171" lon="3.33903">
        <ele>79</ele>
        <time>2017-03-19T08:34:29Z</time>
      </trkpt>
      <trkpt lat="49.86174" lon="3.3391">
        <ele>79</ele>
        <time>2017-03-19T08:34:34Z</time>
      </trkpt>
      <trkpt lat="49.8618" lon="3.33914">
        <ele>79</ele>
        <time>2017-03-19T08:34:37Z</time>
      </trkpt>
      <trkpt lat="49.86185" lon="3.33918">
        <ele>78</ele>
        <time>2017-03-19T08:34:41Z</time>
      </trkpt>
      <trkpt lat="49.86188" lon="3.33924">
        <ele>79</ele>
        <time>2017-03-19T08:34:45Z</time>
      </trkpt>
      <trkpt lat="49.86192" lon="3.3393">
        <ele>79</ele>
        <time>2017-03-19T08:34:49Z</time>
      </trkpt>
      <trkpt lat="49.86197" lon="3.33935">
        <ele>80</ele>
        <time>2017-03-19T08:34:52Z</time>
      </trkpt>
      <trkpt lat="49.86201" lon="3.3394">
        <ele>80</ele>
        <time>2017-03-19T08:34:55Z</time>
      </trkpt>
      <trkpt lat="49.86206" lon="3.33945">
        <ele>81</ele>
        <time>2017-03-19T08:34:58Z</time>
      </trkpt>
      <trkpt lat="49.8621" lon="3.33949">
        <ele>81</ele>
        <time>2017-03-19T08:35:03Z</time>
      </trkpt>
      <trkpt lat="49.86214" lon="3.33955">
        <ele>82</ele>
        <time>2017-03-19T08:35:08Z</time>
      </trkpt>
      <trkpt lat="49.86218" lon="3.33961">
        <ele>82</ele>
        <time>2017-03-19T08:35:11Z</time>
      </trkpt>
      <trkpt lat="49.86223" lon="3.33966">
        <ele>82</ele>
        <time>2017-03-19T08:35:14Z</time>
      </trkpt>
      <trkpt lat="49.86227" lon="3.33971">
        <ele>82</ele>
        <time>2017-03-19T08:35:17Z</time>
      </trkpt>
      <trkpt lat="49.86229" lon="3.33977">
        <ele>82</ele>
        <time>2017-03-19T08:35:21Z</time>
      </trkpt>
      <trkpt lat="49.86233" lon="3.33982">
        <ele>83</ele>
        <time>2017-03-19T08:35:25Z</time>
      </trkpt>
      <trkpt lat="49.86238" lon="3.33986">
        <ele>82</ele>
        <time>2017-03-19T08:35:29Z</time>
      </trkpt>
      <trkpt lat="49.86242" lon="3.3399">
        <ele>82</ele>
        <time>2017-03-19T08:35:32Z</time>
      </trkpt>
      <trkpt lat="49.86246" lon="3.33995">
        <ele>81</ele>
        <time>2017-03-19T08:35:35Z</time>
      </trkpt>
      <trkpt lat="49.8625" lon="3.34001">
        <ele>81</ele>
        <time>2017-03-19T08:35:39Z</time>
      </trkpt>
      <trkpt lat="49.86254" lon="3.34005">
        <ele>80</ele>
        <time>2017-03-19T08:35:44Z</time>
      </trkpt>
      <trkpt lat="49.86258" lon="3.34009">
        <ele>80</ele>
        <time>2017-03-19T08:35:47Z</time>
      </trkpt>
      <trkpt lat="49.86263" lon="3.34013">
        <ele>81</ele>
        <time>2017-03-19T08:35:50Z</time>
      </trkpt>
      <trkpt lat="49.86267" lon="3.34018">
        <ele>81</ele>
        <time>2017-03-19T08:35:54Z</time>
      </trkpt>
      <trkpt lat="49.86269" lon="3.34025">
        <ele>81</ele>
        <time>2017-03-19T08:36:01Z</time>
      </trkpt>
      <trkpt lat="49.86273" lon="3.34031">
        <ele>80</ele>
        <time>2017-03-19T08:36:06Z</time>
      </trkpt>
      <trkpt lat="49.86277" lon="3.34035">
        <ele>80</ele>
        <time>2017-03-19T08:36:08Z</time>
      </trkpt>
      <trkpt lat="49.8628" lon="3.34041">
        <ele>79</ele>
        <time>2017-03-19T08:36:11Z</time>
      </trkpt>
      <trkpt lat="49.86282" lon="3.34047">
        <ele>78</ele>
        <time>2017-03-19T08:36:16Z</time>
      </trkpt>
      <trkpt lat="49.86287" lon="3.34049">
        <ele>78</ele>
        <time>2017-03-19T08:36:18Z</time>
      </trkpt>
      <trkpt lat="49.86293" lon="3.34056">
        <ele>79</ele>
        <time>2017-03-19T08:36:22Z</time>
      </trkpt>
      <trkpt lat="49.86297" lon="3.34061">
        <ele>79</ele>
        <time>2017-03-19T08:36:25Z</time>
      </trkpt>
      <trkpt lat="49.863" lon="3.34067">
        <ele>79</ele>
        <time>2017-03-19T08:36:29Z</time>
      </trkpt>
      <trkpt lat="49.86304" lon="3.34073">
        <ele>79</ele>
        <time>2017-03-19T08:36:33Z</time>
      </trkpt>
      <trkpt lat="49.86305" lon="3.3408">
        <ele>78</ele>
        <time>2017-03-19T08:36:38Z</time>
      </trkpt>
      <trkpt lat="49.86309" lon="3.34088">
        <ele>78</ele>
        <time>2017-03-19T08:36:41Z</time>
      </trkpt>
      <trkpt lat="49.86313" lon="3.34093">
        <ele>77</ele>
        <time>2017-03-19T08:36:44Z</time>
      </trkpt>
      <trkpt lat="49.86315" lon="3.34099">
        <ele>77</ele>
        <time>2017-03-19T08:36:47Z</time>
      </trkpt>
      <trkpt lat="49.86319" lon="3.34107">
        <ele>77</ele>
        <time>2017-03-19T08:36:53Z</time>
      </trkpt>
      <trkpt lat="49.86321" lon="3.34114">
        <ele>78</ele>
        <time>2017-03-19T08:36:57Z</time>
      </trkpt>
      <trkpt lat="49.86325" lon="3.34119">
        <ele>78</ele>
        <time>2017-03-19T08:37:02Z</time>
      </trkpt>
      <trkpt lat="49.86329" lon="3.34123">
        <ele>77</ele>
        <time>2017-03-19T08:37:07Z</time>
      </trkpt>
      <trkpt lat="49.86334" lon="3.3413">
        <ele>77</ele>
        <time>2017-03-19T08:37:09Z</time>
      </trkpt>
      <trkpt lat="49.86337" lon="3.34137">
        <ele>77</ele>
        <time>2017-03-19T08:37:13Z</time>
      </trkpt>
      <trkpt lat="49.86342" lon="3.34141">
        <ele>77</ele>
        <time>2017-03-19T08:37:16Z</time>
      </trkpt>
      <trkpt lat="49.86346" lon="3.34145">
        <ele>78</ele>
        <time>2017-03-19T08:37:18Z</time>
      </trkpt>
      <trkpt lat="49.86351" lon="3.34152">
        <ele>79</ele>
        <time>2017-03-19T08:37:22Z</time>
      </trkpt>
      <trkpt lat="49.86354" lon="3.3416">
        <ele>80</ele>
        <time>2017-03-19T08:37:26Z</time>
      </trkpt>
      <trkpt lat="49.86359" lon="3.34164">
        <ele>81</ele>
        <time>2017-03-19T08:37:29Z</time>
      </trkpt>
      <trkpt lat="49.86363" lon="3.3417">
        <ele>83</ele>
        <time>2017-03-19T08:37:34Z</time>
      </trkpt>
      <trkpt lat="49.86369" lon="3.34175">
        <ele>83</ele>
        <time>2017-03-19T08:37:38Z</time>
      </trkpt>
      <trkpt lat="49.86371" lon="3.34182">
        <ele>83</ele>
        <time>2017-03-19T08:37:42Z</time>
      </trkpt>
      <trkpt lat="49.86375" lon="3.34188">
        <ele>84</ele>
        <time>2017-03-19T08:37:45Z</time>
      </trkpt>
      <trkpt lat="49.86379" lon="3.34192">
        <ele>84</ele>
        <time>2017-03-19T08:37:47Z</time>
      </trkpt>
      <trkpt lat="49.86382" lon="3.34198">
        <ele>85</ele>
        <time>2017-03-19T08:37:51Z</time>
      </trkpt>
      <trkpt lat="49.86382" lon="3.34208">
        <ele>85</ele>
        <time>2017-03-19T08:37:56Z</time>
      </trkpt>
      <trkpt lat="49.86383" lon="3.34215">
        <ele>84</ele>
        <time>2017-03-19T08:37:59Z</time>
      </trkpt>
      <trkpt lat="49.86386" lon="3.34221">
        <ele>84</ele>
        <time>2017-03-19T08:38:03Z</time>
      </trkpt>
      <trkpt lat="49.86388" lon="3.34227">
        <ele>83</ele>
        <time>2017-03-19T08:38:07Z</time>
      </trkpt>
      <trkpt lat="49.86391" lon="3.34233">
        <ele>81</ele>
        <time>2017-03-19T08:38:11Z</time>
      </trkpt>
      <trkpt lat="49.86395" lon="3.34238">
        <ele>80</ele>
        <time>2017-03-19T08:38:16Z</time>
      </trkpt>
      <trkpt lat="49.86399" lon="3.34246">
        <ele>79</ele>
        <time>2017-03-19T08:38:19Z</time>
      </trkpt>
      <trkpt lat="49.86403" lon="3.34252">
        <ele>79</ele>
        <time>2017-03-19T08:38:22Z</time>
      </trkpt>
      <trkpt lat="49.86407" lon="3.34258">
        <ele>79</ele>
        <time>2017-03-19T08:38:25Z</time>
      </trkpt>
      <trkpt lat="49.8641" lon="3.34264">
        <ele>79</ele>
        <time>2017-03-19T08:38:29Z</time>
      </trkpt>
      <trkpt lat="49.86415" lon="3.3427">
        <ele>79</ele>
        <time>2017-03-19T08:38:33Z</time>
      </trkpt>
      <trkpt lat="49.8642" lon="3.34274">
        <ele>79</ele>
        <time>2017-03-19T08:38:36Z</time>
      </trkpt>
      <trkpt lat="49.86424" lon="3.34279">
        <ele>80</ele>
        <time>2017-03-19T08:38:38Z</time>
      </trkpt>
      <trkpt lat="49.86427" lon="3.34285">
        <ele>80</ele>
        <time>2017-03-19T08:38:42Z</time>
      </trkpt>
      <trkpt lat="49.86429" lon="3.34294">
        <ele>81</ele>
        <time>2017-03-19T08:38:46Z</time>
      </trkpt>
      <trkpt lat="49.8643" lon="3.34301">
        <ele>82</ele>
        <time>2017-03-19T08:38:51Z</time>
      </trkpt>
      <trkpt lat="49.86432" lon="3.34309">
        <ele>83</ele>
        <time>2017-03-19T08:38:54Z</time>
      </trkpt>
      <trkpt lat="49.86437" lon="3.34313">
        <ele>83</ele>
        <time>2017-03-19T08:38:57Z</time>
      </trkpt>
      <trkpt lat="49.86439" lon="3.3432">
        <ele>84</ele>
        <time>2017-03-19T08:39:00Z</time>
      </trkpt>
      <trkpt lat="49.8644" lon="3.34327">
        <ele>84</ele>
        <time>2017-03-19T08:39:03Z</time>
      </trkpt>
      <trkpt lat="49.86443" lon="3.34333">
        <ele>84</ele>
        <time>2017-03-19T08:39:07Z</time>
      </trkpt>
      <trkpt lat="49.86445" lon="3.34342">
        <ele>83</ele>
        <time>2017-03-19T08:39:13Z</time>
      </trkpt>
      <trkpt lat="49.86446" lon="3.34348">
        <ele>82</ele>
        <time>2017-03-19T08:39:16Z</time>
      </trkpt>
      <trkpt lat="49.86445" lon="3.34355">
        <ele>80</ele>
        <time>2017-03-19T08:39:19Z</time>
      </trkpt>
      <trkpt lat="49.86446" lon="3.34363">
        <ele>79</ele>
        <time>2017-03-19T08:39:22Z</time>
      </trkpt>
      <trkpt lat="49.86452" lon="3.34367">
        <ele>78</ele>
        <time>2017-03-19T08:39:25Z</time>
      </trkpt>
      <trkpt lat="49.86454" lon="3.34374">
        <ele>78</ele>
        <time>2017-03-19T08:39:30Z</time>
      </trkpt>
      <trkpt lat="49.86457" lon="3.34379">
        <ele>79</ele>
        <time>2017-03-19T08:39:34Z</time>
      </trkpt>
      <trkpt lat="49.86461" lon="3.34386">
        <ele>80</ele>
        <time>2017-03-19T08:39:37Z</time>
      </trkpt>
      <trkpt lat="49.86462" lon="3.34395">
        <ele>80</ele>
        <time>2017-03-19T08:39:41Z</time>
      </trkpt>
      <trkpt lat="49.86461" lon="3.34403">
        <ele>81</ele>
        <time>2017-03-19T08:39:45Z</time>
      </trkpt>
      <trkpt lat="49.86463" lon="3.34411">
        <ele>81</ele>
        <time>2017-03-19T08:39:49Z</time>
      </trkpt>
      <trkpt lat="49.86464" lon="3.34418">
        <ele>81</ele>
        <time>2017-03-19T08:39:53Z</time>
      </trkpt>
      <trkpt lat="49.86463" lon="3.34427">
        <ele>80</ele>
        <time>2017-03-19T08:39:57Z</time>
      </trkpt>
      <trkpt lat="49.86466" lon="3.34434">
        <ele>79</ele>
        <time>2017-03-19T08:40:00Z</time>
      </trkpt>
      <trkpt lat="49.86468" lon="3.34441">
        <ele>78</ele>
        <time>2017-03-19T08:40:04Z</time>
      </trkpt>
      <trkpt lat="49.86468" lon="3.34449">
        <ele>77</ele>
        <time>2017-03-19T08:40:07Z</time>
      </trkpt>
      <trkpt lat="49.86467" lon="3.34457">
        <ele>77</ele>
        <time>2017-03-19T08:40:10Z</time>
      </trkpt>
      <trkpt lat="49.86471" lon="3.34463">
        <ele>77</ele>
        <time>2017-03-19T08:40:13Z</time>
      </trkpt>
      <trkpt lat="49.86474" lon="3.3447">
        <ele>78</ele>
        <time>2017-03-19T08:40:16Z</time>
      </trkpt>
      <trkpt lat="49.86477" lon="3.34477">
        <ele>79</ele>
        <time>2017-03-19T08:40:19Z</time>
      </trkpt>
      <trkpt lat="49.8648" lon="3.34486">
        <ele>79</ele>
        <time>2017-03-19T08:40:27Z</time>
      </trkpt>
      <trkpt lat="49.8648" lon="3.34492">
        <ele>79</ele>
        <time>2017-03-19T08:40:32Z</time>
      </trkpt>
      <trkpt lat="49.86484" lon="3.34499">
        <ele>77</ele>
        <time>2017-03-19T08:40:35Z</time>
      </trkpt>
      <trkpt lat="49.86486" lon="3.34507">
        <ele>76</ele>
        <time>2017-03-19T08:40:38Z</time>
      </trkpt>
      <trkpt lat="49.86486" lon="3.34514">
        <ele>75</ele>
        <time>2017-03-19T08:40:40Z</time>
      </trkpt>
      <trkpt lat="49.86491" lon="3.34521">
        <ele>75</ele>
        <time>2017-03-19T08:40:43Z</time>
      </trkpt>
      <trkpt lat="49.86493" lon="3.34529">
        <ele>76</ele>
        <time>2017-03-19T08:40:46Z</time>
      </trkpt>
      <trkpt lat="49.86494" lon="3.34536">
        <ele>77</ele>
        <time>2017-03-19T08:40:51Z</time>
      </trkpt>
      <trkpt lat="49.86494" lon="3.34545">
        <ele>77</ele>
        <time>2017-03-19T08:40:55Z</time>
      </trkpt>
      <trkpt lat="49.86499" lon="3.34549">
        <ele>78</ele>
        <time>2017-03-19T08:40:58Z</time>
      </trkpt>
      <trkpt lat="49.86502" lon="3.34558">
        <ele>79</ele>
        <time>2017-03-19T08:41:01Z</time>
      </trkpt>
      <trkpt lat="49.86505" lon="3.34563">
        <ele>80</ele>
        <time>2017-03-19T08:41:03Z</time>
      </trkpt>
      <trkpt lat="49.86506" lon="3.34571">
        <ele>81</ele>
        <time>2017-03-19T08:41:07Z</time>
      </trkpt>
      <trkpt lat="49.8651" lon="3.34576">
        <ele>82</ele>
        <time>2017-03-19T08:41:10Z</time>
      </trkpt>
      <trkpt lat="49.86511" lon="3.34583">
        <ele>83</ele>
        <time>2017-03-19T08:41:13Z</time>
      </trkpt>
      <trkpt lat="49.86515" lon="3.34588">
        <ele>84</ele>
        <time>2017-03-19T08:41:17Z</time>
      </trkpt>
      <trkpt lat="49.86516" lon="3.34596">
        <ele>85</ele>
        <time>2017-03-19T08:41:19Z</time>
      </trkpt>
      <trkpt lat="49.8652" lon="3.34604">
        <ele>86</ele>
        <time>2017-03-19T08:41:24Z</time>
      </trkpt>
      <trkpt lat="49.86526" lon="3.34604">
        <ele>87</ele>
        <time>2017-03-19T08:41:28Z</time>
      </trkpt>
      <trkpt lat="49.86527" lon="3.34613">
        <ele>88</ele>
        <time>2017-03-19T08:41:31Z</time>
      </trkpt>
      <trkpt lat="49.86525" lon="3.34621">
        <ele>87</ele>
        <time>2017-03-19T08:41:35Z</time>
      </trkpt>
      <trkpt lat="49.86525" lon="3.34628">
        <ele>86</ele>
        <time>2017-03-19T08:41:39Z</time>
      </trkpt>
      <trkpt lat="49.86527" lon="3.34636">
        <ele>86</ele>
        <time>2017-03-19T08:41:42Z</time>
      </trkpt>
      <trkpt lat="49.86532" lon="3.34639">
        <ele>85</ele>
        <time>2017-03-19T08:41:44Z</time>
      </trkpt>
      <trkpt lat="49.86534" lon="3.34646">
        <ele>85</ele>
        <time>2017-03-19T08:41:49Z</time>
      </trkpt>
      <trkpt lat="49.86535" lon="3.34654">
        <ele>84</ele>
        <time>2017-03-19T08:41:53Z</time>
      </trkpt>
      <trkpt lat="49.86538" lon="3.34662">
        <ele>83</ele>
        <time>2017-03-19T08:42:00Z</time>
      </trkpt>
      <trkpt lat="49.86539" lon="3.34671">
        <ele>82</ele>
        <time>2017-03-19T08:42:02Z</time>
      </trkpt>
      <trkpt lat="49.8654" lon="3.34678">
        <ele>82</ele>
        <time>2017-03-19T08:42:05Z</time>
      </trkpt>
      <trkpt lat="49.86542" lon="3.34686">
        <ele>82</ele>
        <time>2017-03-19T08:42:09Z</time>
      </trkpt>
      <trkpt lat="49.86538" lon="3.3469">
        <ele>81</ele>
        <time>2017-03-19T08:42:14Z</time>
      </trkpt>
      <trkpt lat="49.86538" lon="3.34698">
        <ele>81</ele>
        <time>2017-03-19T08:42:20Z</time>
      </trkpt>
      <trkpt lat="49.8654" lon="3.34706">
        <ele>80</ele>
        <time>2017-03-19T08:42:24Z</time>
      </trkpt>
      <trkpt lat="49.86541" lon="3.34715">
        <ele>79</ele>
        <time>2017-03-19T08:42:29Z</time>
      </trkpt>
      <trkpt lat="49.86544" lon="3.34721">
        <ele>77</ele>
        <time>2017-03-19T08:42:31Z</time>
      </trkpt>
      <trkpt lat="49.86548" lon="3.34727">
        <ele>76</ele>
        <time>2017-03-19T08:42:35Z</time>
      </trkpt>
      <trkpt lat="49.86551" lon="3.34733">
        <ele>76</ele>
        <time>2017-03-19T08:42:37Z</time>
      </trkpt>
      <trkpt lat="49.86555" lon="3.34738">
        <ele>76</ele>
        <time>2017-03-19T08:42:39Z</time>
      </trkpt>
      <trkpt lat="49.86562" lon="3.34745">
        <ele>76</ele>
        <time>2017-03-19T08:42:41Z</time>
      </trkpt>
      <trkpt lat="49.86563" lon="3.34753">
        <ele>77</ele>
        <time>2017-03-19T08:42:46Z</time>
      </trkpt>
      <trkpt lat="49.86562" lon="3.34761">
        <ele>78</ele>
        <time>2017-03-19T08:42:50Z</time>
      </trkpt>
      <trkpt lat="49.86565" lon="3.34768">
        <ele>79</ele>
        <time>2017-03-19T08:42:53Z</time>
      </trkpt>
      <trkpt lat="49.86568" lon="3.34774">
        <ele>81</ele>
        <time>2017-03-19T08:42:56Z</time>
      </trkpt>
      <trkpt lat="49.86571" lon="3.34781">
        <ele>81</ele>
        <time>2017-03-19T08:42:59Z</time>
      </trkpt>
      <trkpt lat="49.86573" lon="3.34788">
        <ele>82</ele>
        <time>2017-03-19T08:43:02Z</time>
      </trkpt>
      <trkpt lat="49.86575" lon="3.34795">
        <ele>81</ele>
        <time>2017-03-19T08:43:08Z</time>
      </trkpt>
      <trkpt lat="49.86579" lon="3.34804">
        <ele>80</ele>
        <time>2017-03-19T08:43:12Z</time>
      </trkpt>
      <trkpt lat="49.86581" lon="3.3481">
        <ele>79</ele>
        <time>2017-03-19T08:43:16Z</time>
      </trkpt>
      <trkpt lat="49.86584" lon="3.34817">
        <ele>78</ele>
        <time>2017-03-19T08:43:20Z</time>
      </trkpt>
      <trkpt lat="49.86586" lon="3.34824">
        <ele>76</ele>
        <time>2017-03-19T08:43:23Z</time>
      </trkpt>
      <trkpt lat="49.86589" lon="3.34829">
        <ele>76</ele>
        <time>2017-03-19T08:43:25Z</time>
      </trkpt>
      <trkpt lat="49.86592" lon="3.34835">
        <ele>77</ele>
        <time>2017-03-19T08:43:27Z</time>
      </trkpt>
      <trkpt lat="49.86596" lon="3.34841">
        <ele>77</ele>
        <time>2017-03-19T08:43:32Z</time>
      </trkpt>
      <trkpt lat="49.86597" lon="3.34848">
        <ele>76</ele>
        <time>2017-03-19T08:43:36Z</time>
      </trkpt>
      <trkpt lat="49.86601" lon="3.34852">
        <ele>76</ele>
        <time>2017-03-19T08:43:39Z</time>
      </trkpt>
      <trkpt lat="49.86604" lon="3.34861">
        <ele>76</ele>
        <time>2017-03-19T08:43:44Z</time>
      </trkpt>
      <trkpt lat="49.86606" lon="3.34868">
        <ele>76</ele>
        <time>2017-03-19T08:43:47Z</time>
      </trkpt>
      <trkpt lat="49.86607" lon="3.34876">
        <ele>77</ele>
        <time>2017-03-19T08:43:52Z</time>
      </trkpt>
      <trkpt lat="49.86607" lon="3.34883">
        <ele>77</ele>
        <time>2017-03-19T08:43:55Z</time>
      </trkpt>
      <trkpt lat="49.86612" lon="3.34887">
        <ele>78</ele>
        <time>2017-03-19T08:43:58Z</time>
      </trkpt>
      <trkpt lat="49.86619" lon="3.34894">
        <ele>79</ele>
        <time>2017-03-19T08:44:00Z</time>
      </trkpt>
      <trkpt lat="49.86622" lon="3.349">
        <ele>79</ele>
        <time>2017-03-19T08:44:04Z</time>
      </trkpt>
      <trkpt lat="49.86624" lon="3.34907">
        <ele>80</ele>
        <time>2017-03-19T08:44:08Z</time>
      </trkpt>
      <trkpt lat="49.86629" lon="3.34913">
        <ele>80</ele>
        <time>2017-03-19T08:44:11Z</time>
      </trkpt>
      <trkpt lat="49.8663" lon="3.3492">
        <ele>80</ele>
        <time>2017-03-19T08:44:15Z</time>
      </trkpt>
      <trkpt lat="49.86633" lon="3.34926">
        <ele>80</ele>
        <time>2017-03-19T08:44:18Z</time>
      </trkpt>
      <trkpt lat="49.86633" lon="3.34933">
        <ele>80</ele>
        <time>2017-03-19T08:44:21Z</time>
      </trkpt>
      <trkpt lat="49.86636" lon="3.34938">
        <ele>81</ele>
        <time>2017-03-19T08:44:25Z</time>
      </trkpt>
      <trkpt lat="49.86639" lon="3.34943">
        <ele>82</ele>
        <time>2017-03-19T08:44:28Z</time>
      </trkpt>
      <trkpt lat="49.86643" lon="3.34949">
        <ele>82</ele>
        <time>2017-03-19T08:44:32Z</time>
      </trkpt>
      <trkpt lat="49.86644" lon="3.34956">
        <ele>82</ele>
        <time>2017-03-19T08:44:36Z</time>
      </trkpt>
      <trkpt lat="49.86644" lon="3.34964">
        <ele>81</ele>
        <time>2017-03-19T08:44:40Z</time>
      </trkpt>
      <trkpt lat="49.86647" lon="3.34969">
        <ele>81</ele>
        <time>2017-03-19T08:44:42Z</time>
      </trkpt>
      <trkpt lat="49.8665" lon="3.34974">
        <ele>80</ele>
        <time>2017-03-19T08:44:47Z</time>
      </trkpt>
      <trkpt lat="49.86655" lon="3.34977">
        <ele>80</ele>
        <time>2017-03-19T08:44:49Z</time>
      </trkpt>
      <trkpt lat="49.86659" lon="3.34984">
        <ele>80</ele>
        <time>2017-03-19T08:44:53Z</time>
      </trkpt>
      <trkpt lat="49.86659" lon="3.34992">
        <ele>80</ele>
        <time>2017-03-19T08:44:57Z</time>
      </trkpt>
      <trkpt lat="49.86663" lon="3.34996">
        <ele>79</ele>
        <time>2017-03-19T08:45:00Z</time>
      </trkpt>
      <trkpt lat="49.8666" lon="3.35005">
        <ele>78</ele>
        <time>2017-03-19T08:45:05Z</time>
      </trkpt>
      <trkpt lat="49.86664" lon="3.35011">
        <ele>77</ele>
        <time>2017-03-19T08:45:08Z</time>
      </trkpt>
      <trkpt lat="49.86668" lon="3.35019">
        <ele>76</ele>
        <time>2017-03-19T08:45:10Z</time>
      </trkpt>
      <trkpt lat="49.86669" lon="3.35027">
        <ele>76</ele>
        <time>2017-03-19T08:45:15Z</time>
      </trkpt>
      <trkpt lat="49.86673" lon="3.35032">
        <ele>76</ele>
        <time>2017-03-19T08:45:18Z</time>
      </trkpt>
      <trkpt lat="49.86678" lon="3.35034">
        <ele>78</ele>
        <time>2017-03-19T08:45:21Z</time>
      </trkpt>
      <trkpt lat="49.86681" lon="3.3504">
        <ele>81</ele>
        <time>2017-03-19T08:45:24Z</time>
      </trkpt>
      <trkpt lat="49.86685" lon="3.35047">
        <ele>83</ele>
        <time>2017-03-19T08:45:29Z</time>
      </trkpt>
      <trkpt lat="49.86689" lon="3.35052">
        <ele>84</ele>
        <time>2017-03-19T08:45:32Z</time>
      </trkpt>
      <trkpt lat="49.86688" lon="3.3506">
        <ele>84</ele>
        <time>2017-03-19T08:45:36Z</time>
      </trkpt>
      <trkpt lat="49.86691" lon="3.35067">
        <ele>84</ele>
        <time>2017-03-19T08:45:40Z</time>
      </trkpt>
      <trkpt lat="49.86693" lon="3.35074">
        <ele>83</ele>
        <time>2017-03-19T08:45:43Z</time>
      </trkpt>
      <trkpt lat="49.86695" lon="3.3508">
        <ele>82</ele>
        <time>2017-03-19T08:45:49Z</time>
      </trkpt>
      <trkpt lat="49.86695" lon="3.35088">
        <ele>82</ele>
        <time>2017-03-19T08:45:51Z</time>
      </trkpt>
      <trkpt lat="49.86696" lon="3.35096">
        <ele>81</ele>
        <time>2017-03-19T08:45:55Z</time>
      </trkpt>
      <trkpt lat="49.86697" lon="3.35104">
        <ele>82</ele>
        <time>2017-03-19T08:45:58Z</time>
      </trkpt>
      <trkpt lat="49.86696" lon="3.35112">
        <ele>83</ele>
        <time>2017-03-19T08:46:01Z</time>
      </trkpt>
      <trkpt lat="49.86697" lon="3.35119">
        <ele>84</ele>
        <time>2017-03-19T08:46:04Z</time>
      </trkpt>
      <trkpt lat="49.86696" lon="3.35127">
        <ele>84</ele>
        <time>2017-03-19T08:46:07Z</time>
      </trkpt>
      <trkpt lat="49.867" lon="3.35132">
        <ele>85</ele>
        <time>2017-03-19T08:46:11Z</time>
      </trkpt>
      <trkpt lat="49.86698" lon="3.35139">
        <ele>85</ele>
        <time>2017-03-19T08:46:14Z</time>
      </trkpt>
      <trkpt lat="49.86701" lon="3.3515">
        <ele>85</ele>
        <time>2017-03-19T08:46:19Z</time>
      </trkpt>
      <trkpt lat="49.86703" lon="3.35159">
        <ele>85</ele>
        <time>2017-03-19T08:46:23Z</time>
      </trkpt>
      <trkpt lat="49.867" lon="3.3517">
        <ele>85</ele>
        <time>2017-03-19T08:46:27Z</time>
      </trkpt>
      <trkpt lat="49.86703" lon="3.35176">
        <ele>86</ele>
        <time>2017-03-19T08:46:31Z</time>
      </trkpt>
      <trkpt lat="49.86701" lon="3.35183">
        <ele>86</ele>
        <time>2017-03-19T08:46:35Z</time>
      </trkpt>
      <trkpt lat="49.86703" lon="3.35191">
        <ele>86</ele>
        <time>2017-03-19T08:46:40Z</time>
      </trkpt>
      <trkpt lat="49.867" lon="3.35197">
        <ele>86</ele>
        <time>2017-03-19T08:46:43Z</time>
      </trkpt>
      <trkpt lat="49.86704" lon="3.35203">
        <ele>85</ele>
        <time>2017-03-19T08:46:47Z</time>
      </trkpt>
      <trkpt lat="49.86707" lon="3.35209">
        <ele>84</ele>
        <time>2017-03-19T08:46:51Z</time>
      </trkpt>
      <trkpt lat="49.8671" lon="3.35216">
        <ele>84</ele>
        <time>2017-03-19T08:46:55Z</time>
      </trkpt>
      <trkpt lat="49.86714" lon="3.35224">
        <ele>84</ele>
        <time>2017-03-19T08:47:00Z</time>
      </trkpt>
      <trkpt lat="49.86716" lon="3.35231">
        <ele>84</ele>
        <time>2017-03-19T08:47:06Z</time>
      </trkpt>
      <trkpt lat="49.8672" lon="3.35236">
        <ele>84</ele>
        <time>2017-03-19T08:47:09Z</time>
      </trkpt>
      <trkpt lat="49.86722" lon="3.35242">
        <ele>85</ele>
        <time>2017-03-19T08:47:13Z</time>
      </trkpt>
      <trkpt lat="49.86726" lon="3.35251">
        <ele>85</ele>
        <time>2017-03-19T08:47:17Z</time>
      </trkpt>
      <trkpt lat="49.86728" lon="3.35259">
        <ele>84</ele>
        <time>2017-03-19T08:47:21Z</time>
      </trkpt>
      <trkpt lat="49.86733" lon="3.35265">
        <ele>83</ele>
        <time>2017-03-19T08:47:24Z</time>
      </trkpt>
      <trkpt lat="49.86735" lon="3.35273">
        <ele>84</ele>
        <time>2017-03-19T08:47:27Z</time>
      </trkpt>
      <trkpt lat="49.8674" lon="3.35277">
        <ele>84</ele>
        <time>2017-03-19T08:47:29Z</time>
      </trkpt>
      <trkpt lat="49.86744" lon="3.35281">
        <ele>85</ele>
        <time>2017-03-19T08:47:32Z</time>
      </trkpt>
      <trkpt lat="49.86748" lon="3.35286">
        <ele>86</ele>
        <time>2017-03-19T08:47:34Z</time>
      </trkpt>
      <trkpt lat="49.86743" lon="3.35287">
        <ele>87</ele>
        <time>2017-03-19T08:47:35Z</time>
      </trkpt>
      <trkpt lat="49.86749" lon="3.35292">
        <ele>87</ele>
        <time>2017-03-19T08:47:37Z</time>
      </trkpt>
      <trkpt lat="49.8675" lon="3.35301">
        <ele>87</ele>
        <time>2017-03-19T08:47:42Z</time>
      </trkpt>
      <trkpt lat="49.86754" lon="3.35306">
        <ele>86</ele>
        <time>2017-03-19T08:47:45Z</time>
      </trkpt>
      <trkpt lat="49.86758" lon="3.3531">
        <ele>86</ele>
        <time>2017-03-19T08:47:48Z</time>
      </trkpt>
      <trkpt lat="49.86757" lon="3.35317">
        <ele>85</ele>
        <time>2017-03-19T08:47:54Z</time>
      </trkpt>
      <trkpt lat="49.86755" lon="3.35325">
        <ele>85</ele>
        <time>2017-03-19T08:47:57Z</time>
      </trkpt>
      <trkpt lat="49.86751" lon="3.35329">
        <ele>85</ele>
        <time>2017-03-19T08:48:01Z</time>
      </trkpt>
      <trkpt lat="49.86744" lon="3.35337">
        <ele>85</ele>
        <time>2017-03-19T08:48:06Z</time>
      </trkpt>
      <trkpt lat="49.86741" lon="3.35342">
        <ele>86</ele>
        <time>2017-03-19T08:48:08Z</time>
      </trkpt>
      <trkpt lat="49.86736" lon="3.35347">
        <ele>87</ele>
        <time>2017-03-19T08:48:12Z</time>
      </trkpt>
      <trkpt lat="49.86731" lon="3.35352">
        <ele>87</ele>
        <time>2017-03-19T08:48:16Z</time>
      </trkpt>
      <trkpt lat="49.86725" lon="3.35357">
        <ele>87</ele>
        <time>2017-03-19T08:48:20Z</time>
      </trkpt>
      <trkpt lat="49.8672" lon="3.35361">
        <ele>87</ele>
        <time>2017-03-19T08:48:26Z</time>
      </trkpt>
      <trkpt lat="49.86715" lon="3.35365">
        <ele>87</ele>
        <time>2017-03-19T08:48:31Z</time>
      </trkpt>
      <trkpt lat="49.86711" lon="3.35371">
        <ele>87</ele>
        <time>2017-03-19T08:48:38Z</time>
      </trkpt>
      <trkpt lat="49.86707" lon="3.35375">
        <ele>87</ele>
        <time>2017-03-19T08:48:42Z</time>
      </trkpt>
      <trkpt lat="49.86702" lon="3.35378">
        <ele>87</ele>
        <time>2017-03-19T08:48:45Z</time>
      </trkpt>
      <trkpt lat="49.86697" lon="3.35381">
        <ele>86</ele>
        <time>2017-03-19T08:48:48Z</time>
      </trkpt>
      <trkpt lat="49.86692" lon="3.35382">
        <ele>86</ele>
        <time>2017-03-19T08:48:50Z</time>
      </trkpt>
      <trkpt lat="49.86686" lon="3.35384">
        <ele>87</ele>
        <time>2017-03-19T08:48:53Z</time>
      </trkpt>
      <trkpt lat="49.86681" lon="3.35387">
        <ele>88</ele>
        <time>2017-03-19T08:48:58Z</time>
      </trkpt>
      <trkpt lat="49.86676" lon="3.35392">
        <ele>89</ele>
        <time>2017-03-19T08:49:02Z</time>
      </trkpt>
      <trkpt lat="49.86672" lon="3.35395">
        <ele>89</ele>
        <time>2017-03-19T08:49:06Z</time>
      </trkpt>
      <trkpt lat="49.86667" lon="3.35395">
        <ele>90</ele>
        <time>2017-03-19T08:49:10Z</time>
      </trkpt>
      <trkpt lat="49.86662" lon="3.35398">
        <ele>90</ele>
        <time>2017-03-19T08:49:14Z</time>
      </trkpt>
      <trkpt lat="49.86657" lon="3.35401">
        <ele>90</ele>
        <time>2017-03-19T08:49:21Z</time>
      </trkpt>
      <trkpt lat="49.86653" lon="3.354">
        <ele>89</ele>
        <time>2017-03-19T08:49:24Z</time>
      </trkpt>
      <trkpt lat="49.86649" lon="3.35404">
        <ele>89</ele>
        <time>2017-03-19T08:49:27Z</time>
      </trkpt>
      <trkpt lat="49.86643" lon="3.35409">
        <ele>88</ele>
        <time>2017-03-19T08:49:31Z</time>
      </trkpt>
      <trkpt lat="49.86638" lon="3.35413">
        <ele>88</ele>
        <time>2017-03-19T08:49:38Z</time>
      </trkpt>
      <trkpt lat="49.86634" lon="3.35418">
        <ele>88</ele>
        <time>2017-03-19T08:49:41Z</time>
      </trkpt>
      <trkpt lat="49.8663" lon="3.35422">
        <ele>89</ele>
        <time>2017-03-19T08:49:43Z</time>
      </trkpt>
      <trkpt lat="49.86625" lon="3.35424">
        <ele>89</ele>
        <time>2017-03-19T08:49:46Z</time>
      </trkpt>
      <trkpt lat="49.86621" lon="3.35426">
        <ele>90</ele>
        <time>2017-03-19T08:49:49Z</time>
      </trkpt>
      <trkpt lat="49.86616" lon="3.35429">
        <ele>91</ele>
        <time>2017-03-19T08:49:54Z</time>
      </trkpt>
      <trkpt lat="49.86611" lon="3.35434">
        <ele>91</ele>
        <time>2017-03-19T08:49:57Z</time>
      </trkpt>
      <trkpt lat="49.86608" lon="3.3544">
        <ele>92</ele>
        <time>2017-03-19T08:50:00Z</time>
      </trkpt>
      <trkpt lat="49.86604" lon="3.35444">
        <ele>92</ele>
        <time>2017-03-19T08:50:03Z</time>
      </trkpt>
      <trkpt lat="49.86601" lon="3.35451">
        <ele>92</ele>
        <time>2017-03-19T08:50:08Z</time>
      </trkpt>
      <trkpt lat="49.86595" lon="3.35456">
        <ele>93</ele>
        <time>2017-03-19T08:50:12Z</time>
      </trkpt>
      <trkpt lat="49.86591" lon="3.35459">
        <ele>93</ele>
        <time>2017-03-19T08:50:17Z</time>
      </trkpt>
      <trkpt lat="49.86586" lon="3.35465">
        <ele>94</ele>
        <time>2017-03-19T08:50:23Z</time>
      </trkpt>
      <trkpt lat="49.86582" lon="3.35471">
        <ele>94</ele>
        <time>2017-03-19T08:50:28Z</time>
      </trkpt>
      <trkpt lat="49.86577" lon="3.35473">
        <ele>94</ele>
        <time>2017-03-19T08:50:32Z</time>
      </trkpt>
      <trkpt lat="49.86572" lon="3.35476">
        <ele>95</ele>
        <time>2017-03-19T08:50:35Z</time>
      </trkpt>
      <trkpt lat="49.86568" lon="3.35481">
        <ele>95</ele>
        <time>2017-03-19T08:50:39Z</time>
      </trkpt>
      <trkpt lat="49.86564" lon="3.35485">
        <ele>96</ele>
        <time>2017-03-19T08:50:43Z</time>
      </trkpt>
      <trkpt lat="49.86559" lon="3.3549">
        <ele>97</ele>
        <time>2017-03-19T08:50:46Z</time>
      </trkpt>
      <trkpt lat="49.86555" lon="3.35494">
        <ele>97</ele>
        <time>2017-03-19T08:50:52Z</time>
      </trkpt>
      <trkpt lat="49.86551" lon="3.35497">
        <ele>98</ele>
        <time>2017-03-19T08:50:55Z</time>
      </trkpt>
      <trkpt lat="49.86547" lon="3.35504">
        <ele>99</ele>
        <time>2017-03-19T08:50:59Z</time>
      </trkpt>
      <trkpt lat="49.86543" lon="3.35508">
        <ele>100</ele>
        <time>2017-03-19T08:51:04Z</time>
      </trkpt>
      <trkpt lat="49.86539" lon="3.35511">
        <ele>100</ele>
        <time>2017-03-19T08:51:08Z</time>
      </trkpt>
      <trkpt lat="49.86534" lon="3.35514">
        <ele>100</ele>
        <time>2017-03-19T08:51:13Z</time>
      </trkpt>
      <trkpt lat="49.86529" lon="3.3552">
        <ele>99</ele>
        <time>2017-03-19T08:51:16Z</time>
      </trkpt>
      <trkpt lat="49.86523" lon="3.35521">
        <ele>98</ele>
        <time>2017-03-19T08:51:24Z</time>
      </trkpt>
      <trkpt lat="49.86519" lon="3.35526">
        <ele>97</ele>
        <time>2017-03-19T08:51:28Z</time>
      </trkpt>
      <trkpt lat="49.86515" lon="3.35532">
        <ele>97</ele>
        <time>2017-03-19T08:51:31Z</time>
      </trkpt>
      <trkpt lat="49.86511" lon="3.35537">
        <ele>97</ele>
        <time>2017-03-19T08:51:34Z</time>
      </trkpt>
      <trkpt lat="49.86507" lon="3.35542">
        <ele>97</ele>
        <time>2017-03-19T08:51:38Z</time>
      </trkpt>
      <trkpt lat="49.86503" lon="3.35545">
        <ele>97</ele>
        <time>2017-03-19T08:51:42Z</time>
      </trkpt>
      <trkpt lat="49.865" lon="3.35551">
        <ele>98</ele>
        <time>2017-03-19T08:51:44Z</time>
      </trkpt>
      <trkpt lat="49.86496" lon="3.35557">
        <ele>99</ele>
        <time>2017-03-19T08:51:48Z</time>
      </trkpt>
      <trkpt lat="49.86491" lon="3.35565">
        <ele>100</ele>
        <time>2017-03-19T08:51:51Z</time>
      </trkpt>
      <trkpt lat="49.86488" lon="3.35571">
        <ele>101</ele>
        <time>2017-03-19T08:51:55Z</time>
      </trkpt>
      <trkpt lat="49.86484" lon="3.35574">
        <ele>102</ele>
        <time>2017-03-19T08:51:58Z</time>
      </trkpt>
      <trkpt lat="49.8648" lon="3.3558">
        <ele>102</ele>
        <time>2017-03-19T08:52:02Z</time>
      </trkpt>
      <trkpt lat="49.86475" lon="3.35583">
        <ele>103</ele>
        <time>2017-03-19T08:52:06Z</time>
      </trkpt>
      <trkpt lat="49.8647" lon="3.35586">
        <ele>104</ele>
        <time>2017-03-19T08:52:10Z</time>
      </trkpt>
      <trkpt lat="49.86467" lon="3.35593">
        <ele>105</ele>
        <time>2017-03-19T08:52:14Z</time>
      </trkpt>
      <trkpt lat="49.86462" lon="3.35594">
        <ele>104</ele>
        <time>2017-03-19T08:52:20Z</time>
      </trkpt>
      <trkpt lat="49.86456" lon="3.35594">
        <ele>104</ele>
        <time>2017-03-19T08:52:25Z</time>
      </trkpt>
      <trkpt lat="49.86454" lon="3.356">
        <ele>103</ele>
        <time>2017-03-19T08:52:29Z</time>
      </trkpt>
      <trkpt lat="49.86449" lon="3.35605">
        <ele>103</ele>
        <time>2017-03-19T08:52:32Z</time>
      </trkpt>
      <trkpt lat="49.86445" lon="3.35608">
        <ele>102</ele>
        <time>2017-03-19T08:52:36Z</time>
      </trkpt>
      <trkpt lat="49.86443" lon="3.35615">
        <ele>102</ele>
        <time>2017-03-19T08:52:44Z</time>
      </trkpt>
      <trkpt lat="49.86438" lon="3.35617">
        <ele>102</ele>
        <time>2017-03-19T08:52:50Z</time>
      </trkpt>
      <trkpt lat="49.86433" lon="3.3562">
        <ele>103</ele>
        <time>2017-03-19T08:52:53Z</time>
      </trkpt>
      <trkpt lat="49.86429" lon="3.35624">
        <ele>102</ele>
        <time>2017-03-19T08:52:56Z</time>
      </trkpt>
      <trkpt lat="49.86424" lon="3.35629">
        <ele>102</ele>
        <time>2017-03-19T08:52:59Z</time>
      </trkpt>
      <trkpt lat="49.8642" lon="3.35637">
        <ele>104</ele>
        <time>2017-03-19T08:53:02Z</time>
      </trkpt>
      <trkpt lat="49.86416" lon="3.35642">
        <ele>105</ele>
        <time>2017-03-19T08:53:07Z</time>
      </trkpt>
      <trkpt lat="49.86414" lon="3.35648">
        <ele>105</ele>
        <time>2017-03-19T08:53:10Z</time>
      </trkpt>
      <trkpt lat="49.86408" lon="3.35646">
        <ele>106</ele>
        <time>2017-03-19T08:53:16Z</time>
      </trkpt>
      <trkpt lat="49.86404" lon="3.35649">
        <ele>106</ele>
        <time>2017-03-19T08:53:20Z</time>
      </trkpt>
      <trkpt lat="49.86399" lon="3.3565">
        <ele>105</ele>
        <time>2017-03-19T08:53:24Z</time>
      </trkpt>
      <trkpt lat="49.86395" lon="3.35656">
        <ele>106</ele>
        <time>2017-03-19T08:53:26Z</time>
      </trkpt>
      <trkpt lat="49.86391" lon="3.3566">
        <ele>106</ele>
        <time>2017-03-19T08:53:30Z</time>
      </trkpt>
      <trkpt lat="49.86387" lon="3.35665">
        <ele>107</ele>
        <time>2017-03-19T08:53:34Z</time>
      </trkpt>
      <trkpt lat="49.86382" lon="3.35672">
        <ele>108</ele>
        <time>2017-03-19T08:53:37Z</time>
      </trkpt>
      <trkpt lat="49.86378" lon="3.35678">
        <ele>109</ele>
        <time>2017-03-19T08:53:41Z</time>
      </trkpt>
      <trkpt lat="49.86375" lon="3.35683">
        <ele>110</ele>
        <time>2017-03-19T08:53:45Z</time>
      </trkpt>
      <trkpt lat="49.86371" lon="3.35691">
        <ele>110</ele>
        <time>2017-03-19T08:53:51Z</time>
      </trkpt>
      <trkpt lat="49.86367" lon="3.35695">
        <ele>111</ele>
        <time>2017-03-19T08:53:55Z</time>
      </trkpt>
      <trkpt lat="49.86362" lon="3.35695">
        <ele>110</ele>
        <time>2017-03-19T08:54:02Z</time>
      </trkpt>
      <trkpt lat="49.86358" lon="3.357">
        <ele>109</ele>
        <time>2017-03-19T08:54:06Z</time>
      </trkpt>
      <trkpt lat="49.86354" lon="3.35705">
        <ele>108</ele>
        <time>2017-03-19T08:54:10Z</time>
      </trkpt>
      <trkpt lat="49.8635" lon="3.3571">
        <ele>107</ele>
        <time>2017-03-19T08:54:13Z</time>
      </trkpt>
      <trkpt lat="49.86345" lon="3.35717">
        <ele>107</ele>
        <time>2017-03-19T08:54:16Z</time>
      </trkpt>
      <trkpt lat="49.8634" lon="3.35721">
        <ele>107</ele>
        <time>2017-03-19T08:54:20Z</time>
      </trkpt>
      <trkpt lat="49.86336" lon="3.35726">
        <ele>107</ele>
        <time>2017-03-19T08:54:23Z</time>
      </trkpt>
      <trkpt lat="49.86332" lon="3.35731">
        <ele>107</ele>
        <time>2017-03-19T08:54:27Z</time>
      </trkpt>
      <trkpt lat="49.86329" lon="3.35736">
        <ele>107</ele>
        <time>2017-03-19T08:54:30Z</time>
      </trkpt>
      <trkpt lat="49.86324" lon="3.35741">
        <ele>107</ele>
        <time>2017-03-19T08:54:34Z</time>
      </trkpt>
      <trkpt lat="49.86321" lon="3.35746">
        <ele>108</ele>
        <time>2017-03-19T08:54:37Z</time>
      </trkpt>
      <trkpt lat="49.86317" lon="3.35751">
        <ele>108</ele>
        <time>2017-03-19T08:54:40Z</time>
      </trkpt>
      <trkpt lat="49.86313" lon="3.35756">
        <ele>108</ele>
        <time>2017-03-19T08:54:43Z</time>
      </trkpt>
      <trkpt lat="49.8631" lon="3.35762">
        <ele>108</ele>
        <time>2017-03-19T08:54:47Z</time>
      </trkpt>
      <trkpt lat="49.86306" lon="3.35768">
        <ele>108</ele>
        <time>2017-03-19T08:54:49Z</time>
      </trkpt>
      <trkpt lat="49.86302" lon="3.35774">
        <ele>109</ele>
        <time>2017-03-19T08:54:52Z</time>
      </trkpt>
      <trkpt lat="49.863" lon="3.35781">
        <ele>109</ele>
        <time>2017-03-19T08:54:57Z</time>
      </trkpt>
      <trkpt lat="49.86296" lon="3.35786">
        <ele>109</ele>
        <time>2017-03-19T08:55:04Z</time>
      </trkpt>
      <trkpt lat="49.86292" lon="3.35793">
        <ele>108</ele>
        <time>2017-03-19T08:55:09Z</time>
      </trkpt>
      <trkpt lat="49.86289" lon="3.35799">
        <ele>107</ele>
        <time>2017-03-19T08:55:12Z</time>
      </trkpt>
      <trkpt lat="49.86285" lon="3.35806">
        <ele>106</ele>
        <time>2017-03-19T08:55:17Z</time>
      </trkpt>
      <trkpt lat="49.86281" lon="3.35811">
        <ele>105</ele>
        <time>2017-03-19T08:55:21Z</time>
      </trkpt>
      <trkpt lat="49.86279" lon="3.35819">
        <ele>104</ele>
        <time>2017-03-19T08:55:26Z</time>
      </trkpt>
      <trkpt lat="49.86277" lon="3.35826">
        <ele>104</ele>
        <time>2017-03-19T08:55:29Z</time>
      </trkpt>
      <trkpt lat="49.86275" lon="3.35833">
        <ele>104</ele>
        <time>2017-03-19T08:55:31Z</time>
      </trkpt>
      <trkpt lat="49.86273" lon="3.35841">
        <ele>104</ele>
        <time>2017-03-19T08:55:35Z</time>
      </trkpt>
      <trkpt lat="49.86272" lon="3.3585">
        <ele>103</ele>
        <time>2017-03-19T08:55:41Z</time>
      </trkpt>
      <trkpt lat="49.86269" lon="3.35856">
        <ele>102</ele>
        <time>2017-03-19T08:55:44Z</time>
      </trkpt>
      <trkpt lat="49.86267" lon="3.35862">
        <ele>101</ele>
        <time>2017-03-19T08:55:47Z</time>
      </trkpt>
      <trkpt lat="49.86264" lon="3.3587">
        <ele>100</ele>
        <time>2017-03-19T08:55:51Z</time>
      </trkpt>
      <trkpt lat="49.86261" lon="3.3588">
        <ele>98</ele>
        <time>2017-03-19T08:55:56Z</time>
      </trkpt>
      <trkpt lat="49.86259" lon="3.35888">
        <ele>98</ele>
        <time>2017-03-19T08:55:59Z</time>
      </trkpt>
      <trkpt lat="49.86258" lon="3.35897">
        <ele>99</ele>
        <time>2017-03-19T08:56:02Z</time>
      </trkpt>
      <trkpt lat="49.86255" lon="3.35903">
        <ele>99</ele>
        <time>2017-03-19T08:56:05Z</time>
      </trkpt>
      <trkpt lat="49.86253" lon="3.3591">
        <ele>99</ele>
        <time>2017-03-19T08:56:10Z</time>
      </trkpt>
      <trkpt lat="49.8625" lon="3.35918">
        <ele>99</ele>
        <time>2017-03-19T08:56:14Z</time>
      </trkpt>
      <trkpt lat="49.86248" lon="3.35926">
        <ele>99</ele>
        <time>2017-03-19T08:56:18Z</time>
      </trkpt>
      <trkpt lat="49.86246" lon="3.35934">
        <ele>98</ele>
        <time>2017-03-19T08:56:21Z</time>
      </trkpt>
      <trkpt lat="49.86244" lon="3.35941">
        <ele>97</ele>
        <time>2017-03-19T08:56:25Z</time>
      </trkpt>
      <trkpt lat="49.86242" lon="3.35949">
        <ele>97</ele>
        <time>2017-03-19T08:56:28Z</time>
      </trkpt>
      <trkpt lat="49.86239" lon="3.35955">
        <ele>97</ele>
        <time>2017-03-19T08:56:31Z</time>
      </trkpt>
      <trkpt lat="49.86238" lon="3.35962">
        <ele>97</ele>
        <time>2017-03-19T08:56:35Z</time>
      </trkpt>
      <trkpt lat="49.86236" lon="3.35968">
        <ele>96</ele>
        <time>2017-03-19T08:56:38Z</time>
      </trkpt>
      <trkpt lat="49.86234" lon="3.35975">
        <ele>96</ele>
        <time>2017-03-19T08:56:41Z</time>
      </trkpt>
      <trkpt lat="49.86233" lon="3.35983">
        <ele>96</ele>
        <time>2017-03-19T08:56:45Z</time>
      </trkpt>
      <trkpt lat="49.86231" lon="3.3599">
        <ele>95</ele>
        <time>2017-03-19T08:56:49Z</time>
      </trkpt>
      <trkpt lat="49.8623" lon="3.35998">
        <ele>94</ele>
        <time>2017-03-19T08:56:53Z</time>
      </trkpt>
      <trkpt lat="49.86229" lon="3.36006">
        <ele>93</ele>
        <time>2017-03-19T08:56:56Z</time>
      </trkpt>
      <trkpt lat="49.86228" lon="3.36013">
        <ele>92</ele>
        <time>2017-03-19T08:57:00Z</time>
      </trkpt>
      <trkpt lat="49.86227" lon="3.3602">
        <ele>91</ele>
        <time>2017-03-19T08:57:04Z</time>
      </trkpt>
      <trkpt lat="49.86227" lon="3.36028">
        <ele>91</ele>
        <time>2017-03-19T08:57:08Z</time>
      </trkpt>
      <trkpt lat="49.86228" lon="3.36037">
        <ele>90</ele>
        <time>2017-03-19T08:57:13Z</time>
      </trkpt>
      <trkpt lat="49.86226" lon="3.36045">
        <ele>90</ele>
        <time>2017-03-19T08:57:17Z</time>
      </trkpt>
      <trkpt lat="49.86227" lon="3.36052">
        <ele>89</ele>
        <time>2017-03-19T08:57:21Z</time>
      </trkpt>
      <trkpt lat="49.86226" lon="3.3606">
        <ele>88</ele>
        <time>2017-03-19T08:57:25Z</time>
      </trkpt>
      <trkpt lat="49.86226" lon="3.36067">
        <ele>88</ele>
        <time>2017-03-19T08:57:28Z</time>
      </trkpt>
      <trkpt lat="49.86226" lon="3.36076">
        <ele>87</ele>
        <time>2017-03-19T08:57:33Z</time>
      </trkpt>
      <trkpt lat="49.86224" lon="3.36083">
        <ele>86</ele>
        <time>2017-03-19T08:57:37Z</time>
      </trkpt>
      <trkpt lat="49.86221" lon="3.36088">
        <ele>85</ele>
        <time>2017-03-19T08:57:40Z</time>
      </trkpt>
      <trkpt lat="49.86217" lon="3.36094">
        <ele>84</ele>
        <time>2017-03-19T08:57:44Z</time>
      </trkpt>
      <trkpt lat="49.86213" lon="3.361">
        <ele>84</ele>
        <time>2017-03-19T08:57:47Z</time>
      </trkpt>
      <trkpt lat="49.86208" lon="3.36106">
        <ele>84</ele>
        <time>2017-03-19T08:57:50Z</time>
      </trkpt>
      <trkpt lat="49.86204" lon="3.36109">
        <ele>84</ele>
        <time>2017-03-19T08:57:53Z</time>
      </trkpt>
      <trkpt lat="49.862" lon="3.36115">
        <ele>84</ele>
        <time>2017-03-19T08:57:55Z</time>
      </trkpt>
      <trkpt lat="49.86195" lon="3.36122">
        <ele>86</ele>
        <time>2017-03-19T08:57:59Z</time>
      </trkpt>
      <trkpt lat="49.8619" lon="3.36128">
        <ele>87</ele>
        <time>2017-03-19T08:58:02Z</time>
      </trkpt>
      <trkpt lat="49.86187" lon="3.36132">
        <ele>88</ele>
        <time>2017-03-19T08:58:05Z</time>
      </trkpt>
      <trkpt lat="49.86182" lon="3.36138">
        <ele>89</ele>
        <time>2017-03-19T08:58:09Z</time>
      </trkpt>
      <trkpt lat="49.86177" lon="3.3614">
        <ele>88</ele>
        <time>2017-03-19T08:58:16Z</time>
      </trkpt>
      <trkpt lat="49.86172" lon="3.36143">
        <ele>87</ele>
        <time>2017-03-19T08:58:20Z</time>
      </trkpt>
      <trkpt lat="49.86167" lon="3.36147">
        <ele>87</ele>
        <time>2017-03-19T08:58:23Z</time>
      </trkpt>
      <trkpt lat="49.86163" lon="3.36151">
        <ele>86</ele>
        <time>2017-03-19T08:58:27Z</time>
      </trkpt>
      <trkpt lat="49.8616" lon="3.36156">
        <ele>85</ele>
        <time>2017-03-19T08:58:29Z</time>
      </trkpt>
      <trkpt lat="49.86155" lon="3.3616">
        <ele>86</ele>
        <time>2017-03-19T08:58:33Z</time>
      </trkpt>
      <trkpt lat="49.86152" lon="3.36165">
        <ele>86</ele>
        <time>2017-03-19T08:58:35Z</time>
      </trkpt>
      <trkpt lat="49.86149" lon="3.36171">
        <ele>87</ele>
        <time>2017-03-19T08:58:37Z</time>
      </trkpt>
      <trkpt lat="49.86144" lon="3.36174">
        <ele>88</ele>
        <time>2017-03-19T08:58:41Z</time>
      </trkpt>
      <trkpt lat="49.86139" lon="3.36179">
        <ele>89</ele>
        <time>2017-03-19T08:58:45Z</time>
      </trkpt>
      <trkpt lat="49.86135" lon="3.36182">
        <ele>89</ele>
        <time>2017-03-19T08:58:49Z</time>
      </trkpt>
      <trkpt lat="49.86131" lon="3.36186">
        <ele>89</ele>
        <time>2017-03-19T08:58:52Z</time>
      </trkpt>
      <trkpt lat="49.86125" lon="3.36191">
        <ele>87</ele>
        <time>2017-03-19T08:58:58Z</time>
      </trkpt>
      <trkpt lat="49.86119" lon="3.36195">
        <ele>87</ele>
        <time>2017-03-19T08:59:02Z</time>
      </trkpt>
      <trkpt lat="49.86114" lon="3.36197">
        <ele>86</ele>
        <time>2017-03-19T08:59:05Z</time>
      </trkpt>
      <trkpt lat="49.86109" lon="3.36202">
        <ele>86</ele>
        <time>2017-03-19T08:59:09Z</time>
      </trkpt>
      <trkpt lat="49.86103" lon="3.36206">
        <ele>85</ele>
        <time>2017-03-19T08:59:13Z</time>
      </trkpt>
      <trkpt lat="49.86098" lon="3.3621">
        <ele>85</ele>
        <time>2017-03-19T08:59:18Z</time>
      </trkpt>
      <trkpt lat="49.86094" lon="3.36213">
        <ele>85</ele>
        <time>2017-03-19T08:59:21Z</time>
      </trkpt>
      <trkpt lat="49.8609" lon="3.36217">
        <ele>84</ele>
        <time>2017-03-19T08:59:25Z</time>
      </trkpt>
      <trkpt lat="49.86086" lon="3.36221">
        <ele>84</ele>
        <time>2017-03-19T08:59:28Z</time>
      </trkpt>
      <trkpt lat="49.86081" lon="3.36225">
        <ele>84</ele>
        <time>2017-03-19T08:59:32Z</time>
      </trkpt>
      <trkpt lat="49.86077" lon="3.3623">
        <ele>84</ele>
        <time>2017-03-19T08:59:35Z</time>
      </trkpt>
      <trkpt lat="49.86071" lon="3.36232">
        <ele>85</ele>
        <time>2017-03-19T08:59:39Z</time>
      </trkpt>
      <trkpt lat="49.86067" lon="3.36235">
        <ele>85</ele>
        <time>2017-03-19T08:59:42Z</time>
      </trkpt>
      <trkpt lat="49.86062" lon="3.36239">
        <ele>86</ele>
        <time>2017-03-19T08:59:47Z</time>
      </trkpt>
      <trkpt lat="49.86057" lon="3.36243">
        <ele>86</ele>
        <time>2017-03-19T08:59:52Z</time>
      </trkpt>
      <trkpt lat="49.86053" lon="3.36253">
        <ele>87</ele>
        <time>2017-03-19T08:59:55Z</time>
      </trkpt>
      <trkpt lat="49.86047" lon="3.36256">
        <ele>88</ele>
        <time>2017-03-19T08:59:59Z</time>
      </trkpt>
      <trkpt lat="49.86043" lon="3.36256">
        <ele>88</ele>
        <time>2017-03-19T09:00:02Z</time>
      </trkpt>
      <trkpt lat="49.86039" lon="3.36259">
        <ele>89</ele>
        <time>2017-03-19T09:00:06Z</time>
      </trkpt>
      <trkpt lat="49.86034" lon="3.36262">
        <ele>90</ele>
        <time>2017-03-19T09:00:09Z</time>
      </trkpt>
      <trkpt lat="49.86029" lon="3.36264">
        <ele>89</ele>
        <time>2017-03-19T09:00:11Z</time>
      </trkpt>
      <trkpt lat="49.86024" lon="3.36268">
        <ele>89</ele>
        <time>2017-03-19T09:00:15Z</time>
      </trkpt>
      <trkpt lat="49.86019" lon="3.3627">
        <ele>88</ele>
        <time>2017-03-19T09:00:18Z</time>
      </trkpt>
      <trkpt lat="49.86014" lon="3.36272">
        <ele>87</ele>
        <time>2017-03-19T09:00:21Z</time>
      </trkpt>
      <trkpt lat="49.86009" lon="3.36274">
        <ele>86</ele>
        <time>2017-03-19T09:00:25Z</time>
      </trkpt>
      <trkpt lat="49.86004" lon="3.36277">
        <ele>85</ele>
        <time>2017-03-19T09:00:28Z</time>
      </trkpt>
      <trkpt lat="49.85999" lon="3.36279">
        <ele>85</ele>
        <time>2017-03-19T09:00:31Z</time>
      </trkpt>
      <trkpt lat="49.85993" lon="3.36279">
        <ele>84</ele>
        <time>2017-03-19T09:00:37Z</time>
      </trkpt>
      <trkpt lat="49.85987" lon="3.36282">
        <ele>84</ele>
        <time>2017-03-19T09:00:41Z</time>
      </trkpt>
      <trkpt lat="49.85981" lon="3.36286">
        <ele>85</ele>
        <time>2017-03-19T09:00:44Z</time>
      </trkpt>
      <trkpt lat="49.85975" lon="3.3629">
        <ele>85</ele>
        <time>2017-03-19T09:00:48Z</time>
      </trkpt>
      <trkpt lat="49.8597" lon="3.3629">
        <ele>86</ele>
        <time>2017-03-19T09:00:51Z</time>
      </trkpt>
      <trkpt lat="49.85965" lon="3.36291">
        <ele>86</ele>
        <time>2017-03-19T09:00:54Z</time>
      </trkpt>
      <trkpt lat="49.8596" lon="3.36291">
        <ele>86</ele>
        <time>2017-03-19T09:00:57Z</time>
      </trkpt>
      <trkpt lat="49.85955" lon="3.36294">
        <ele>86</ele>
        <time>2017-03-19T09:01:01Z</time>
      </trkpt>
      <trkpt lat="49.85951" lon="3.36296">
        <ele>86</ele>
        <time>2017-03-19T09:01:04Z</time>
      </trkpt>
      <trkpt lat="49.85946" lon="3.36299">
        <ele>85</ele>
        <time>2017-03-19T09:01:08Z</time>
      </trkpt>
      <trkpt lat="49.85941" lon="3.36309">
        <ele>85</ele>
        <time>2017-03-19T09:01:14Z</time>
      </trkpt>
      <trkpt lat="49.85937" lon="3.36314">
        <ele>84</ele>
        <time>2017-03-19T09:01:18Z</time>
      </trkpt>
      <trkpt lat="49.85932" lon="3.36315">
        <ele>83</ele>
        <time>2017-03-19T09:01:21Z</time>
      </trkpt>
      <trkpt lat="49.85927" lon="3.36317">
        <ele>83</ele>
        <time>2017-03-19T09:01:28Z</time>
      </trkpt>
      <trkpt lat="49.85922" lon="3.36322">
        <ele>82</ele>
        <time>2017-03-19T09:01:32Z</time>
      </trkpt>
      <trkpt lat="49.85917" lon="3.3633">
        <ele>81</ele>
        <time>2017-03-19T09:01:35Z</time>
      </trkpt>
      <trkpt lat="49.85911" lon="3.36333">
        <ele>80</ele>
        <time>2017-03-19T09:01:39Z</time>
      </trkpt>
      <trkpt lat="49.85908" lon="3.36338">
        <ele>79</ele>
        <time>2017-03-19T09:01:43Z</time>
      </trkpt>
      <trkpt lat="49.85903" lon="3.36346">
        <ele>78</ele>
        <time>2017-03-19T09:01:47Z</time>
      </trkpt>
      <trkpt lat="49.85899" lon="3.3635">
        <ele>77</ele>
        <time>2017-03-19T09:01:52Z</time>
      </trkpt>
      <trkpt lat="49.85895" lon="3.36354">
        <ele>77</ele>
        <time>2017-03-19T09:01:55Z</time>
      </trkpt>
      <trkpt lat="49.8589" lon="3.36358">
        <ele>76</ele>
        <time>2017-03-19T09:01:59Z</time>
      </trkpt>
      <trkpt lat="49.85886" lon="3.36364">
        <ele>75</ele>
        <time>2017-03-19T09:02:02Z</time>
      </trkpt>
      <trkpt lat="49.85882" lon="3.36368">
        <ele>75</ele>
        <time>2017-03-19T09:02:06Z</time>
      </trkpt>
      <trkpt lat="49.85879" lon="3.36375">
        <ele>75</ele>
        <time>2017-03-19T09:02:10Z</time>
      </trkpt>
      <trkpt lat="49.85876" lon="3.36382">
        <ele>76</ele>
        <time>2017-03-19T09:02:12Z</time>
      </trkpt>
      <trkpt lat="49.85872" lon="3.36385">
        <ele>76</ele>
        <time>2017-03-19T09:02:17Z</time>
      </trkpt>
      <trkpt lat="49.85869" lon="3.36392">
        <ele>77</ele>
        <time>2017-03-19T09:02:20Z</time>
      </trkpt>
      <trkpt lat="49.85865" lon="3.36397">
        <ele>77</ele>
        <time>2017-03-19T09:02:24Z</time>
      </trkpt>
      <trkpt lat="49.85862" lon="3.36405">
        <ele>77</ele>
        <time>2017-03-19T09:02:28Z</time>
      </trkpt>
      <trkpt lat="49.85859" lon="3.36412">
        <ele>75</ele>
        <time>2017-03-19T09:02:33Z</time>
      </trkpt>
      <trkpt lat="49.85855" lon="3.36419">
        <ele>75</ele>
        <time>2017-03-19T09:02:36Z</time>
      </trkpt>
      <trkpt lat="49.85851" lon="3.36423">
        <ele>74</ele>
        <time>2017-03-19T09:02:40Z</time>
      </trkpt>
      <trkpt lat="49.85848" lon="3.36431">
        <ele>74</ele>
        <time>2017-03-19T09:02:43Z</time>
      </trkpt>
      <trkpt lat="49.85844" lon="3.36437">
        <ele>73</ele>
        <time>2017-03-19T09:02:47Z</time>
      </trkpt>
      <trkpt lat="49.85841" lon="3.36442">
        <ele>74</ele>
        <time>2017-03-19T09:02:50Z</time>
      </trkpt>
      <trkpt lat="49.85838" lon="3.36448">
        <ele>73</ele>
        <time>2017-03-19T09:02:54Z</time>
      </trkpt>
      <trkpt lat="49.85834" lon="3.36453">
        <ele>73</ele>
        <time>2017-03-19T09:02:57Z</time>
      </trkpt>
      <trkpt lat="49.85832" lon="3.36462">
        <ele>73</ele>
        <time>2017-03-19T09:03:01Z</time>
      </trkpt>
      <trkpt lat="49.85828" lon="3.3647">
        <ele>73</ele>
        <time>2017-03-19T09:03:03Z</time>
      </trkpt>
      <trkpt lat="49.85825" lon="3.36475">
        <ele>74</ele>
        <time>2017-03-19T09:03:06Z</time>
      </trkpt>
      <trkpt lat="49.85822" lon="3.36482">
        <ele>75</ele>
        <time>2017-03-19T09:03:11Z</time>
      </trkpt>
      <trkpt lat="49.85819" lon="3.36489">
        <ele>76</ele>
        <time>2017-03-19T09:03:15Z</time>
      </trkpt>
      <trkpt lat="49.85815" lon="3.36496">
        <ele>77</ele>
        <time>2017-03-19T09:03:19Z</time>
      </trkpt>
      <trkpt lat="49.85811" lon="3.36501">
        <ele>77</ele>
        <time>2017-03-19T09:03:24Z</time>
      </trkpt>
      <trkpt lat="49.85808" lon="3.3651">
        <ele>76</ele>
        <time>2017-03-19T09:03:29Z</time>
      </trkpt>
      <trkpt lat="49.85805" lon="3.36517">
        <ele>75</ele>
        <time>2017-03-19T09:03:32Z</time>
      </trkpt>
      <trkpt lat="49.85803" lon="3.36524">
        <ele>74</ele>
        <time>2017-03-19T09:03:35Z</time>
      </trkpt>
      <trkpt lat="49.858" lon="3.36531">
        <ele>74</ele>
        <time>2017-03-19T09:03:38Z</time>
      </trkpt>
      <trkpt lat="49.85797" lon="3.36537">
        <ele>74</ele>
        <time>2017-03-19T09:03:41Z</time>
      </trkpt>
      <trkpt lat="49.85794" lon="3.36543">
        <ele>75</ele>
        <time>2017-03-19T09:03:44Z</time>
      </trkpt>
      <trkpt lat="49.85791" lon="3.36549">
        <ele>75</ele>
        <time>2017-03-19T09:03:48Z</time>
      </trkpt>
      <trkpt lat="49.85788" lon="3.36555">
        <ele>76</ele>
        <time>2017-03-19T09:03:51Z</time>
      </trkpt>
      <trkpt lat="49.85784" lon="3.36562">
        <ele>77</ele>
        <time>2017-03-19T09:03:54Z</time>
      </trkpt>
      <trkpt lat="49.85782" lon="3.36569">
        <ele>78</ele>
        <time>2017-03-19T09:03:59Z</time>
      </trkpt>
      <trkpt lat="49.85779" lon="3.36577">
        <ele>78</ele>
        <time>2017-03-19T09:04:03Z</time>
      </trkpt>
      <trkpt lat="49.85775" lon="3.36582">
        <ele>78</ele>
        <time>2017-03-19T09:04:07Z</time>
      </trkpt>
      <trkpt lat="49.85771" lon="3.36589">
        <ele>77</ele>
        <time>2017-03-19T09:04:12Z</time>
      </trkpt>
      <trkpt lat="49.85767" lon="3.36594">
        <ele>76</ele>
        <time>2017-03-19T09:04:16Z</time>
      </trkpt>
      <trkpt lat="49.85763" lon="3.36597">
        <ele>75</ele>
        <time>2017-03-19T09:04:19Z</time>
      </trkpt>
      <trkpt lat="49.85757" lon="3.36603">
        <ele>75</ele>
        <time>2017-03-19T09:04:23Z</time>
      </trkpt>
      <trkpt lat="49.85752" lon="3.36606">
        <ele>74</ele>
        <time>2017-03-19T09:04:27Z</time>
      </trkpt>
      <trkpt lat="49.85746" lon="3.36608">
        <ele>74</ele>
        <time>2017-03-19T09:04:30Z</time>
      </trkpt>
      <trkpt lat="49.85741" lon="3.36616">
        <ele>75</ele>
        <time>2017-03-19T09:04:32Z</time>
      </trkpt>
      <trkpt lat="49.85735" lon="3.3662">
        <ele>76</ele>
        <time>2017-03-19T09:04:35Z</time>
      </trkpt>
      <trkpt lat="49.8573" lon="3.3662">
        <ele>76</ele>
        <time>2017-03-19T09:04:39Z</time>
      </trkpt>
      <trkpt lat="49.85724" lon="3.36623">
        <ele>77</ele>
        <time>2017-03-19T09:04:43Z</time>
      </trkpt>
      <trkpt lat="49.85719" lon="3.36625">
        <ele>77</ele>
        <time>2017-03-19T09:04:49Z</time>
      </trkpt>
      <trkpt lat="49.85714" lon="3.36628">
        <ele>76</ele>
        <time>2017-03-19T09:04:54Z</time>
      </trkpt>
      <trkpt lat="49.85709" lon="3.36631">
        <ele>75</ele>
        <time>2017-03-19T09:04:59Z</time>
      </trkpt>
      <trkpt lat="49.85704" lon="3.36635">
        <ele>74</ele>
        <time>2017-03-19T09:05:03Z</time>
      </trkpt>
      <trkpt lat="49.85698" lon="3.36638">
        <ele>74</ele>
        <time>2017-03-19T09:05:06Z</time>
      </trkpt>
      <trkpt lat="49.85693" lon="3.36641">
        <ele>74</ele>
        <time>2017-03-19T09:05:10Z</time>
      </trkpt>
      <trkpt lat="49.85688" lon="3.36645">
        <ele>74</ele>
        <time>2017-03-19T09:05:13Z</time>
      </trkpt>
      <trkpt lat="49.85683" lon="3.36646">
        <ele>74</ele>
        <time>2017-03-19T09:05:16Z</time>
      </trkpt>
      <trkpt lat="49.85679" lon="3.36648">
        <ele>75</ele>
        <time>2017-03-19T09:05:19Z</time>
      </trkpt>
      <trkpt lat="49.85675" lon="3.36651">
        <ele>76</ele>
        <time>2017-03-19T09:05:21Z</time>
      </trkpt>
      <trkpt lat="49.85669" lon="3.36652">
        <ele>76</ele>
        <time>2017-03-19T09:05:25Z</time>
      </trkpt>
      <trkpt lat="49.85663" lon="3.36653">
        <ele>77</ele>
        <time>2017-03-19T09:05:29Z</time>
      </trkpt>
      <trkpt lat="49.85658" lon="3.36656">
        <ele>77</ele>
        <time>2017-03-19T09:05:32Z</time>
      </trkpt>
      <trkpt lat="49.85653" lon="3.36658">
        <ele>78</ele>
        <time>2017-03-19T09:05:35Z</time>
      </trkpt>
      <trkpt lat="49.85648" lon="3.36661">
        <ele>78</ele>
        <time>2017-03-19T09:05:39Z</time>
      </trkpt>
      <trkpt lat="49.85642" lon="3.36664">
        <ele>78</ele>
        <time>2017-03-19T09:05:44Z</time>
      </trkpt>
      <trkpt lat="49.85638" lon="3.36664">
        <ele>78</ele>
        <time>2017-03-19T09:05:49Z</time>
      </trkpt>
      <trkpt lat="49.85633" lon="3.36668">
        <ele>78</ele>
        <time>2017-03-19T09:05:52Z</time>
      </trkpt>
      <trkpt lat="49.85628" lon="3.36671">
        <ele>79</ele>
        <time>2017-03-19T09:05:55Z</time>
      </trkpt>
      <trkpt lat="49.85623" lon="3.36674">
        <ele>79</ele>
        <time>2017-03-19T09:05:58Z</time>
      </trkpt>
      <trkpt lat="49.85619" lon="3.36677">
        <ele>79</ele>
        <time>2017-03-19T09:06:02Z</time>
      </trkpt>
      <trkpt lat="49.85615" lon="3.36682">
        <ele>80</ele>
        <time>2017-03-19T09:06:06Z</time>
      </trkpt>
      <trkpt lat="49.8561" lon="3.36685">
        <ele>79</ele>
        <time>2017-03-19T09:06:10Z</time>
      </trkpt>
      <trkpt lat="49.85605" lon="3.36688">
        <ele>80</ele>
        <time>2017-03-19T09:06:13Z</time>
      </trkpt>
      <trkpt lat="49.85599" lon="3.3669">
        <ele>80</ele>
        <time>2017-03-19T09:06:17Z</time>
      </trkpt>
      <trkpt lat="49.85595" lon="3.36689">
        <ele>80</ele>
        <time>2017-03-19T09:06:22Z</time>
      </trkpt>
      <trkpt lat="49.8559" lon="3.36693">
        <ele>81</ele>
        <time>2017-03-19T09:06:27Z</time>
      </trkpt>
      <trkpt lat="49.8559" lon="3.36695">
        <ele>83</ele>
        <time>2017-03-19T09:06:56Z</time>
      </trkpt>
      <trkpt lat="49.8559" lon="3.36695">
        <ele>83</ele>
        <time>2017-03-19T09:07:16Z</time>
      </trkpt>
      <trkpt lat="49.8559" lon="3.36695">
        <ele>84</ele>
        <time>2017-03-19T09:07:45Z</time>
      </trkpt>
      <trkpt lat="49.85589" lon="3.36694">
        <ele>84</ele>
        <time>2017-03-19T09:07:47Z</time>
      </trkpt>
      <trkpt lat="49.8559" lon="3.36694">
        <ele>83</ele>
        <time>2017-03-19T09:08:19Z</time>
      </trkpt>
      <trkpt lat="49.8559" lon="3.36693">
        <ele>83</ele>
        <time>2017-03-19T09:08:21Z</time>
      </trkpt>
      <trkpt lat="49.85585" lon="3.36694">
        <ele>82</ele>
        <time>2017-03-19T09:08:37Z</time>
      </trkpt>
      <trkpt lat="49.85579" lon="3.36697">
        <ele>81</ele>
        <time>2017-03-19T09:08:42Z</time>
      </trkpt>
      <trkpt lat="49.85574" lon="3.36698">
        <ele>80</ele>
        <time>2017-03-19T09:08:45Z</time>
      </trkpt>
      <trkpt lat="49.85569" lon="3.36701">
        <ele>80</ele>
        <time>2017-03-19T09:08:47Z</time>
      </trkpt>
      <trkpt lat="49.85564" lon="3.36705">
        <ele>80</ele>
        <time>2017-03-19T09:08:51Z</time>
      </trkpt>
      <trkpt lat="49.8556" lon="3.36709">
        <ele>81</ele>
        <time>2017-03-19T09:08:54Z</time>
      </trkpt>
      <trkpt lat="49.85556" lon="3.36714">
        <ele>81</ele>
        <time>2017-03-19T09:08:58Z</time>
      </trkpt>
      <trkpt lat="49.85553" lon="3.3672">
        <ele>82</ele>
        <time>2017-03-19T09:09:02Z</time>
      </trkpt>
      <trkpt lat="49.85548" lon="3.36722">
        <ele>83</ele>
        <time>2017-03-19T09:09:06Z</time>
      </trkpt>
      <trkpt lat="49.85543" lon="3.36724">
        <ele>83</ele>
        <time>2017-03-19T09:09:10Z</time>
      </trkpt>
      <trkpt lat="49.8554" lon="3.36732">
        <ele>83</ele>
        <time>2017-03-19T09:09:13Z</time>
      </trkpt>
      <trkpt lat="49.85535" lon="3.36735">
        <ele>82</ele>
        <time>2017-03-19T09:09:16Z</time>
      </trkpt>
      <trkpt lat="49.8553" lon="3.36737">
        <ele>81</ele>
        <time>2017-03-19T09:09:18Z</time>
      </trkpt>
      <trkpt lat="49.85526" lon="3.36741">
        <ele>81</ele>
        <time>2017-03-19T09:09:23Z</time>
      </trkpt>
      <trkpt lat="49.85522" lon="3.36745">
        <ele>80</ele>
        <time>2017-03-19T09:09:28Z</time>
      </trkpt>
      <trkpt lat="49.85516" lon="3.36747">
        <ele>79</ele>
        <time>2017-03-19T09:09:32Z</time>
      </trkpt>
      <trkpt lat="49.85511" lon="3.36752">
        <ele>78</ele>
        <time>2017-03-19T09:09:35Z</time>
      </trkpt>
      <trkpt lat="49.85508" lon="3.36757">
        <ele>77</ele>
        <time>2017-03-19T09:09:38Z</time>
      </trkpt>
      <trkpt lat="49.85503" lon="3.36762">
        <ele>76</ele>
        <time>2017-03-19T09:09:43Z</time>
      </trkpt>
      <trkpt lat="49.855" lon="3.36766">
        <ele>75</ele>
        <time>2017-03-19T09:09:47Z</time>
      </trkpt>
      <trkpt lat="49.85495" lon="3.36769">
        <ele>75</ele>
        <time>2017-03-19T09:09:51Z</time>
      </trkpt>
      <trkpt lat="49.85491" lon="3.36773">
        <ele>74</ele>
        <time>2017-03-19T09:09:54Z</time>
      </trkpt>
      <trkpt lat="49.85486" lon="3.36778">
        <ele>74</ele>
        <time>2017-03-19T09:09:56Z</time>
      </trkpt>
      <trkpt lat="49.85482" lon="3.36779">
        <ele>74</ele>
        <time>2017-03-19T09:09:59Z</time>
      </trkpt>
      <trkpt lat="49.85476" lon="3.36781">
        <ele>75</ele>
        <time>2017-03-19T09:10:02Z</time>
      </trkpt>
      <trkpt lat="49.85471" lon="3.36782">
        <ele>76</ele>
        <time>2017-03-19T09:10:05Z</time>
      </trkpt>
      <trkpt lat="49.85467" lon="3.36777">
        <ele>77</ele>
        <time>2017-03-19T09:10:08Z</time>
      </trkpt>
      <trkpt lat="49.85464" lon="3.36772">
        <ele>77</ele>
        <time>2017-03-19T09:10:11Z</time>
      </trkpt>
      <trkpt lat="49.85463" lon="3.36765">
        <ele>77</ele>
        <time>2017-03-19T09:10:16Z</time>
      </trkpt>
      <trkpt lat="49.85459" lon="3.3676">
        <ele>76</ele>
        <time>2017-03-19T09:10:19Z</time>
      </trkpt>
      <trkpt lat="49.85455" lon="3.36753">
        <ele>76</ele>
        <time>2017-03-19T09:10:23Z</time>
      </trkpt>
      <trkpt lat="49.85453" lon="3.36746">
        <ele>75</ele>
        <time>2017-03-19T09:10:27Z</time>
      </trkpt>
      <trkpt lat="49.85452" lon="3.36739">
        <ele>74</ele>
        <time>2017-03-19T09:10:31Z</time>
      </trkpt>
      <trkpt lat="49.85449" lon="3.36732">
        <ele>73</ele>
        <time>2017-03-19T09:10:35Z</time>
      </trkpt>
      <trkpt lat="49.85445" lon="3.36727">
        <ele>73</ele>
        <time>2017-03-19T09:10:38Z</time>
      </trkpt>
      <trkpt lat="49.85442" lon="3.36722">
        <ele>72</ele>
        <time>2017-03-19T09:10:41Z</time>
      </trkpt>
      <trkpt lat="49.85438" lon="3.36717">
        <ele>71</ele>
        <time>2017-03-19T09:10:44Z</time>
      </trkpt>
      <trkpt lat="49.85436" lon="3.36709">
        <ele>71</ele>
        <time>2017-03-19T09:10:50Z</time>
      </trkpt>
      <trkpt lat="49.85432" lon="3.36702">
        <ele>71</ele>
        <time>2017-03-19T09:10:54Z</time>
      </trkpt>
      <trkpt lat="49.85428" lon="3.36696">
        <ele>70</ele>
        <time>2017-03-19T09:11:00Z</time>
      </trkpt>
      <trkpt lat="49.85424" lon="3.36691">
        <ele>69</ele>
        <time>2017-03-19T09:11:03Z</time>
      </trkpt>
      <trkpt lat="49.85421" lon="3.36683">
        <ele>69</ele>
        <time>2017-03-19T09:11:08Z</time>
      </trkpt>
      <trkpt lat="49.85418" lon="3.36677">
        <ele>68</ele>
        <time>2017-03-19T09:11:11Z</time>
      </trkpt>
      <trkpt lat="49.85415" lon="3.36668">
        <ele>69</ele>
        <time>2017-03-19T09:11:14Z</time>
      </trkpt>
      <trkpt lat="49.85412" lon="3.36662">
        <ele>69</ele>
        <time>2017-03-19T09:11:18Z</time>
      </trkpt>
      <trkpt lat="49.85407" lon="3.36657">
        <ele>69</ele>
        <time>2017-03-19T09:11:23Z</time>
      </trkpt>
      <trkpt lat="49.85402" lon="3.36652">
        <ele>69</ele>
        <time>2017-03-19T09:11:26Z</time>
      </trkpt>
      <trkpt lat="49.85397" lon="3.36647">
        <ele>69</ele>
        <time>2017-03-19T09:11:30Z</time>
      </trkpt>
      <trkpt lat="49.85394" lon="3.3664">
        <ele>69</ele>
        <time>2017-03-19T09:11:34Z</time>
      </trkpt>
      <trkpt lat="49.85389" lon="3.36634">
        <ele>70</ele>
        <time>2017-03-19T09:11:38Z</time>
      </trkpt>
      <trkpt lat="49.85387" lon="3.36628">
        <ele>71</ele>
        <time>2017-03-19T09:11:41Z</time>
      </trkpt>
      <trkpt lat="49.85384" lon="3.36618">
        <ele>72</ele>
        <time>2017-03-19T09:11:44Z</time>
      </trkpt>
      <trkpt lat="49.8538" lon="3.36612">
        <ele>73</ele>
        <time>2017-03-19T09:11:46Z</time>
      </trkpt>
      <trkpt lat="49.85378" lon="3.36606">
        <ele>74</ele>
        <time>2017-03-19T09:11:50Z</time>
      </trkpt>
      <trkpt lat="49.85375" lon="3.36598">
        <ele>76</ele>
        <time>2017-03-19T09:11:54Z</time>
      </trkpt>
      <trkpt lat="49.85373" lon="3.36591">
        <ele>77</ele>
        <time>2017-03-19T09:11:57Z</time>
      </trkpt>
      <trkpt lat="49.8537" lon="3.36583">
        <ele>77</ele>
        <time>2017-03-19T09:12:03Z</time>
      </trkpt>
      <trkpt lat="49.85367" lon="3.36577">
        <ele>77</ele>
        <time>2017-03-19T09:12:07Z</time>
      </trkpt>
      <trkpt lat="49.85363" lon="3.3657">
        <ele>77</ele>
        <time>2017-03-19T09:12:11Z</time>
      </trkpt>
      <trkpt lat="49.8536" lon="3.36566">
        <ele>77</ele>
        <time>2017-03-19T09:12:13Z</time>
      </trkpt>
      <trkpt lat="49.85357" lon="3.3656">
        <ele>76</ele>
        <time>2017-03-19T09:12:16Z</time>
      </trkpt>
      <trkpt lat="49.85355" lon="3.36554">
        <ele>76</ele>
        <time>2017-03-19T09:12:20Z</time>
      </trkpt>
      <trkpt lat="49.85351" lon="3.36548">
        <ele>77</ele>
        <time>2017-03-19T09:12:23Z</time>
      </trkpt>
      <trkpt lat="49.8535" lon="3.3654">
        <ele>77</ele>
        <time>2017-03-19T09:12:28Z</time>
      </trkpt>
      <trkpt lat="49.85349" lon="3.36533">
        <ele>77</ele>
        <time>2017-03-19T09:12:31Z</time>
      </trkpt>
      <trkpt lat="49.85347" lon="3.36525">
        <ele>77</ele>
        <time>2017-03-19T09:12:35Z</time>
      </trkpt>
      <trkpt lat="49.85344" lon="3.36518">
        <ele>77</ele>
        <time>2017-03-19T09:12:37Z</time>
      </trkpt>
      <trkpt lat="49.85341" lon="3.3651">
        <ele>78</ele>
        <time>2017-03-19T09:12:40Z</time>
      </trkpt>
      <trkpt lat="49.85338" lon="3.36503">
        <ele>79</ele>
        <time>2017-03-19T09:12:44Z</time>
      </trkpt>
      <trkpt lat="49.85338" lon="3.36494">
        <ele>80</ele>
        <time>2017-03-19T09:12:48Z</time>
      </trkpt>
      <trkpt lat="49.85336" lon="3.36486">
        <ele>80</ele>
        <time>2017-03-19T09:12:53Z</time>
      </trkpt>
      <trkpt lat="49.85332" lon="3.3648">
        <ele>81</ele>
        <time>2017-03-19T09:12:56Z</time>
      </trkpt>
      <trkpt lat="49.85329" lon="3.36473">
        <ele>80</ele>
        <time>2017-03-19T09:13:01Z</time>
      </trkpt>
      <trkpt lat="49.85327" lon="3.36466">
        <ele>80</ele>
        <time>2017-03-19T09:13:05Z</time>
      </trkpt>
      <trkpt lat="49.85325" lon="3.36457">
        <ele>80</ele>
        <time>2017-03-19T09:13:09Z</time>
      </trkpt>
      <trkpt lat="49.85321" lon="3.3645">
        <ele>80</ele>
        <time>2017-03-19T09:13:12Z</time>
      </trkpt>
      <trkpt lat="49.85318" lon="3.36442">
        <ele>80</ele>
        <time>2017-03-19T09:13:17Z</time>
      </trkpt>
      <trkpt lat="49.85315" lon="3.36435">
        <ele>80</ele>
        <time>2017-03-19T09:13:20Z</time>
      </trkpt>
      <trkpt lat="49.85312" lon="3.3643">
        <ele>80</ele>
        <time>2017-03-19T09:13:22Z</time>
      </trkpt>
      <trkpt lat="49.85309" lon="3.36423">
        <ele>80</ele>
        <time>2017-03-19T09:13:25Z</time>
      </trkpt>
      <trkpt lat="49.85308" lon="3.36416">
        <ele>80</ele>
        <time>2017-03-19T09:13:28Z</time>
      </trkpt>
      <trkpt lat="49.85303" lon="3.36409">
        <ele>80</ele>
        <time>2017-03-19T09:13:32Z</time>
      </trkpt>
      <trkpt lat="49.853" lon="3.36403">
        <ele>80</ele>
        <time>2017-03-19T09:13:35Z</time>
      </trkpt>
      <trkpt lat="49.85299" lon="3.36396">
        <ele>80</ele>
        <time>2017-03-19T09:13:40Z</time>
      </trkpt>
      <trkpt lat="49.85298" lon="3.36388">
        <ele>80</ele>
        <time>2017-03-19T09:13:45Z</time>
      </trkpt>
      <trkpt lat="49.85294" lon="3.3638">
        <ele>80</ele>
        <time>2017-03-19T09:13:48Z</time>
      </trkpt>
      <trkpt lat="49.85292" lon="3.36372">
        <ele>80</ele>
        <time>2017-03-19T09:13:51Z</time>
      </trkpt>
      <trkpt lat="49.85291" lon="3.36366">
        <ele>80</ele>
        <time>2017-03-19T09:13:54Z</time>
      </trkpt>
      <trkpt lat="49.85288" lon="3.3636">
        <ele>81</ele>
        <time>2017-03-19T09:13:57Z</time>
      </trkpt>
      <trkpt lat="49.85286" lon="3.36354">
        <ele>81</ele>
        <time>2017-03-19T09:14:00Z</time>
      </trkpt>
      <trkpt lat="49.85283" lon="3.36348">
        <ele>81</ele>
        <time>2017-03-19T09:14:02Z</time>
      </trkpt>
      <trkpt lat="49.85281" lon="3.36342">
        <ele>81</ele>
        <time>2017-03-19T09:14:05Z</time>
      </trkpt>
      <trkpt lat="49.85279" lon="3.36334">
        <ele>81</ele>
        <time>2017-03-19T09:14:09Z</time>
      </trkpt>
      <trkpt lat="49.85276" lon="3.36328">
        <ele>80</ele>
        <time>2017-03-19T09:14:12Z</time>
      </trkpt>
      <trkpt lat="49.85275" lon="3.3632">
        <ele>79</ele>
        <time>2017-03-19T09:14:16Z</time>
      </trkpt>
      <trkpt lat="49.85273" lon="3.36313">
        <ele>78</ele>
        <time>2017-03-19T09:14:19Z</time>
      </trkpt>
      <trkpt lat="49.85271" lon="3.36306">
        <ele>78</ele>
        <time>2017-03-19T09:14:22Z</time>
      </trkpt>
      <trkpt lat="49.85268" lon="3.36299">
        <ele>77</ele>
        <time>2017-03-19T09:14:25Z</time>
      </trkpt>
      <trkpt lat="49.85265" lon="3.36292">
        <ele>77</ele>
        <time>2017-03-19T09:14:29Z</time>
      </trkpt>
      <trkpt lat="49.85263" lon="3.36286">
        <ele>77</ele>
        <time>2017-03-19T09:14:31Z</time>
      </trkpt>
      <trkpt lat="49.85259" lon="3.36279">
        <ele>77</ele>
        <time>2017-03-19T09:14:35Z</time>
      </trkpt>
      <trkpt lat="49.85257" lon="3.36272">
        <ele>77</ele>
        <time>2017-03-19T09:14:41Z</time>
      </trkpt>
      <trkpt lat="49.85254" lon="3.36265">
        <ele>76</ele>
        <time>2017-03-19T09:14:44Z</time>
      </trkpt>
      <trkpt lat="49.85254" lon="3.36257">
        <ele>75</ele>
        <time>2017-03-19T09:14:48Z</time>
      </trkpt>
      <trkpt lat="49.85253" lon="3.3625">
        <ele>74</ele>
        <time>2017-03-19T09:14:52Z</time>
      </trkpt>
      <trkpt lat="49.85256" lon="3.36244">
        <ele>72</ele>
        <time>2017-03-19T09:14:55Z</time>
      </trkpt>
      <trkpt lat="49.85262" lon="3.3624">
        <ele>71</ele>
        <time>2017-03-19T09:14:58Z</time>
      </trkpt>
      <trkpt lat="49.85262" lon="3.36232">
        <ele>71</ele>
        <time>2017-03-19T09:15:03Z</time>
      </trkpt>
      <trkpt lat="49.85261" lon="3.36224">
        <ele>70</ele>
        <time>2017-03-19T09:15:07Z</time>
      </trkpt>
      <trkpt lat="49.85262" lon="3.36217">
        <ele>70</ele>
        <time>2017-03-19T09:15:10Z</time>
      </trkpt>
      <trkpt lat="49.85262" lon="3.3621">
        <ele>70</ele>
        <time>2017-03-19T09:15:14Z</time>
      </trkpt>
      <trkpt lat="49.85262" lon="3.36201">
        <ele>70</ele>
        <time>2017-03-19T09:15:18Z</time>
      </trkpt>
      <trkpt lat="49.85265" lon="3.36193">
        <ele>70</ele>
        <time>2017-03-19T09:15:23Z</time>
      </trkpt>
      <trkpt lat="49.85265" lon="3.36186">
        <ele>70</ele>
        <time>2017-03-19T09:15:27Z</time>
      </trkpt>
      <trkpt lat="49.85268" lon="3.36181">
        <ele>70</ele>
        <time>2017-03-19T09:15:30Z</time>
      </trkpt>
      <trkpt lat="49.85271" lon="3.36175">
        <ele>71</ele>
        <time>2017-03-19T09:15:33Z</time>
      </trkpt>
      <trkpt lat="49.85272" lon="3.36166">
        <ele>72</ele>
        <time>2017-03-19T09:15:36Z</time>
      </trkpt>
      <trkpt lat="49.85275" lon="3.36159">
        <ele>73</ele>
        <time>2017-03-19T09:15:40Z</time>
      </trkpt>
      <trkpt lat="49.85277" lon="3.36153">
        <ele>73</ele>
        <time>2017-03-19T09:15:43Z</time>
      </trkpt>
      <trkpt lat="49.85279" lon="3.36144">
        <ele>74</ele>
        <time>2017-03-19T09:15:47Z</time>
      </trkpt>
      <trkpt lat="49.85282" lon="3.36138">
        <ele>74</ele>
        <time>2017-03-19T09:15:50Z</time>
      </trkpt>
      <trkpt lat="49.85284" lon="3.36131">
        <ele>75</ele>
        <time>2017-03-19T09:15:54Z</time>
      </trkpt>
      <trkpt lat="49.85286" lon="3.36124">
        <ele>77</ele>
        <time>2017-03-19T09:15:57Z</time>
      </trkpt>
      <trkpt lat="49.85288" lon="3.36117">
        <ele>78</ele>
        <time>2017-03-19T09:16:00Z</time>
      </trkpt>
      <trkpt lat="49.85289" lon="3.36109">
        <ele>80</ele>
        <time>2017-03-19T09:16:04Z</time>
      </trkpt>
      <trkpt lat="49.85291" lon="3.36101">
        <ele>81</ele>
        <time>2017-03-19T09:16:08Z</time>
      </trkpt>
      <trkpt lat="49.85293" lon="3.36092">
        <ele>82</ele>
        <time>2017-03-19T09:16:12Z</time>
      </trkpt>
      <trkpt lat="49.85295" lon="3.36085">
        <ele>83</ele>
        <time>2017-03-19T09:16:16Z</time>
      </trkpt>
      <trkpt lat="49.85296" lon="3.36077">
        <ele>83</ele>
        <time>2017-03-19T09:16:20Z</time>
      </trkpt>
      <trkpt lat="49.85298" lon="3.36069">
        <ele>83</ele>
        <time>2017-03-19T09:16:24Z</time>
      </trkpt>
      <trkpt lat="49.85299" lon="3.36062">
        <ele>83</ele>
        <time>2017-03-19T09:16:28Z</time>
      </trkpt>
      <trkpt lat="49.85304" lon="3.36061">
        <ele>82</ele>
        <time>2017-03-19T09:16:30Z</time>
      </trkpt>
      <trkpt lat="49.85307" lon="3.36053">
        <ele>82</ele>
        <time>2017-03-19T09:16:34Z</time>
      </trkpt>
      <trkpt lat="49.8531" lon="3.36047">
        <ele>81</ele>
        <time>2017-03-19T09:16:37Z</time>
      </trkpt>
      <trkpt lat="49.85305" lon="3.36046">
        <ele>80</ele>
        <time>2017-03-19T09:16:38Z</time>
      </trkpt>
      <trkpt lat="49.85305" lon="3.36037">
        <ele>78</ele>
        <time>2017-03-19T09:16:42Z</time>
      </trkpt>
      <trkpt lat="49.85306" lon="3.3603">
        <ele>77</ele>
        <time>2017-03-19T09:16:45Z</time>
      </trkpt>
      <trkpt lat="49.85311" lon="3.36023">
        <ele>77</ele>
        <time>2017-03-19T09:16:48Z</time>
      </trkpt>
      <trkpt lat="49.85306" lon="3.36017">
        <ele>76</ele>
        <time>2017-03-19T09:16:50Z</time>
      </trkpt>
      <trkpt lat="49.85301" lon="3.36011">
        <ele>77</ele>
        <time>2017-03-19T09:16:53Z</time>
      </trkpt>
      <trkpt lat="49.85298" lon="3.36003">
        <ele>78</ele>
        <time>2017-03-19T09:16:56Z</time>
      </trkpt>
      <trkpt lat="49.85294" lon="3.35996">
        <ele>80</ele>
        <time>2017-03-19T09:16:58Z</time>
      </trkpt>
      <trkpt lat="49.85292" lon="3.35989">
        <ele>81</ele>
        <time>2017-03-19T09:17:01Z</time>
      </trkpt>
      <trkpt lat="49.85288" lon="3.35984">
        <ele>81</ele>
        <time>2017-03-19T09:17:06Z</time>
      </trkpt>
      <trkpt lat="49.85285" lon="3.35978">
        <ele>82</ele>
        <time>2017-03-19T09:17:11Z</time>
      </trkpt>
      <trkpt lat="49.85283" lon="3.3597">
        <ele>83</ele>
        <time>2017-03-19T09:17:15Z</time>
      </trkpt>
      <trkpt lat="49.85283" lon="3.35962">
        <ele>83</ele>
        <time>2017-03-19T09:17:21Z</time>
      </trkpt>
      <trkpt lat="49.85286" lon="3.35955">
        <ele>82</ele>
        <time>2017-03-19T09:17:26Z</time>
      </trkpt>
      <trkpt lat="49.85284" lon="3.35947">
        <ele>81</ele>
        <time>2017-03-19T09:17:31Z</time>
      </trkpt>
      <trkpt lat="49.85282" lon="3.35939">
        <ele>81</ele>
        <time>2017-03-19T09:17:34Z</time>
      </trkpt>
      <trkpt lat="49.85279" lon="3.35929">
        <ele>79</ele>
        <time>2017-03-19T09:17:39Z</time>
      </trkpt>
      <trkpt lat="49.85278" lon="3.35922">
        <ele>78</ele>
        <time>2017-03-19T09:17:43Z</time>
      </trkpt>
      <trkpt lat="49.85274" lon="3.35919">
        <ele>77</ele>
        <time>2017-03-19T09:17:44Z</time>
      </trkpt>
      <trkpt lat="49.85271" lon="3.35913">
        <ele>76</ele>
        <time>2017-03-19T09:17:46Z</time>
      </trkpt>
      <trkpt lat="49.85269" lon="3.35906">
        <ele>76</ele>
        <time>2017-03-19T09:17:50Z</time>
      </trkpt>
      <trkpt lat="49.85272" lon="3.35897">
        <ele>77</ele>
        <time>2017-03-19T09:17:55Z</time>
      </trkpt>
      <trkpt lat="49.85276" lon="3.35893">
        <ele>78</ele>
        <time>2017-03-19T09:17:58Z</time>
      </trkpt>
      <trkpt lat="49.85273" lon="3.35887">
        <ele>79</ele>
        <time>2017-03-19T09:18:02Z</time>
      </trkpt>
      <trkpt lat="49.85266" lon="3.3588">
        <ele>80</ele>
        <time>2017-03-19T09:18:05Z</time>
      </trkpt>
      <trkpt lat="49.85265" lon="3.35872">
        <ele>81</ele>
        <time>2017-03-19T09:18:08Z</time>
      </trkpt>
      <trkpt lat="49.85265" lon="3.35865">
        <ele>81</ele>
        <time>2017-03-19T09:18:11Z</time>
      </trkpt>
      <trkpt lat="49.85263" lon="3.35856">
        <ele>81</ele>
        <time>2017-03-19T09:18:15Z</time>
      </trkpt>
      <trkpt lat="49.85258" lon="3.35848">
        <ele>82</ele>
        <time>2017-03-19T09:18:18Z</time>
      </trkpt>
      <trkpt lat="49.85254" lon="3.35841">
        <ele>82</ele>
        <time>2017-03-19T09:18:20Z</time>
      </trkpt>
      <trkpt lat="49.85251" lon="3.35834">
        <ele>83</ele>
        <time>2017-03-19T09:18:23Z</time>
      </trkpt>
      <trkpt lat="49.85248" lon="3.35826">
        <ele>84</ele>
        <time>2017-03-19T09:18:26Z</time>
      </trkpt>
      <trkpt lat="49.85246" lon="3.35817">
        <ele>85</ele>
        <time>2017-03-19T09:18:29Z</time>
      </trkpt>
      <trkpt lat="49.85242" lon="3.35809">
        <ele>86</ele>
        <time>2017-03-19T09:18:32Z</time>
      </trkpt>
      <trkpt lat="49.8524" lon="3.35803">
        <ele>87</ele>
        <time>2017-03-19T09:18:34Z</time>
      </trkpt>
      <trkpt lat="49.85237" lon="3.35794">
        <ele>87</ele>
        <time>2017-03-19T09:18:38Z</time>
      </trkpt>
      <trkpt lat="49.85234" lon="3.35784">
        <ele>88</ele>
        <time>2017-03-19T09:18:42Z</time>
      </trkpt>
      <trkpt lat="49.85232" lon="3.35776">
        <ele>89</ele>
        <time>2017-03-19T09:18:45Z</time>
      </trkpt>
      <trkpt lat="49.8523" lon="3.35769">
        <ele>89</ele>
        <time>2017-03-19T09:18:48Z</time>
      </trkpt>
      <trkpt lat="49.85226" lon="3.35764">
        <ele>89</ele>
        <time>2017-03-19T09:18:51Z</time>
      </trkpt>
      <trkpt lat="49.85224" lon="3.35757">
        <ele>90</ele>
        <time>2017-03-19T09:18:54Z</time>
      </trkpt>
      <trkpt lat="49.85221" lon="3.3575">
        <ele>90</ele>
        <time>2017-03-19T09:18:57Z</time>
      </trkpt>
      <trkpt lat="49.85217" lon="3.35741">
        <ele>90</ele>
        <time>2017-03-19T09:19:01Z</time>
      </trkpt>
      <trkpt lat="49.85218" lon="3.35732">
        <ele>90</ele>
        <time>2017-03-19T09:19:05Z</time>
      </trkpt>
      <trkpt lat="49.85215" lon="3.35725">
        <ele>91</ele>
        <time>2017-03-19T09:19:08Z</time>
      </trkpt>
      <trkpt lat="49.85213" lon="3.35717">
        <ele>92</ele>
        <time>2017-03-19T09:19:11Z</time>
      </trkpt>
      <trkpt lat="49.85212" lon="3.35708">
        <ele>94</ele>
        <time>2017-03-19T09:19:15Z</time>
      </trkpt>
      <trkpt lat="49.85211" lon="3.35699">
        <ele>95</ele>
        <time>2017-03-19T09:19:18Z</time>
      </trkpt>
      <trkpt lat="49.85209" lon="3.35691">
        <ele>96</ele>
        <time>2017-03-19T09:19:21Z</time>
      </trkpt>
      <trkpt lat="49.85208" lon="3.35684">
        <ele>97</ele>
        <time>2017-03-19T09:19:24Z</time>
      </trkpt>
      <trkpt lat="49.85209" lon="3.35676">
        <ele>98</ele>
        <time>2017-03-19T09:19:30Z</time>
      </trkpt>
      <trkpt lat="49.85206" lon="3.35668">
        <ele>98</ele>
        <time>2017-03-19T09:19:33Z</time>
      </trkpt>
      <trkpt lat="49.85203" lon="3.35662">
        <ele>98</ele>
        <time>2017-03-19T09:19:36Z</time>
      </trkpt>
      <trkpt lat="49.85199" lon="3.35656">
        <ele>98</ele>
        <time>2017-03-19T09:19:39Z</time>
      </trkpt>
      <trkpt lat="49.85196" lon="3.3565">
        <ele>96</ele>
        <time>2017-03-19T09:19:43Z</time>
      </trkpt>
      <trkpt lat="49.85195" lon="3.35642">
        <ele>95</ele>
        <time>2017-03-19T09:19:47Z</time>
      </trkpt>
      <trkpt lat="49.85193" lon="3.35635">
        <ele>94</ele>
        <time>2017-03-19T09:19:51Z</time>
      </trkpt>
      <trkpt lat="49.85191" lon="3.35627">
        <ele>93</ele>
        <time>2017-03-19T09:19:54Z</time>
      </trkpt>
      <trkpt lat="49.85188" lon="3.35618">
        <ele>91</ele>
        <time>2017-03-19T09:20:01Z</time>
      </trkpt>
      <trkpt lat="49.85186" lon="3.3561">
        <ele>92</ele>
        <time>2017-03-19T09:20:05Z</time>
      </trkpt>
      <trkpt lat="49.85185" lon="3.35603">
        <ele>91</ele>
        <time>2017-03-19T09:20:08Z</time>
      </trkpt>
      <trkpt lat="49.85183" lon="3.35593">
        <ele>91</ele>
        <time>2017-03-19T09:20:12Z</time>
      </trkpt>
      <trkpt lat="49.85181" lon="3.35586">
        <ele>91</ele>
        <time>2017-03-19T09:20:14Z</time>
      </trkpt>
      <trkpt lat="49.85179" lon="3.35578">
        <ele>91</ele>
        <time>2017-03-19T09:20:17Z</time>
      </trkpt>
      <trkpt lat="49.85178" lon="3.35569">
        <ele>92</ele>
        <time>2017-03-19T09:20:20Z</time>
      </trkpt>
      <trkpt lat="49.85177" lon="3.3556">
        <ele>92</ele>
        <time>2017-03-19T09:20:23Z</time>
      </trkpt>
      <trkpt lat="49.85175" lon="3.35551">
        <ele>94</ele>
        <time>2017-03-19T09:20:26Z</time>
      </trkpt>
      <trkpt lat="49.85175" lon="3.35544">
        <ele>94</ele>
        <time>2017-03-19T09:20:31Z</time>
      </trkpt>
      <trkpt lat="49.85172" lon="3.35536">
        <ele>96</ele>
        <time>2017-03-19T09:20:34Z</time>
      </trkpt>
      <trkpt lat="49.8517" lon="3.35528">
        <ele>97</ele>
        <time>2017-03-19T09:20:37Z</time>
      </trkpt>
      <trkpt lat="49.85167" lon="3.35521">
        <ele>97</ele>
        <time>2017-03-19T09:20:40Z</time>
      </trkpt>
      <trkpt lat="49.85166" lon="3.35515">
        <ele>98</ele>
        <time>2017-03-19T09:20:42Z</time>
      </trkpt>
      <trkpt lat="49.85165" lon="3.35508">
        <ele>99</ele>
        <time>2017-03-19T09:20:46Z</time>
      </trkpt>
      <trkpt lat="49.85162" lon="3.35501">
        <ele>99</ele>
        <time>2017-03-19T09:20:50Z</time>
      </trkpt>
      <trkpt lat="49.85161" lon="3.35493">
        <ele>99</ele>
        <time>2017-03-19T09:20:53Z</time>
      </trkpt>
      <trkpt lat="49.8516" lon="3.35484">
        <ele>99</ele>
        <time>2017-03-19T09:20:57Z</time>
      </trkpt>
      <trkpt lat="49.8516" lon="3.35477">
        <ele>99</ele>
        <time>2017-03-19T09:21:00Z</time>
      </trkpt>
      <trkpt lat="49.85159" lon="3.3547">
        <ele>100</ele>
        <time>2017-03-19T09:21:03Z</time>
      </trkpt>
      <trkpt lat="49.85159" lon="3.35463">
        <ele>100</ele>
        <time>2017-03-19T09:21:06Z</time>
      </trkpt>
      <trkpt lat="49.85157" lon="3.35455">
        <ele>100</ele>
        <time>2017-03-19T09:21:09Z</time>
      </trkpt>
      <trkpt lat="49.85155" lon="3.35446">
        <ele>101</ele>
        <time>2017-03-19T09:21:12Z</time>
      </trkpt>
      <trkpt lat="49.85156" lon="3.35438">
        <ele>101</ele>
        <time>2017-03-19T09:21:16Z</time>
      </trkpt>
      <trkpt lat="49.85158" lon="3.35431">
        <ele>101</ele>
        <time>2017-03-19T09:21:21Z</time>
      </trkpt>
      <trkpt lat="49.85159" lon="3.35424">
        <ele>101</ele>
        <time>2017-03-19T09:21:25Z</time>
      </trkpt>
      <trkpt lat="49.85161" lon="3.35417">
        <ele>100</ele>
        <time>2017-03-19T09:21:30Z</time>
      </trkpt>
      <trkpt lat="49.85162" lon="3.35408">
        <ele>99</ele>
        <time>2017-03-19T09:21:34Z</time>
      </trkpt>
      <trkpt lat="49.85161" lon="3.354">
        <ele>98</ele>
        <time>2017-03-19T09:21:38Z</time>
      </trkpt>
      <trkpt lat="49.85162" lon="3.35391">
        <ele>97</ele>
        <time>2017-03-19T09:21:42Z</time>
      </trkpt>
      <trkpt lat="49.85163" lon="3.35383">
        <ele>97</ele>
        <time>2017-03-19T09:21:46Z</time>
      </trkpt>
      <trkpt lat="49.85163" lon="3.35376">
        <ele>97</ele>
        <time>2017-03-19T09:21:49Z</time>
      </trkpt>
      <trkpt lat="49.85165" lon="3.35368">
        <ele>98</ele>
        <time>2017-03-19T09:21:53Z</time>
      </trkpt>
      <trkpt lat="49.85164" lon="3.3536">
        <ele>97</ele>
        <time>2017-03-19T09:21:57Z</time>
      </trkpt>
      <trkpt lat="49.85164" lon="3.35353">
        <ele>97</ele>
        <time>2017-03-19T09:22:01Z</time>
      </trkpt>
      <trkpt lat="49.85163" lon="3.35343">
        <ele>97</ele>
        <time>2017-03-19T09:22:05Z</time>
      </trkpt>
      <trkpt lat="49.85163" lon="3.35336">
        <ele>96</ele>
        <time>2017-03-19T09:22:08Z</time>
      </trkpt>
      <trkpt lat="49.85162" lon="3.35329">
        <ele>97</ele>
        <time>2017-03-19T09:22:11Z</time>
      </trkpt>
      <trkpt lat="49.85162" lon="3.35319">
        <ele>97</ele>
        <time>2017-03-19T09:22:14Z</time>
      </trkpt>
      <trkpt lat="49.85162" lon="3.35311">
        <ele>98</ele>
        <time>2017-03-19T09:22:19Z</time>
      </trkpt>
      <trkpt lat="49.85162" lon="3.35303">
        <ele>98</ele>
        <time>2017-03-19T09:22:22Z</time>
      </trkpt>
      <trkpt lat="49.85162" lon="3.35296">
        <ele>98</ele>
        <time>2017-03-19T09:22:25Z</time>
      </trkpt>
      <trkpt lat="49.85161" lon="3.35289">
        <ele>97</ele>
        <time>2017-03-19T09:22:29Z</time>
      </trkpt>
      <trkpt lat="49.85161" lon="3.3528">
        <ele>97</ele>
        <time>2017-03-19T09:22:33Z</time>
      </trkpt>
      <trkpt lat="49.8516" lon="3.35272">
        <ele>96</ele>
        <time>2017-03-19T09:22:37Z</time>
      </trkpt>
      <trkpt lat="49.8516" lon="3.35263">
        <ele>96</ele>
        <time>2017-03-19T09:22:41Z</time>
      </trkpt>
      <trkpt lat="49.85161" lon="3.35256">
        <ele>96</ele>
        <time>2017-03-19T09:22:45Z</time>
      </trkpt>
      <trkpt lat="49.85161" lon="3.35248">
        <ele>96</ele>
        <time>2017-03-19T09:22:49Z</time>
      </trkpt>
      <trkpt lat="49.85161" lon="3.35241">
        <ele>95</ele>
        <time>2017-03-19T09:22:53Z</time>
      </trkpt>
      <trkpt lat="49.85162" lon="3.35234">
        <ele>95</ele>
        <time>2017-03-19T09:22:56Z</time>
      </trkpt>
      <trkpt lat="49.85161" lon="3.35227">
        <ele>94</ele>
        <time>2017-03-19T09:22:59Z</time>
      </trkpt>
      <trkpt lat="49.85162" lon="3.3522">
        <ele>94</ele>
        <time>2017-03-19T09:23:02Z</time>
      </trkpt>
      <trkpt lat="49.85162" lon="3.35213">
        <ele>93</ele>
        <time>2017-03-19T09:23:05Z</time>
      </trkpt>
      <trkpt lat="49.85162" lon="3.35206">
        <ele>93</ele>
        <time>2017-03-19T09:23:07Z</time>
      </trkpt>
      <trkpt lat="49.85163" lon="3.35198">
        <ele>93</ele>
        <time>2017-03-19T09:23:10Z</time>
      </trkpt>
      <trkpt lat="49.85162" lon="3.35189">
        <ele>93</ele>
        <time>2017-03-19T09:23:15Z</time>
      </trkpt>
      <trkpt lat="49.85162" lon="3.35181">
        <ele>93</ele>
        <time>2017-03-19T09:23:18Z</time>
      </trkpt>
      <trkpt lat="49.85162" lon="3.35172">
        <ele>94</ele>
        <time>2017-03-19T09:23:22Z</time>
      </trkpt>
      <trkpt lat="49.8516" lon="3.35163">
        <ele>94</ele>
        <time>2017-03-19T09:23:26Z</time>
      </trkpt>
      <trkpt lat="49.8516" lon="3.35155">
        <ele>93</ele>
        <time>2017-03-19T09:23:30Z</time>
      </trkpt>
      <trkpt lat="49.8516" lon="3.35146">
        <ele>93</ele>
        <time>2017-03-19T09:23:35Z</time>
      </trkpt>
      <trkpt lat="49.8516" lon="3.35138">
        <ele>93</ele>
        <time>2017-03-19T09:23:39Z</time>
      </trkpt>
      <trkpt lat="49.8516" lon="3.35129">
        <ele>93</ele>
        <time>2017-03-19T09:23:42Z</time>
      </trkpt>
      <trkpt lat="49.85161" lon="3.35119">
        <ele>93</ele>
        <time>2017-03-19T09:23:46Z</time>
      </trkpt>
      <trkpt lat="49.8516" lon="3.35111">
        <ele>93</ele>
        <time>2017-03-19T09:23:50Z</time>
      </trkpt>
      <trkpt lat="49.8516" lon="3.35103">
        <ele>92</ele>
        <time>2017-03-19T09:23:55Z</time>
      </trkpt>
      <trkpt lat="49.85162" lon="3.35095">
        <ele>91</ele>
        <time>2017-03-19T09:24:00Z</time>
      </trkpt>
      <trkpt lat="49.85162" lon="3.35087">
        <ele>90</ele>
        <time>2017-03-19T09:24:04Z</time>
      </trkpt>
      <trkpt lat="49.85162" lon="3.35079">
        <ele>90</ele>
        <time>2017-03-19T09:24:07Z</time>
      </trkpt>
      <trkpt lat="49.8516" lon="3.35071">
        <ele>90</ele>
        <time>2017-03-19T09:24:10Z</time>
      </trkpt>
      <trkpt lat="49.85159" lon="3.35064">
        <ele>90</ele>
        <time>2017-03-19T09:24:13Z</time>
      </trkpt>
      <trkpt lat="49.8516" lon="3.35055">
        <ele>90</ele>
        <time>2017-03-19T09:24:17Z</time>
      </trkpt>
      <trkpt lat="49.8516" lon="3.35046">
        <ele>90</ele>
        <time>2017-03-19T09:24:21Z</time>
      </trkpt>
      <trkpt lat="49.85161" lon="3.35038">
        <ele>90</ele>
        <time>2017-03-19T09:24:25Z</time>
      </trkpt>
      <trkpt lat="49.85161" lon="3.3503">
        <ele>90</ele>
        <time>2017-03-19T09:24:28Z</time>
      </trkpt>
      <trkpt lat="49.85162" lon="3.35022">
        <ele>91</ele>
        <time>2017-03-19T09:24:32Z</time>
      </trkpt>
      <trkpt lat="49.85161" lon="3.35013">
        <ele>91</ele>
        <time>2017-03-19T09:24:35Z</time>
      </trkpt>
      <trkpt lat="49.8516" lon="3.35006">
        <ele>91</ele>
        <time>2017-03-19T09:24:39Z</time>
      </trkpt>
      <trkpt lat="49.85161" lon="3.34999">
        <ele>92</ele>
        <time>2017-03-19T09:24:43Z</time>
      </trkpt>
      <trkpt lat="49.85159" lon="3.3499">
        <ele>92</ele>
        <time>2017-03-19T09:24:47Z</time>
      </trkpt>
      <trkpt lat="49.85158" lon="3.34981">
        <ele>92</ele>
        <time>2017-03-19T09:24:53Z</time>
      </trkpt>
      <trkpt lat="49.85159" lon="3.34974">
        <ele>92</ele>
        <time>2017-03-19T09:24:56Z</time>
      </trkpt>
      <trkpt lat="49.85158" lon="3.34965">
        <ele>93</ele>
        <time>2017-03-19T09:24:59Z</time>
      </trkpt>
      <trkpt lat="49.85157" lon="3.34957">
        <ele>93</ele>
        <time>2017-03-19T09:25:03Z</time>
      </trkpt>
      <trkpt lat="49.85157" lon="3.34949">
        <ele>93</ele>
        <time>2017-03-19T09:25:07Z</time>
      </trkpt>
      <trkpt lat="49.85156" lon="3.3494">
        <ele>94</ele>
        <time>2017-03-19T09:25:11Z</time>
      </trkpt>
      <trkpt lat="49.85156" lon="3.34932">
        <ele>95</ele>
        <time>2017-03-19T09:25:15Z</time>
      </trkpt>
      <trkpt lat="49.85156" lon="3.34923">
        <ele>95</ele>
        <time>2017-03-19T09:25:19Z</time>
      </trkpt>
      <trkpt lat="49.85156" lon="3.34915">
        <ele>96</ele>
        <time>2017-03-19T09:25:23Z</time>
      </trkpt>
      <trkpt lat="49.85156" lon="3.34906">
        <ele>96</ele>
        <time>2017-03-19T09:25:27Z</time>
      </trkpt>
      <trkpt lat="49.85155" lon="3.34899">
        <ele>97</ele>
        <time>2017-03-19T09:25:30Z</time>
      </trkpt>
      <trkpt lat="49.85155" lon="3.3489">
        <ele>97</ele>
        <time>2017-03-19T09:25:34Z</time>
      </trkpt>
      <trkpt lat="49.85157" lon="3.34882">
        <ele>97</ele>
        <time>2017-03-19T09:25:39Z</time>
      </trkpt>
      <trkpt lat="49.85156" lon="3.34874">
        <ele>98</ele>
        <time>2017-03-19T09:25:42Z</time>
      </trkpt>
      <trkpt lat="49.85156" lon="3.34866">
        <ele>98</ele>
        <time>2017-03-19T09:25:46Z</time>
      </trkpt>
      <trkpt lat="49.85156" lon="3.34859">
        <ele>98</ele>
        <time>2017-03-19T09:25:49Z</time>
      </trkpt>
      <trkpt lat="49.85156" lon="3.34852">
        <ele>98</ele>
        <time>2017-03-19T09:25:52Z</time>
      </trkpt>
      <trkpt lat="49.85154" lon="3.34842">
        <ele>99</ele>
        <time>2017-03-19T09:25:56Z</time>
      </trkpt>
      <trkpt lat="49.85154" lon="3.34835">
        <ele>99</ele>
        <time>2017-03-19T09:25:59Z</time>
      </trkpt>
      <trkpt lat="49.85154" lon="3.34827">
        <ele>100</ele>
        <time>2017-03-19T09:26:03Z</time>
      </trkpt>
      <trkpt lat="49.85156" lon="3.34819">
        <ele>99</ele>
        <time>2017-03-19T09:26:07Z</time>
      </trkpt>
      <trkpt lat="49.85155" lon="3.34811">
        <ele>99</ele>
        <time>2017-03-19T09:26:11Z</time>
      </trkpt>
      <trkpt lat="49.85156" lon="3.34804">
        <ele>98</ele>
        <time>2017-03-19T09:26:15Z</time>
      </trkpt>
      <trkpt lat="49.85156" lon="3.34796">
        <ele>98</ele>
        <time>2017-03-19T09:26:19Z</time>
      </trkpt>
      <trkpt lat="49.85157" lon="3.34787">
        <ele>98</ele>
        <time>2017-03-19T09:26:23Z</time>
      </trkpt>
      <trkpt lat="49.85156" lon="3.34779">
        <ele>98</ele>
        <time>2017-03-19T09:26:26Z</time>
      </trkpt>
      <trkpt lat="49.85156" lon="3.34772">
        <ele>98</ele>
        <time>2017-03-19T09:26:29Z</time>
      </trkpt>
      <trkpt lat="49.85155" lon="3.34763">
        <ele>99</ele>
        <time>2017-03-19T09:26:33Z</time>
      </trkpt>
      <trkpt lat="49.85153" lon="3.34754">
        <ele>100</ele>
        <time>2017-03-19T09:26:36Z</time>
      </trkpt>
      <trkpt lat="49.85154" lon="3.34747">
        <ele>101</ele>
        <time>2017-03-19T09:26:40Z</time>
      </trkpt>
      <trkpt lat="49.85153" lon="3.34739">
        <ele>102</ele>
        <time>2017-03-19T09:26:45Z</time>
      </trkpt>
      <trkpt lat="49.85153" lon="3.34729">
        <ele>102</ele>
        <time>2017-03-19T09:26:49Z</time>
      </trkpt>
      <trkpt lat="49.85152" lon="3.34722">
        <ele>103</ele>
        <time>2017-03-19T09:26:52Z</time>
      </trkpt>
      <trkpt lat="49.85152" lon="3.34714">
        <ele>102</ele>
        <time>2017-03-19T09:26:55Z</time>
      </trkpt>
      <trkpt lat="49.85151" lon="3.34705">
        <ele>102</ele>
        <time>2017-03-19T09:26:58Z</time>
      </trkpt>
      <trkpt lat="49.85152" lon="3.34698">
        <ele>102</ele>
        <time>2017-03-19T09:27:01Z</time>
      </trkpt>
      <trkpt lat="49.85153" lon="3.34689">
        <ele>102</ele>
        <time>2017-03-19T09:27:05Z</time>
      </trkpt>
      <trkpt lat="49.85154" lon="3.34682">
        <ele>102</ele>
        <time>2017-03-19T09:27:08Z</time>
      </trkpt>
      <trkpt lat="49.85154" lon="3.34673">
        <ele>102</ele>
        <time>2017-03-19T09:27:12Z</time>
      </trkpt>
      <trkpt lat="49.85154" lon="3.34666">
        <ele>102</ele>
        <time>2017-03-19T09:27:16Z</time>
      </trkpt>
      <trkpt lat="49.85156" lon="3.34658">
        <ele>102</ele>
        <time>2017-03-19T09:27:21Z</time>
      </trkpt>
      <trkpt lat="49.85157" lon="3.3465">
        <ele>101</ele>
        <time>2017-03-19T09:27:25Z</time>
      </trkpt>
      <trkpt lat="49.85156" lon="3.34641">
        <ele>100</ele>
        <time>2017-03-19T09:27:28Z</time>
      </trkpt>
      <trkpt lat="49.85157" lon="3.34632">
        <ele>99</ele>
        <time>2017-03-19T09:27:32Z</time>
      </trkpt>
      <trkpt lat="49.85157" lon="3.34624">
        <ele>99</ele>
        <time>2017-03-19T09:27:36Z</time>
      </trkpt>
      <trkpt lat="49.85157" lon="3.34615">
        <ele>99</ele>
        <time>2017-03-19T09:27:40Z</time>
      </trkpt>
      <trkpt lat="49.85156" lon="3.34607">
        <ele>99</ele>
        <time>2017-03-19T09:27:43Z</time>
      </trkpt>
      <trkpt lat="49.85154" lon="3.346">
        <ele>99</ele>
        <time>2017-03-19T09:27:46Z</time>
      </trkpt>
      <trkpt lat="49.85154" lon="3.34591">
        <ele>100</ele>
        <time>2017-03-19T09:27:51Z</time>
      </trkpt>
      <trkpt lat="49.85154" lon="3.34583">
        <ele>100</ele>
        <time>2017-03-19T09:27:55Z</time>
      </trkpt>
      <trkpt lat="49.85155" lon="3.34576">
        <ele>100</ele>
        <time>2017-03-19T09:27:58Z</time>
      </trkpt>
      <trkpt lat="49.85155" lon="3.34566">
        <ele>100</ele>
        <time>2017-03-19T09:28:02Z</time>
      </trkpt>
      <trkpt lat="49.85156" lon="3.34557">
        <ele>101</ele>
        <time>2017-03-19T09:28:05Z</time>
      </trkpt>
      <trkpt lat="49.85156" lon="3.34549">
        <ele>102</ele>
        <time>2017-03-19T09:28:08Z</time>
      </trkpt>
      <trkpt lat="49.85156" lon="3.34541">
        <ele>102</ele>
        <time>2017-03-19T09:28:11Z</time>
      </trkpt>
      <trkpt lat="49.85156" lon="3.34534">
        <ele>103</ele>
        <time>2017-03-19T09:28:14Z</time>
      </trkpt>
      <trkpt lat="49.85156" lon="3.34525">
        <ele>103</ele>
        <time>2017-03-19T09:28:21Z</time>
      </trkpt>
      <trkpt lat="49.85156" lon="3.34516">
        <ele>103</ele>
        <time>2017-03-19T09:28:24Z</time>
      </trkpt>
      <trkpt lat="49.85156" lon="3.34509">
        <ele>102</ele>
        <time>2017-03-19T09:28:27Z</time>
      </trkpt>
      <trkpt lat="49.85158" lon="3.34503">
        <ele>101</ele>
        <time>2017-03-19T09:28:33Z</time>
      </trkpt>
      <trkpt lat="49.85159" lon="3.34495">
        <ele>99</ele>
        <time>2017-03-19T09:28:37Z</time>
      </trkpt>
      <trkpt lat="49.85159" lon="3.34486">
        <ele>100</ele>
        <time>2017-03-19T09:28:40Z</time>
      </trkpt>
      <trkpt lat="49.85159" lon="3.34479">
        <ele>100</ele>
        <time>2017-03-19T09:28:43Z</time>
      </trkpt>
      <trkpt lat="49.85158" lon="3.34469">
        <ele>100</ele>
        <time>2017-03-19T09:28:47Z</time>
      </trkpt>
      <trkpt lat="49.85159" lon="3.34461">
        <ele>101</ele>
        <time>2017-03-19T09:28:52Z</time>
      </trkpt>
      <trkpt lat="49.85158" lon="3.34452">
        <ele>102</ele>
        <time>2017-03-19T09:28:54Z</time>
      </trkpt>
      <trkpt lat="49.85158" lon="3.34445">
        <ele>102</ele>
        <time>2017-03-19T09:28:57Z</time>
      </trkpt>
      <trkpt lat="49.85158" lon="3.34438">
        <ele>103</ele>
        <time>2017-03-19T09:29:00Z</time>
      </trkpt>
      <trkpt lat="49.85159" lon="3.3443">
        <ele>103</ele>
        <time>2017-03-19T09:29:04Z</time>
      </trkpt>
      <trkpt lat="49.85159" lon="3.34422">
        <ele>103</ele>
        <time>2017-03-19T09:29:07Z</time>
      </trkpt>
      <trkpt lat="49.85162" lon="3.34415">
        <ele>102</ele>
        <time>2017-03-19T09:29:11Z</time>
      </trkpt>
      <trkpt lat="49.85162" lon="3.34407">
        <ele>102</ele>
        <time>2017-03-19T09:29:14Z</time>
      </trkpt>
      <trkpt lat="49.85162" lon="3.34399">
        <ele>101</ele>
        <time>2017-03-19T09:29:17Z</time>
      </trkpt>
      <trkpt lat="49.85162" lon="3.3439">
        <ele>101</ele>
        <time>2017-03-19T09:29:21Z</time>
      </trkpt>
      <trkpt lat="49.85161" lon="3.34383">
        <ele>101</ele>
        <time>2017-03-19T09:29:24Z</time>
      </trkpt>
      <trkpt lat="49.85162" lon="3.34375">
        <ele>101</ele>
        <time>2017-03-19T09:29:28Z</time>
      </trkpt>
      <trkpt lat="49.85162" lon="3.34366">
        <ele>100</ele>
        <time>2017-03-19T09:29:31Z</time>
      </trkpt>
      <trkpt lat="49.85162" lon="3.34358">
        <ele>100</ele>
        <time>2017-03-19T09:29:34Z</time>
      </trkpt>
      <trkpt lat="49.85162" lon="3.3435">
        <ele>100</ele>
        <time>2017-03-19T09:29:37Z</time>
      </trkpt>
      <trkpt lat="49.85162" lon="3.34342">
        <ele>100</ele>
        <time>2017-03-19T09:29:41Z</time>
      </trkpt>
      <trkpt lat="49.85164" lon="3.34335">
        <ele>101</ele>
        <time>2017-03-19T09:29:45Z</time>
      </trkpt>
      <trkpt lat="49.85164" lon="3.34327">
        <ele>102</ele>
        <time>2017-03-19T09:29:48Z</time>
      </trkpt>
      <trkpt lat="49.85165" lon="3.34318">
        <ele>103</ele>
        <time>2017-03-19T09:29:52Z</time>
      </trkpt>
      <trkpt lat="49.85165" lon="3.3431">
        <ele>103</ele>
        <time>2017-03-19T09:29:55Z</time>
      </trkpt>
      <trkpt lat="49.85166" lon="3.34303">
        <ele>103</ele>
        <time>2017-03-19T09:29:58Z</time>
      </trkpt>
      <trkpt lat="49.85167" lon="3.34295">
        <ele>103</ele>
        <time>2017-03-19T09:30:01Z</time>
      </trkpt>
      <trkpt lat="49.85168" lon="3.34288">
        <ele>102</ele>
        <time>2017-03-19T09:30:05Z</time>
      </trkpt>
      <trkpt lat="49.8517" lon="3.34281">
        <ele>102</ele>
        <time>2017-03-19T09:30:09Z</time>
      </trkpt>
      <trkpt lat="49.8517" lon="3.34273">
        <ele>101</ele>
        <time>2017-03-19T09:30:13Z</time>
      </trkpt>
      <trkpt lat="49.8517" lon="3.34265">
        <ele>101</ele>
        <time>2017-03-19T09:30:18Z</time>
      </trkpt>
      <trkpt lat="49.8517" lon="3.34257">
        <ele>100</ele>
        <time>2017-03-19T09:30:22Z</time>
      </trkpt>
      <trkpt lat="49.8517" lon="3.34249">
        <ele>100</ele>
        <time>2017-03-19T09:30:25Z</time>
      </trkpt>
      <trkpt lat="49.8517" lon="3.34242">
        <ele>100</ele>
        <time>2017-03-19T09:30:28Z</time>
      </trkpt>
      <trkpt lat="49.85171" lon="3.34233">
        <ele>100</ele>
        <time>2017-03-19T09:30:32Z</time>
      </trkpt>
      <trkpt lat="49.8517" lon="3.34224">
        <ele>100</ele>
        <time>2017-03-19T09:30:35Z</time>
      </trkpt>
      <trkpt lat="49.85171" lon="3.34216">
        <ele>100</ele>
        <time>2017-03-19T09:30:38Z</time>
      </trkpt>
      <trkpt lat="49.85172" lon="3.34207">
        <ele>99</ele>
        <time>2017-03-19T09:30:42Z</time>
      </trkpt>
      <trkpt lat="49.85172" lon="3.34199">
        <ele>99</ele>
        <time>2017-03-19T09:30:45Z</time>
      </trkpt>
      <trkpt lat="49.85172" lon="3.34191">
        <ele>100</ele>
        <time>2017-03-19T09:30:48Z</time>
      </trkpt>
      <trkpt lat="49.85173" lon="3.34182">
        <ele>101</ele>
        <time>2017-03-19T09:30:51Z</time>
      </trkpt>
      <trkpt lat="49.85175" lon="3.34174">
        <ele>102</ele>
        <time>2017-03-19T09:30:56Z</time>
      </trkpt>
      <trkpt lat="49.85175" lon="3.34166">
        <ele>103</ele>
        <time>2017-03-19T09:31:00Z</time>
      </trkpt>
      <trkpt lat="49.85175" lon="3.34158">
        <ele>103</ele>
        <time>2017-03-19T09:31:03Z</time>
      </trkpt>
      <trkpt lat="49.85175" lon="3.34151">
        <ele>103</ele>
        <time>2017-03-19T09:31:06Z</time>
      </trkpt>
      <trkpt lat="49.85175" lon="3.34142">
        <ele>103</ele>
        <time>2017-03-19T09:31:10Z</time>
      </trkpt>
      <trkpt lat="49.85177" lon="3.34134">
        <ele>102</ele>
        <time>2017-03-19T09:31:14Z</time>
      </trkpt>
      <trkpt lat="49.85177" lon="3.34124">
        <ele>101</ele>
        <time>2017-03-19T09:31:17Z</time>
      </trkpt>
      <trkpt lat="49.85179" lon="3.34118">
        <ele>100</ele>
        <time>2017-03-19T09:31:20Z</time>
      </trkpt>
      <trkpt lat="49.8518" lon="3.34111">
        <ele>100</ele>
        <time>2017-03-19T09:31:23Z</time>
      </trkpt>
      <trkpt lat="49.8518" lon="3.34102">
        <ele>100</ele>
        <time>2017-03-19T09:31:27Z</time>
      </trkpt>
      <trkpt lat="49.85181" lon="3.34094">
        <ele>101</ele>
        <time>2017-03-19T09:31:30Z</time>
      </trkpt>
      <trkpt lat="49.85181" lon="3.34087">
        <ele>102</ele>
        <time>2017-03-19T09:31:33Z</time>
      </trkpt>
      <trkpt lat="49.85181" lon="3.3408">
        <ele>103</ele>
        <time>2017-03-19T09:31:36Z</time>
      </trkpt>
      <trkpt lat="49.85183" lon="3.34073">
        <ele>104</ele>
        <time>2017-03-19T09:31:40Z</time>
      </trkpt>
      <trkpt lat="49.85183" lon="3.34065">
        <ele>105</ele>
        <time>2017-03-19T09:31:44Z</time>
      </trkpt>
      <trkpt lat="49.85183" lon="3.34056">
        <ele>105</ele>
        <time>2017-03-19T09:31:47Z</time>
      </trkpt>
      <trkpt lat="49.85184" lon="3.34048">
        <ele>105</ele>
        <time>2017-03-19T09:31:51Z</time>
      </trkpt>
      <trkpt lat="49.85183" lon="3.3404">
        <ele>105</ele>
        <time>2017-03-19T09:31:54Z</time>
      </trkpt>
      <trkpt lat="49.85183" lon="3.34031">
        <ele>105</ele>
        <time>2017-03-19T09:31:58Z</time>
      </trkpt>
      <trkpt lat="49.85182" lon="3.34022">
        <ele>105</ele>
        <time>2017-03-19T09:32:01Z</time>
      </trkpt>
      <trkpt lat="49.85183" lon="3.34015">
        <ele>104</ele>
        <time>2017-03-19T09:32:04Z</time>
      </trkpt>
      <trkpt lat="49.85183" lon="3.34006">
        <ele>104</ele>
        <time>2017-03-19T09:32:07Z</time>
      </trkpt>
      <trkpt lat="49.85182" lon="3.33998">
        <ele>104</ele>
        <time>2017-03-19T09:32:10Z</time>
      </trkpt>
      <trkpt lat="49.85181" lon="3.3399">
        <ele>105</ele>
        <time>2017-03-19T09:32:13Z</time>
      </trkpt>
      <trkpt lat="49.85182" lon="3.3398">
        <ele>105</ele>
        <time>2017-03-19T09:32:18Z</time>
      </trkpt>
      <trkpt lat="49.85183" lon="3.33973">
        <ele>106</ele>
        <time>2017-03-19T09:32:21Z</time>
      </trkpt>
      <trkpt lat="49.85183" lon="3.33966">
        <ele>106</ele>
        <time>2017-03-19T09:32:24Z</time>
      </trkpt>
      <trkpt lat="49.85183" lon="3.33958">
        <ele>107</ele>
        <time>2017-03-19T09:32:27Z</time>
      </trkpt>
      <trkpt lat="49.85183" lon="3.3395">
        <ele>106</ele>
        <time>2017-03-19T09:32:31Z</time>
      </trkpt>
      <trkpt lat="49.85186" lon="3.33943">
        <ele>105</ele>
        <time>2017-03-19T09:32:34Z</time>
      </trkpt>
      <trkpt lat="49.85188" lon="3.33937">
        <ele>104</ele>
        <time>2017-03-19T09:32:37Z</time>
      </trkpt>
      <trkpt lat="49.85189" lon="3.33929">
        <ele>104</ele>
        <time>2017-03-19T09:32:40Z</time>
      </trkpt>
      <trkpt lat="49.85189" lon="3.33922">
        <ele>103</ele>
        <time>2017-03-19T09:32:44Z</time>
      </trkpt>
      <trkpt lat="49.85191" lon="3.33915">
        <ele>103</ele>
        <time>2017-03-19T09:32:48Z</time>
      </trkpt>
      <trkpt lat="49.85191" lon="3.33907">
        <ele>102</ele>
        <time>2017-03-19T09:32:52Z</time>
      </trkpt>
      <trkpt lat="49.85191" lon="3.33898">
        <ele>101</ele>
        <time>2017-03-19T09:32:55Z</time>
      </trkpt>
      <trkpt lat="49.8519" lon="3.33891">
        <ele>100</ele>
        <time>2017-03-19T09:32:58Z</time>
      </trkpt>
      <trkpt lat="49.85191" lon="3.33884">
        <ele>100</ele>
        <time>2017-03-19T09:33:01Z</time>
      </trkpt>
      <trkpt lat="49.85191" lon="3.33876">
        <ele>99</ele>
        <time>2017-03-19T09:33:04Z</time>
      </trkpt>
      <trkpt lat="49.85192" lon="3.33868">
        <ele>100</ele>
        <time>2017-03-19T09:33:07Z</time>
      </trkpt>
      <trkpt lat="49.85192" lon="3.33861">
        <ele>100</ele>
        <time>2017-03-19T09:33:11Z</time>
      </trkpt>
      <trkpt lat="49.85193" lon="3.33854">
        <ele>99</ele>
        <time>2017-03-19T09:33:15Z</time>
      </trkpt>
      <trkpt lat="49.85194" lon="3.33846">
        <ele>99</ele>
        <time>2017-03-19T09:33:19Z</time>
      </trkpt>
      <trkpt lat="49.85194" lon="3.33838">
        <ele>98</ele>
        <time>2017-03-19T09:33:22Z</time>
      </trkpt>
      <trkpt lat="49.85195" lon="3.33831">
        <ele>97</ele>
        <time>2017-03-19T09:33:25Z</time>
      </trkpt>
      <trkpt lat="49.85194" lon="3.33822">
        <ele>96</ele>
        <time>2017-03-19T09:33:28Z</time>
      </trkpt>
      <trkpt lat="49.85195" lon="3.33815">
        <ele>95</ele>
        <time>2017-03-19T09:33:31Z</time>
      </trkpt>
      <trkpt lat="49.85195" lon="3.33806">
        <ele>95</ele>
        <time>2017-03-19T09:33:35Z</time>
      </trkpt>
      <trkpt lat="49.85195" lon="3.33796">
        <ele>95</ele>
        <time>2017-03-19T09:33:38Z</time>
      </trkpt>
      <trkpt lat="49.85196" lon="3.33789">
        <ele>95</ele>
        <time>2017-03-19T09:33:42Z</time>
      </trkpt>
      <trkpt lat="49.85198" lon="3.33782">
        <ele>95</ele>
        <time>2017-03-19T09:33:46Z</time>
      </trkpt>
      <trkpt lat="49.85198" lon="3.33774">
        <ele>95</ele>
        <time>2017-03-19T09:33:49Z</time>
      </trkpt>
      <trkpt lat="49.85198" lon="3.33765">
        <ele>94</ele>
        <time>2017-03-19T09:33:52Z</time>
      </trkpt>
      <trkpt lat="49.85197" lon="3.33758">
        <ele>94</ele>
        <time>2017-03-19T09:33:54Z</time>
      </trkpt>
      <trkpt lat="49.85197" lon="3.33749">
        <ele>94</ele>
        <time>2017-03-19T09:33:57Z</time>
      </trkpt>
      <trkpt lat="49.85197" lon="3.33741">
        <ele>94</ele>
        <time>2017-03-19T09:34:01Z</time>
      </trkpt>
      <trkpt lat="49.85198" lon="3.33733">
        <ele>94</ele>
        <time>2017-03-19T09:34:05Z</time>
      </trkpt>
      <trkpt lat="49.85197" lon="3.33722">
        <ele>94</ele>
        <time>2017-03-19T09:34:08Z</time>
      </trkpt>
      <trkpt lat="49.85199" lon="3.33715">
        <ele>94</ele>
        <time>2017-03-19T09:34:13Z</time>
      </trkpt>
      <trkpt lat="49.85199" lon="3.33706">
        <ele>94</ele>
        <time>2017-03-19T09:34:16Z</time>
      </trkpt>
      <trkpt lat="49.852" lon="3.33699">
        <ele>94</ele>
        <time>2017-03-19T09:34:19Z</time>
      </trkpt>
      <trkpt lat="49.85201" lon="3.33691">
        <ele>94</ele>
        <time>2017-03-19T09:34:22Z</time>
      </trkpt>
      <trkpt lat="49.85201" lon="3.33681">
        <ele>94</ele>
        <time>2017-03-19T09:34:25Z</time>
      </trkpt>
      <trkpt lat="49.85201" lon="3.33674">
        <ele>95</ele>
        <time>2017-03-19T09:34:27Z</time>
      </trkpt>
      <trkpt lat="49.85201" lon="3.33665">
        <ele>96</ele>
        <time>2017-03-19T09:34:30Z</time>
      </trkpt>
      <trkpt lat="49.85202" lon="3.33658">
        <ele>96</ele>
        <time>2017-03-19T09:34:34Z</time>
      </trkpt>
      <trkpt lat="49.85201" lon="3.3365">
        <ele>97</ele>
        <time>2017-03-19T09:34:37Z</time>
      </trkpt>
      <trkpt lat="49.852" lon="3.3364">
        <ele>97</ele>
        <time>2017-03-19T09:34:40Z</time>
      </trkpt>
      <trkpt lat="49.85201" lon="3.33631">
        <ele>97</ele>
        <time>2017-03-19T09:34:43Z</time>
      </trkpt>
      <trkpt lat="49.85201" lon="3.33624">
        <ele>98</ele>
        <time>2017-03-19T09:34:46Z</time>
      </trkpt>
      <trkpt lat="49.85201" lon="3.33616">
        <ele>98</ele>
        <time>2017-03-19T09:34:50Z</time>
      </trkpt>
      <trkpt lat="49.85201" lon="3.33608">
        <ele>99</ele>
        <time>2017-03-19T09:34:53Z</time>
      </trkpt>
      <trkpt lat="49.85201" lon="3.33599">
        <ele>99</ele>
        <time>2017-03-19T09:34:56Z</time>
      </trkpt>
      <trkpt lat="49.85201" lon="3.33591">
        <ele>100</ele>
        <time>2017-03-19T09:34:59Z</time>
      </trkpt>
      <trkpt lat="49.85202" lon="3.33583">
        <ele>100</ele>
        <time>2017-03-19T09:35:02Z</time>
      </trkpt>
      <trkpt lat="49.85202" lon="3.33575">
        <ele>100</ele>
        <time>2017-03-19T09:35:05Z</time>
      </trkpt>
      <trkpt lat="49.85202" lon="3.33566">
        <ele>101</ele>
        <time>2017-03-19T09:35:09Z</time>
      </trkpt>
      <trkpt lat="49.85203" lon="3.33558">
        <ele>101</ele>
        <time>2017-03-19T09:35:13Z</time>
      </trkpt>
      <trkpt lat="49.85203" lon="3.33549">
        <ele>101</ele>
        <time>2017-03-19T09:35:16Z</time>
      </trkpt>
      <trkpt lat="49.85203" lon="3.33541">
        <ele>102</ele>
        <time>2017-03-19T09:35:20Z</time>
      </trkpt>
      <trkpt lat="49.85206" lon="3.33534">
        <ele>102</ele>
        <time>2017-03-19T09:35:25Z</time>
      </trkpt>
      <trkpt lat="49.85208" lon="3.33527">
        <ele>102</ele>
        <time>2017-03-19T09:35:28Z</time>
      </trkpt>
      <trkpt lat="49.85211" lon="3.3352">
        <ele>101</ele>
        <time>2017-03-19T09:35:32Z</time>
      </trkpt>
      <trkpt lat="49.85212" lon="3.33511">
        <ele>101</ele>
        <time>2017-03-19T09:35:35Z</time>
      </trkpt>
      <trkpt lat="49.85214" lon="3.33505">
        <ele>100</ele>
        <time>2017-03-19T09:35:38Z</time>
      </trkpt>
      <trkpt lat="49.85214" lon="3.33497">
        <ele>99</ele>
        <time>2017-03-19T09:35:40Z</time>
      </trkpt>
      <trkpt lat="49.85218" lon="3.33492">
        <ele>98</ele>
        <time>2017-03-19T09:35:44Z</time>
      </trkpt>
      <trkpt lat="49.85222" lon="3.33487">
        <ele>97</ele>
        <time>2017-03-19T09:35:47Z</time>
      </trkpt>
      <trkpt lat="49.85224" lon="3.33481">
        <ele>97</ele>
        <time>2017-03-19T09:35:50Z</time>
      </trkpt>
      <trkpt lat="49.85224" lon="3.33474">
        <ele>96</ele>
        <time>2017-03-19T09:35:53Z</time>
      </trkpt>
      <trkpt lat="49.85225" lon="3.33466">
        <ele>95</ele>
        <time>2017-03-19T09:35:56Z</time>
      </trkpt>
      <trkpt lat="49.85226" lon="3.33458">
        <ele>95</ele>
        <time>2017-03-19T09:35:59Z</time>
      </trkpt>
      <trkpt lat="49.85228" lon="3.33449">
        <ele>96</ele>
        <time>2017-03-19T09:36:02Z</time>
      </trkpt>
      <trkpt lat="49.85228" lon="3.33442">
        <ele>96</ele>
        <time>2017-03-19T09:36:05Z</time>
      </trkpt>
      <trkpt lat="49.85228" lon="3.33432">
        <ele>97</ele>
        <time>2017-03-19T09:36:08Z</time>
      </trkpt>
      <trkpt lat="49.85229" lon="3.33423">
        <ele>97</ele>
        <time>2017-03-19T09:36:14Z</time>
      </trkpt>
      <trkpt lat="49.8523" lon="3.33416">
        <ele>97</ele>
        <time>2017-03-19T09:36:17Z</time>
      </trkpt>
      <trkpt lat="49.8523" lon="3.33408">
        <ele>97</ele>
        <time>2017-03-19T09:36:20Z</time>
      </trkpt>
      <trkpt lat="49.85231" lon="3.334">
        <ele>96</ele>
        <time>2017-03-19T09:36:24Z</time>
      </trkpt>
      <trkpt lat="49.8523" lon="3.33392">
        <ele>96</ele>
        <time>2017-03-19T09:36:27Z</time>
      </trkpt>
      <trkpt lat="49.85232" lon="3.33384">
        <ele>96</ele>
        <time>2017-03-19T09:36:31Z</time>
      </trkpt>
      <trkpt lat="49.85232" lon="3.33374">
        <ele>95</ele>
        <time>2017-03-19T09:36:35Z</time>
      </trkpt>
      <trkpt lat="49.85231" lon="3.33365">
        <ele>95</ele>
        <time>2017-03-19T09:36:38Z</time>
      </trkpt>
      <trkpt lat="49.8523" lon="3.33356">
        <ele>95</ele>
        <time>2017-03-19T09:36:41Z</time>
      </trkpt>
      <trkpt lat="49.8523" lon="3.33346">
        <ele>95</ele>
        <time>2017-03-19T09:36:44Z</time>
      </trkpt>
      <trkpt lat="49.85228" lon="3.33337">
        <ele>95</ele>
        <time>2017-03-19T09:36:47Z</time>
      </trkpt>
      <trkpt lat="49.85228" lon="3.3333">
        <ele>96</ele>
        <time>2017-03-19T09:36:49Z</time>
      </trkpt>
      <trkpt lat="49.85228" lon="3.33322">
        <ele>97</ele>
        <time>2017-03-19T09:36:52Z</time>
      </trkpt>
      <trkpt lat="49.85226" lon="3.33312">
        <ele>97</ele>
        <time>2017-03-19T09:36:55Z</time>
      </trkpt>
      <trkpt lat="49.85226" lon="3.33304">
        <ele>97</ele>
        <time>2017-03-19T09:37:00Z</time>
      </trkpt>
      <trkpt lat="49.85225" lon="3.33296">
        <ele>97</ele>
        <time>2017-03-19T09:37:03Z</time>
      </trkpt>
      <trkpt lat="49.85224" lon="3.33288">
        <ele>97</ele>
        <time>2017-03-19T09:37:06Z</time>
      </trkpt>
      <trkpt lat="49.85223" lon="3.33281">
        <ele>96</ele>
        <time>2017-03-19T09:37:10Z</time>
      </trkpt>
      <trkpt lat="49.85221" lon="3.33271">
        <ele>96</ele>
        <time>2017-03-19T09:37:13Z</time>
      </trkpt>
      <trkpt lat="49.8522" lon="3.33263">
        <ele>95</ele>
        <time>2017-03-19T09:37:17Z</time>
      </trkpt>
      <trkpt lat="49.85219" lon="3.33256">
        <ele>95</ele>
        <time>2017-03-19T09:37:20Z</time>
      </trkpt>
      <trkpt lat="49.85218" lon="3.33247">
        <ele>95</ele>
        <time>2017-03-19T09:37:24Z</time>
      </trkpt>
      <trkpt lat="49.85217" lon="3.33238">
        <ele>95</ele>
        <time>2017-03-19T09:37:28Z</time>
      </trkpt>
      <trkpt lat="49.85216" lon="3.33231">
        <ele>95</ele>
        <time>2017-03-19T09:37:30Z</time>
      </trkpt>
      <trkpt lat="49.85214" lon="3.33224">
        <ele>96</ele>
        <time>2017-03-19T09:37:33Z</time>
      </trkpt>
      <trkpt lat="49.85214" lon="3.33217">
        <ele>95</ele>
        <time>2017-03-19T09:37:37Z</time>
      </trkpt>
      <trkpt lat="49.85213" lon="3.33208">
        <ele>94</ele>
        <time>2017-03-19T09:37:41Z</time>
      </trkpt>
      <trkpt lat="49.85213" lon="3.332">
        <ele>93</ele>
        <time>2017-03-19T09:37:45Z</time>
      </trkpt>
      <trkpt lat="49.85213" lon="3.33193">
        <ele>92</ele>
        <time>2017-03-19T09:37:48Z</time>
      </trkpt>
      <trkpt lat="49.85214" lon="3.33185">
        <ele>91</ele>
        <time>2017-03-19T09:37:51Z</time>
      </trkpt>
      <trkpt lat="49.85213" lon="3.33177">
        <ele>90</ele>
        <time>2017-03-19T09:37:54Z</time>
      </trkpt>
      <trkpt lat="49.85213" lon="3.33168">
        <ele>90</ele>
        <time>2017-03-19T09:37:57Z</time>
      </trkpt>
      <trkpt lat="49.85213" lon="3.33159">
        <ele>89</ele>
        <time>2017-03-19T09:38:00Z</time>
      </trkpt>
      <trkpt lat="49.85212" lon="3.33151">
        <ele>89</ele>
        <time>2017-03-19T09:38:03Z</time>
      </trkpt>
      <trkpt lat="49.85213" lon="3.33144">
        <ele>89</ele>
        <time>2017-03-19T09:38:05Z</time>
      </trkpt>
      <trkpt lat="49.85214" lon="3.33137">
        <ele>89</ele>
        <time>2017-03-19T09:38:08Z</time>
      </trkpt>
      <trkpt lat="49.85214" lon="3.33129">
        <ele>89</ele>
        <time>2017-03-19T09:38:11Z</time>
      </trkpt>
      <trkpt lat="49.85215" lon="3.3312">
        <ele>90</ele>
        <time>2017-03-19T09:38:14Z</time>
      </trkpt>
      <trkpt lat="49.85215" lon="3.33112">
        <ele>90</ele>
        <time>2017-03-19T09:38:17Z</time>
      </trkpt>
      <trkpt lat="49.85215" lon="3.33105">
        <ele>90</ele>
        <time>2017-03-19T09:38:20Z</time>
      </trkpt>
      <trkpt lat="49.85215" lon="3.33096">
        <ele>90</ele>
        <time>2017-03-19T09:38:23Z</time>
      </trkpt>
      <trkpt lat="49.85219" lon="3.33091">
        <ele>90</ele>
        <time>2017-03-19T09:38:27Z</time>
      </trkpt>
      <trkpt lat="49.85221" lon="3.33084">
        <ele>89</ele>
        <time>2017-03-19T09:38:30Z</time>
      </trkpt>
      <trkpt lat="49.85222" lon="3.33076">
        <ele>89</ele>
        <time>2017-03-19T09:38:33Z</time>
      </trkpt>
      <trkpt lat="49.85223" lon="3.33068">
        <ele>88</ele>
        <time>2017-03-19T09:38:37Z</time>
      </trkpt>
      <trkpt lat="49.85225" lon="3.3306">
        <ele>88</ele>
        <time>2017-03-19T09:38:40Z</time>
      </trkpt>
      <trkpt lat="49.85226" lon="3.33052">
        <ele>88</ele>
        <time>2017-03-19T09:38:44Z</time>
      </trkpt>
      <trkpt lat="49.85228" lon="3.33044">
        <ele>87</ele>
        <time>2017-03-19T09:38:48Z</time>
      </trkpt>
      <trkpt lat="49.85232" lon="3.33036">
        <ele>86</ele>
        <time>2017-03-19T09:38:53Z</time>
      </trkpt>
      <trkpt lat="49.85233" lon="3.3303">
        <ele>85</ele>
        <time>2017-03-19T09:38:57Z</time>
      </trkpt>
      <trkpt lat="49.85235" lon="3.33022">
        <ele>83</ele>
        <time>2017-03-19T09:39:00Z</time>
      </trkpt>
      <trkpt lat="49.85235" lon="3.33015">
        <ele>81</ele>
        <time>2017-03-19T09:39:03Z</time>
      </trkpt>
      <trkpt lat="49.85236" lon="3.33007">
        <ele>80</ele>
        <time>2017-03-19T09:39:06Z</time>
      </trkpt>
      <trkpt lat="49.85238" lon="3.33001">
        <ele>79</ele>
        <time>2017-03-19T09:39:09Z</time>
      </trkpt>
      <trkpt lat="49.85241" lon="3.32993">
        <ele>78</ele>
        <time>2017-03-19T09:39:13Z</time>
      </trkpt>
      <trkpt lat="49.85243" lon="3.32986">
        <ele>77</ele>
        <time>2017-03-19T09:39:17Z</time>
      </trkpt>
      <trkpt lat="49.85243" lon="3.32978">
        <ele>76</ele>
        <time>2017-03-19T09:39:20Z</time>
      </trkpt>
      <trkpt lat="49.85242" lon="3.32969">
        <ele>75</ele>
        <time>2017-03-19T09:39:23Z</time>
      </trkpt>
      <trkpt lat="49.85244" lon="3.32961">
        <ele>74</ele>
        <time>2017-03-19T09:39:27Z</time>
      </trkpt>
      <trkpt lat="49.85245" lon="3.32952">
        <ele>73</ele>
        <time>2017-03-19T09:39:31Z</time>
      </trkpt>
      <trkpt lat="49.85245" lon="3.32945">
        <ele>72</ele>
        <time>2017-03-19T09:39:34Z</time>
      </trkpt>
      <trkpt lat="49.85243" lon="3.32937">
        <ele>72</ele>
        <time>2017-03-19T09:39:37Z</time>
      </trkpt>
      <trkpt lat="49.85241" lon="3.32929">
        <ele>71</ele>
        <time>2017-03-19T09:39:40Z</time>
      </trkpt>
      <trkpt lat="49.85239" lon="3.32923">
        <ele>71</ele>
        <time>2017-03-19T09:39:42Z</time>
      </trkpt>
      <trkpt lat="49.85238" lon="3.32915">
        <ele>72</ele>
        <time>2017-03-19T09:39:45Z</time>
      </trkpt>
      <trkpt lat="49.85239" lon="3.32907">
        <ele>72</ele>
        <time>2017-03-19T09:39:48Z</time>
      </trkpt>
      <trkpt lat="49.85238" lon="3.32898">
        <ele>72</ele>
        <time>2017-03-19T09:39:52Z</time>
      </trkpt>
      <trkpt lat="49.85237" lon="3.3289">
        <ele>72</ele>
        <time>2017-03-19T09:39:55Z</time>
      </trkpt>
      <trkpt lat="49.85237" lon="3.32881">
        <ele>72</ele>
        <time>2017-03-19T09:39:59Z</time>
      </trkpt>
      <trkpt lat="49.85236" lon="3.32872">
        <ele>72</ele>
        <time>2017-03-19T09:40:02Z</time>
      </trkpt>
      <trkpt lat="49.85235" lon="3.32863">
        <ele>72</ele>
        <time>2017-03-19T09:40:05Z</time>
      </trkpt>
      <trkpt lat="49.85233" lon="3.32856">
        <ele>72</ele>
        <time>2017-03-19T09:40:08Z</time>
      </trkpt>
      <trkpt lat="49.85234" lon="3.32846">
        <ele>72</ele>
        <time>2017-03-19T09:40:12Z</time>
      </trkpt>
      <trkpt lat="49.85235" lon="3.32838">
        <ele>72</ele>
        <time>2017-03-19T09:40:15Z</time>
      </trkpt>
      <trkpt lat="49.85237" lon="3.32832">
        <ele>71</ele>
        <time>2017-03-19T09:40:18Z</time>
      </trkpt>
      <trkpt lat="49.85238" lon="3.32823">
        <ele>71</ele>
        <time>2017-03-19T09:40:21Z</time>
      </trkpt>
      <trkpt lat="49.85239" lon="3.32817">
        <ele>71</ele>
        <time>2017-03-19T09:40:24Z</time>
      </trkpt>
      <trkpt lat="49.85241" lon="3.32809">
        <ele>70</ele>
        <time>2017-03-19T09:40:27Z</time>
      </trkpt>
      <trkpt lat="49.85243" lon="3.32801">
        <ele>70</ele>
        <time>2017-03-19T09:40:31Z</time>
      </trkpt>
      <trkpt lat="49.85244" lon="3.32794">
        <ele>70</ele>
        <time>2017-03-19T09:40:34Z</time>
      </trkpt>
      <trkpt lat="49.85244" lon="3.32787">
        <ele>70</ele>
        <time>2017-03-19T09:40:37Z</time>
      </trkpt>
      <trkpt lat="49.85245" lon="3.32778">
        <ele>69</ele>
        <time>2017-03-19T09:40:41Z</time>
      </trkpt>
      <trkpt lat="49.85248" lon="3.3277">
        <ele>69</ele>
        <time>2017-03-19T09:40:45Z</time>
      </trkpt>
      <trkpt lat="49.85249" lon="3.32762">
        <ele>68</ele>
        <time>2017-03-19T09:40:48Z</time>
      </trkpt>
      <trkpt lat="49.8525" lon="3.32754">
        <ele>68</ele>
        <time>2017-03-19T09:40:51Z</time>
      </trkpt>
      <trkpt lat="49.85253" lon="3.32747">
        <ele>68</ele>
        <time>2017-03-19T09:40:55Z</time>
      </trkpt>
      <trkpt lat="49.85254" lon="3.32738">
        <ele>69</ele>
        <time>2017-03-19T09:40:58Z</time>
      </trkpt>
      <trkpt lat="49.85253" lon="3.32731">
        <ele>70</ele>
        <time>2017-03-19T09:41:00Z</time>
      </trkpt>
      <trkpt lat="49.85254" lon="3.32723">
        <ele>71</ele>
        <time>2017-03-19T09:41:03Z</time>
      </trkpt>
      <trkpt lat="49.85257" lon="3.32715">
        <ele>72</ele>
        <time>2017-03-19T09:41:08Z</time>
      </trkpt>
      <trkpt lat="49.85263" lon="3.32712">
        <ele>73</ele>
        <time>2017-03-19T09:41:11Z</time>
      </trkpt>
      <trkpt lat="49.85265" lon="3.32703">
        <ele>73</ele>
        <time>2017-03-19T09:41:15Z</time>
      </trkpt>
      <trkpt lat="49.85265" lon="3.32695">
        <ele>73</ele>
        <time>2017-03-19T09:41:19Z</time>
      </trkpt>
      <trkpt lat="49.85265" lon="3.32686">
        <ele>72</ele>
        <time>2017-03-19T09:41:23Z</time>
      </trkpt>
      <trkpt lat="49.85267" lon="3.32677">
        <ele>72</ele>
        <time>2017-03-19T09:41:27Z</time>
      </trkpt>
      <trkpt lat="49.85268" lon="3.32668">
        <ele>72</ele>
        <time>2017-03-19T09:41:30Z</time>
      </trkpt>
      <trkpt lat="49.85267" lon="3.3266">
        <ele>73</ele>
        <time>2017-03-19T09:41:33Z</time>
      </trkpt>
      <trkpt lat="49.85268" lon="3.32652">
        <ele>73</ele>
        <time>2017-03-19T09:41:36Z</time>
      </trkpt>
      <trkpt lat="49.85267" lon="3.32644">
        <ele>74</ele>
        <time>2017-03-19T09:41:39Z</time>
      </trkpt>
      <trkpt lat="49.85267" lon="3.32636">
        <ele>76</ele>
        <time>2017-03-19T09:41:43Z</time>
      </trkpt>
      <trkpt lat="49.85268" lon="3.32628">
        <ele>77</ele>
        <time>2017-03-19T09:41:48Z</time>
      </trkpt>
      <trkpt lat="49.85269" lon="3.32619">
        <ele>78</ele>
        <time>2017-03-19T09:41:52Z</time>
      </trkpt>
      <trkpt lat="49.85268" lon="3.32611">
        <ele>79</ele>
        <time>2017-03-19T09:41:55Z</time>
      </trkpt>
      <trkpt lat="49.85269" lon="3.32603">
        <ele>79</ele>
        <time>2017-03-19T09:41:58Z</time>
      </trkpt>
      <trkpt lat="49.85271" lon="3.32595">
        <ele>79</ele>
        <time>2017-03-19T09:42:02Z</time>
      </trkpt>
      <trkpt lat="49.85272" lon="3.32586">
        <ele>79</ele>
        <time>2017-03-19T09:42:06Z</time>
      </trkpt>
      <trkpt lat="49.85273" lon="3.32578">
        <ele>79</ele>
        <time>2017-03-19T09:42:09Z</time>
      </trkpt>
      <trkpt lat="49.85275" lon="3.32571">
        <ele>79</ele>
        <time>2017-03-19T09:42:12Z</time>
      </trkpt>
      <trkpt lat="49.85276" lon="3.32563">
        <ele>80</ele>
        <time>2017-03-19T09:42:16Z</time>
      </trkpt>
      <trkpt lat="49.85278" lon="3.32554">
        <ele>81</ele>
        <time>2017-03-19T09:42:20Z</time>
      </trkpt>
      <trkpt lat="49.8528" lon="3.32546">
        <ele>82</ele>
        <time>2017-03-19T09:42:24Z</time>
      </trkpt>
      <trkpt lat="49.85284" lon="3.32541">
        <ele>83</ele>
        <time>2017-03-19T09:42:27Z</time>
      </trkpt>
      <trkpt lat="49.85284" lon="3.32533">
        <ele>85</ele>
        <time>2017-03-19T09:42:30Z</time>
      </trkpt>
      <trkpt lat="49.85286" lon="3.32526">
        <ele>86</ele>
        <time>2017-03-19T09:42:34Z</time>
      </trkpt>
      <trkpt lat="49.85288" lon="3.32518">
        <ele>86</ele>
        <time>2017-03-19T09:42:38Z</time>
      </trkpt>
      <trkpt lat="49.85291" lon="3.32512">
        <ele>86</ele>
        <time>2017-03-19T09:42:42Z</time>
      </trkpt>
      <trkpt lat="49.85294" lon="3.32503">
        <ele>86</ele>
        <time>2017-03-19T09:42:46Z</time>
      </trkpt>
      <trkpt lat="49.85294" lon="3.32495">
        <ele>85</ele>
        <time>2017-03-19T09:42:50Z</time>
      </trkpt>
      <trkpt lat="49.85299" lon="3.32489">
        <ele>84</ele>
        <time>2017-03-19T09:42:52Z</time>
      </trkpt>
      <trkpt lat="49.85301" lon="3.32482">
        <ele>84</ele>
        <time>2017-03-19T09:42:56Z</time>
      </trkpt>
      <trkpt lat="49.85302" lon="3.32475">
        <ele>85</ele>
        <time>2017-03-19T09:43:00Z</time>
      </trkpt>
      <trkpt lat="49.85304" lon="3.32467">
        <ele>85</ele>
        <time>2017-03-19T09:43:03Z</time>
      </trkpt>
      <trkpt lat="49.85308" lon="3.32458">
        <ele>87</ele>
        <time>2017-03-19T09:43:07Z</time>
      </trkpt>
      <trkpt lat="49.85312" lon="3.32449">
        <ele>88</ele>
        <time>2017-03-19T09:43:13Z</time>
      </trkpt>
      <trkpt lat="49.85317" lon="3.32444">
        <ele>89</ele>
        <time>2017-03-19T09:43:16Z</time>
      </trkpt>
      <trkpt lat="49.85319" lon="3.32438">
        <ele>90</ele>
        <time>2017-03-19T09:43:20Z</time>
      </trkpt>
      <trkpt lat="49.85322" lon="3.3243">
        <ele>90</ele>
        <time>2017-03-19T09:43:27Z</time>
      </trkpt>
      <trkpt lat="49.85325" lon="3.32424">
        <ele>90</ele>
        <time>2017-03-19T09:43:31Z</time>
      </trkpt>
      <trkpt lat="49.85323" lon="3.32415">
        <ele>88</ele>
        <time>2017-03-19T09:43:34Z</time>
      </trkpt>
      <trkpt lat="49.85323" lon="3.32405">
        <ele>86</ele>
        <time>2017-03-19T09:43:38Z</time>
      </trkpt>
      <trkpt lat="49.85325" lon="3.32398">
        <ele>85</ele>
        <time>2017-03-19T09:43:40Z</time>
      </trkpt>
      <trkpt lat="49.85325" lon="3.32388">
        <ele>84</ele>
        <time>2017-03-19T09:43:46Z</time>
      </trkpt>
      <trkpt lat="49.85325" lon="3.32379">
        <ele>82</ele>
        <time>2017-03-19T09:43:50Z</time>
      </trkpt>
      <trkpt lat="49.85329" lon="3.32373">
        <ele>82</ele>
        <time>2017-03-19T09:43:55Z</time>
      </trkpt>
      <trkpt lat="49.85331" lon="3.32364">
        <ele>81</ele>
        <time>2017-03-19T09:43:58Z</time>
      </trkpt>
      <trkpt lat="49.85334" lon="3.32357">
        <ele>82</ele>
        <time>2017-03-19T09:44:01Z</time>
      </trkpt>
      <trkpt lat="49.85336" lon="3.32349">
        <ele>82</ele>
        <time>2017-03-19T09:44:05Z</time>
      </trkpt>
      <trkpt lat="49.85337" lon="3.32342">
        <ele>82</ele>
        <time>2017-03-19T09:44:08Z</time>
      </trkpt>
      <trkpt lat="49.85339" lon="3.32334">
        <ele>83</ele>
        <time>2017-03-19T09:44:11Z</time>
      </trkpt>
      <trkpt lat="49.85338" lon="3.32324">
        <ele>84</ele>
        <time>2017-03-19T09:44:14Z</time>
      </trkpt>
      <trkpt lat="49.85341" lon="3.32317">
        <ele>85</ele>
        <time>2017-03-19T09:44:17Z</time>
      </trkpt>
      <trkpt lat="49.85342" lon="3.32311">
        <ele>84</ele>
        <time>2017-03-19T09:44:22Z</time>
      </trkpt>
      <trkpt lat="49.85344" lon="3.32303">
        <ele>84</ele>
        <time>2017-03-19T09:44:25Z</time>
      </trkpt>
      <trkpt lat="49.85344" lon="3.32295">
        <ele>83</ele>
        <time>2017-03-19T09:44:29Z</time>
      </trkpt>
      <trkpt lat="49.85341" lon="3.32288">
        <ele>82</ele>
        <time>2017-03-19T09:44:32Z</time>
      </trkpt>
      <trkpt lat="49.85338" lon="3.32282">
        <ele>81</ele>
        <time>2017-03-19T09:44:35Z</time>
      </trkpt>
      <trkpt lat="49.85338" lon="3.32273">
        <ele>80</ele>
        <time>2017-03-19T09:44:39Z</time>
      </trkpt>
      <trkpt lat="49.85339" lon="3.32265">
        <ele>79</ele>
        <time>2017-03-19T09:44:43Z</time>
      </trkpt>
      <trkpt lat="49.8534" lon="3.32257">
        <ele>79</ele>
        <time>2017-03-19T09:44:47Z</time>
      </trkpt>
      <trkpt lat="49.85341" lon="3.32248">
        <ele>78</ele>
        <time>2017-03-19T09:44:51Z</time>
      </trkpt>
      <trkpt lat="49.85342" lon="3.32241">
        <ele>79</ele>
        <time>2017-03-19T09:44:54Z</time>
      </trkpt>
      <trkpt lat="49.85344" lon="3.32232">
        <ele>79</ele>
        <time>2017-03-19T09:44:57Z</time>
      </trkpt>
      <trkpt lat="49.85344" lon="3.32224">
        <ele>79</ele>
        <time>2017-03-19T09:45:00Z</time>
      </trkpt>
      <trkpt lat="49.85345" lon="3.32215">
        <ele>79</ele>
        <time>2017-03-19T09:45:03Z</time>
      </trkpt>
      <trkpt lat="49.85345" lon="3.32207">
        <ele>80</ele>
        <time>2017-03-19T09:45:06Z</time>
      </trkpt>
      <trkpt lat="49.85346" lon="3.32199">
        <ele>81</ele>
        <time>2017-03-19T09:45:09Z</time>
      </trkpt>
      <trkpt lat="49.85346" lon="3.32191">
        <ele>82</ele>
        <time>2017-03-19T09:45:12Z</time>
      </trkpt>
      <trkpt lat="49.85345" lon="3.32182">
        <ele>83</ele>
        <time>2017-03-19T09:45:15Z</time>
      </trkpt>
      <trkpt lat="49.85344" lon="3.32173">
        <ele>84</ele>
        <time>2017-03-19T09:45:18Z</time>
      </trkpt>
      <trkpt lat="49.85344" lon="3.32166">
        <ele>84</ele>
        <time>2017-03-19T09:45:21Z</time>
      </trkpt>
      <trkpt lat="49.85345" lon="3.32157">
        <ele>85</ele>
        <time>2017-03-19T09:45:25Z</time>
      </trkpt>
      <trkpt lat="49.85346" lon="3.32149">
        <ele>85</ele>
        <time>2017-03-19T09:45:28Z</time>
      </trkpt>
      <trkpt lat="49.85346" lon="3.32142">
        <ele>85</ele>
        <time>2017-03-19T09:45:32Z</time>
      </trkpt>
      <trkpt lat="49.85346" lon="3.32133">
        <ele>85</ele>
        <time>2017-03-19T09:45:36Z</time>
      </trkpt>
      <trkpt lat="49.85346" lon="3.32126">
        <ele>84</ele>
        <time>2017-03-19T09:45:40Z</time>
      </trkpt>
      <trkpt lat="49.85346" lon="3.32118">
        <ele>84</ele>
        <time>2017-03-19T09:45:44Z</time>
      </trkpt>
      <trkpt lat="49.85346" lon="3.3211">
        <ele>83</ele>
        <time>2017-03-19T09:45:47Z</time>
      </trkpt>
      <trkpt lat="49.85346" lon="3.32102">
        <ele>83</ele>
        <time>2017-03-19T09:45:50Z</time>
      </trkpt>
      <trkpt lat="49.85346" lon="3.32093">
        <ele>84</ele>
        <time>2017-03-19T09:45:53Z</time>
      </trkpt>
      <trkpt lat="49.85347" lon="3.32085">
        <ele>84</ele>
        <time>2017-03-19T09:45:56Z</time>
      </trkpt>
      <trkpt lat="49.85347" lon="3.32075">
        <ele>84</ele>
        <time>2017-03-19T09:45:59Z</time>
      </trkpt>
      <trkpt lat="49.85347" lon="3.32067">
        <ele>85</ele>
        <time>2017-03-19T09:46:03Z</time>
      </trkpt>
      <trkpt lat="49.85349" lon="3.32058">
        <ele>85</ele>
        <time>2017-03-19T09:46:07Z</time>
      </trkpt>
      <trkpt lat="49.85349" lon="3.32051">
        <ele>85</ele>
        <time>2017-03-19T09:46:10Z</time>
      </trkpt>
      <trkpt lat="49.85348" lon="3.3204">
        <ele>84</ele>
        <time>2017-03-19T09:46:14Z</time>
      </trkpt>
      <trkpt lat="49.8535" lon="3.32033">
        <ele>83</ele>
        <time>2017-03-19T09:46:19Z</time>
      </trkpt>
      <trkpt lat="49.85352" lon="3.32025">
        <ele>82</ele>
        <time>2017-03-19T09:46:22Z</time>
      </trkpt>
      <trkpt lat="49.85353" lon="3.32017">
        <ele>81</ele>
        <time>2017-03-19T09:46:26Z</time>
      </trkpt>
      <trkpt lat="49.85354" lon="3.3201">
        <ele>81</ele>
        <time>2017-03-19T09:46:29Z</time>
      </trkpt>
      <trkpt lat="49.85352" lon="3.32002">
        <ele>80</ele>
        <time>2017-03-19T09:46:33Z</time>
      </trkpt>
      <trkpt lat="49.85355" lon="3.31996">
        <ele>80</ele>
        <time>2017-03-19T09:46:37Z</time>
      </trkpt>
      <trkpt lat="49.85358" lon="3.3199">
        <ele>80</ele>
        <time>2017-03-19T09:46:41Z</time>
      </trkpt>
      <trkpt lat="49.85359" lon="3.31981">
        <ele>79</ele>
        <time>2017-03-19T09:46:44Z</time>
      </trkpt>
      <trkpt lat="49.85361" lon="3.31974">
        <ele>79</ele>
        <time>2017-03-19T09:46:47Z</time>
      </trkpt>
      <trkpt lat="49.85364" lon="3.31966">
        <ele>79</ele>
        <time>2017-03-19T09:46:50Z</time>
      </trkpt>
      <trkpt lat="49.85366" lon="3.31958">
        <ele>79</ele>
        <time>2017-03-19T09:46:53Z</time>
      </trkpt>
      <trkpt lat="49.85368" lon="3.3195">
        <ele>79</ele>
        <time>2017-03-19T09:46:56Z</time>
      </trkpt>
      <trkpt lat="49.8537" lon="3.31942">
        <ele>79</ele>
        <time>2017-03-19T09:46:59Z</time>
      </trkpt>
      <trkpt lat="49.85371" lon="3.31934">
        <ele>80</ele>
        <time>2017-03-19T09:47:01Z</time>
      </trkpt>
      <trkpt lat="49.85372" lon="3.31926">
        <ele>79</ele>
        <time>2017-03-19T09:47:04Z</time>
      </trkpt>
      <trkpt lat="49.85374" lon="3.31916">
        <ele>79</ele>
        <time>2017-03-19T09:47:07Z</time>
      </trkpt>
      <trkpt lat="49.85377" lon="3.31909">
        <ele>79</ele>
        <time>2017-03-19T09:47:09Z</time>
      </trkpt>
      <trkpt lat="49.8538" lon="3.31901">
        <ele>78</ele>
        <time>2017-03-19T09:47:12Z</time>
      </trkpt>
      <trkpt lat="49.85381" lon="3.31893">
        <ele>78</ele>
        <time>2017-03-19T09:47:15Z</time>
      </trkpt>
      <trkpt lat="49.85382" lon="3.31886">
        <ele>78</ele>
        <time>2017-03-19T09:47:18Z</time>
      </trkpt>
      <trkpt lat="49.85384" lon="3.31877">
        <ele>79</ele>
        <time>2017-03-19T09:47:21Z</time>
      </trkpt>
      <trkpt lat="49.85385" lon="3.3187">
        <ele>79</ele>
        <time>2017-03-19T09:47:24Z</time>
      </trkpt>
      <trkpt lat="49.85387" lon="3.31863">
        <ele>79</ele>
        <time>2017-03-19T09:47:27Z</time>
      </trkpt>
      <trkpt lat="49.85387" lon="3.31855">
        <ele>79</ele>
        <time>2017-03-19T09:47:31Z</time>
      </trkpt>
      <trkpt lat="49.85392" lon="3.31852">
        <ele>78</ele>
        <time>2017-03-19T09:47:33Z</time>
      </trkpt>
      <trkpt lat="49.85396" lon="3.31847">
        <ele>77</ele>
        <time>2017-03-19T09:47:37Z</time>
      </trkpt>
      <trkpt lat="49.854" lon="3.31841">
        <ele>77</ele>
        <time>2017-03-19T09:47:40Z</time>
      </trkpt>
      <trkpt lat="49.85403" lon="3.31834">
        <ele>77</ele>
        <time>2017-03-19T09:47:44Z</time>
      </trkpt>
      <trkpt lat="49.85408" lon="3.3183">
        <ele>77</ele>
        <time>2017-03-19T09:47:48Z</time>
      </trkpt>
      <trkpt lat="49.85411" lon="3.31825">
        <ele>76</ele>
        <time>2017-03-19T09:47:51Z</time>
      </trkpt>
      <trkpt lat="49.85414" lon="3.31818">
        <ele>76</ele>
        <time>2017-03-19T09:47:54Z</time>
      </trkpt>
      <trkpt lat="49.85415" lon="3.31812">
        <ele>75</ele>
        <time>2017-03-19T09:47:57Z</time>
      </trkpt>
      <trkpt lat="49.85415" lon="3.31804">
        <ele>74</ele>
        <time>2017-03-19T09:48:00Z</time>
      </trkpt>
      <trkpt lat="49.85417" lon="3.31794">
        <ele>74</ele>
        <time>2017-03-19T09:48:03Z</time>
      </trkpt>
      <trkpt lat="49.85416" lon="3.31784">
        <ele>75</ele>
        <time>2017-03-19T09:48:06Z</time>
      </trkpt>
      <trkpt lat="49.85415" lon="3.31776">
        <ele>76</ele>
        <time>2017-03-19T09:48:11Z</time>
      </trkpt>
      <trkpt lat="49.85415" lon="3.31769">
        <ele>76</ele>
        <time>2017-03-19T09:48:14Z</time>
      </trkpt>
      <trkpt lat="49.85415" lon="3.31759">
        <ele>76</ele>
        <time>2017-03-19T09:48:19Z</time>
      </trkpt>
      <trkpt lat="49.85416" lon="3.31751">
        <ele>75</ele>
        <time>2017-03-19T09:48:22Z</time>
      </trkpt>
      <trkpt lat="49.85418" lon="3.31742">
        <ele>73</ele>
        <time>2017-03-19T09:48:26Z</time>
      </trkpt>
      <trkpt lat="49.85418" lon="3.31734">
        <ele>71</ele>
        <time>2017-03-19T09:48:30Z</time>
      </trkpt>
      <trkpt lat="49.8542" lon="3.31727">
        <ele>69</ele>
        <time>2017-03-19T09:48:33Z</time>
      </trkpt>
      <trkpt lat="49.85422" lon="3.3172">
        <ele>68</ele>
        <time>2017-03-19T09:48:36Z</time>
      </trkpt>
      <trkpt lat="49.85421" lon="3.31711">
        <ele>66</ele>
        <time>2017-03-19T09:48:40Z</time>
      </trkpt>
      <trkpt lat="49.85424" lon="3.31706">
        <ele>66</ele>
        <time>2017-03-19T09:48:43Z</time>
      </trkpt>
      <trkpt lat="49.85426" lon="3.317">
        <ele>66</ele>
        <time>2017-03-19T09:48:46Z</time>
      </trkpt>
      <trkpt lat="49.8543" lon="3.31691">
        <ele>66</ele>
        <time>2017-03-19T09:48:50Z</time>
      </trkpt>
      <trkpt lat="49.85432" lon="3.31683">
        <ele>67</ele>
        <time>2017-03-19T09:48:53Z</time>
      </trkpt>
      <trkpt lat="49.85436" lon="3.31675">
        <ele>68</ele>
        <time>2017-03-19T09:48:57Z</time>
      </trkpt>
      <trkpt lat="49.85439" lon="3.31667">
        <ele>68</ele>
        <time>2017-03-19T09:49:01Z</time>
      </trkpt>
      <trkpt lat="49.85443" lon="3.31662">
        <ele>69</ele>
        <time>2017-03-19T09:49:05Z</time>
      </trkpt>
      <trkpt lat="49.85445" lon="3.31656">
        <ele>69</ele>
        <time>2017-03-19T09:49:07Z</time>
      </trkpt>
      <trkpt lat="49.85449" lon="3.31649">
        <ele>69</ele>
        <time>2017-03-19T09:49:09Z</time>
      </trkpt>
      <trkpt lat="49.85453" lon="3.31643">
        <ele>70</ele>
        <time>2017-03-19T09:49:13Z</time>
      </trkpt>
      <trkpt lat="49.85458" lon="3.31637">
        <ele>72</ele>
        <time>2017-03-19T09:49:16Z</time>
      </trkpt>
      <trkpt lat="49.85462" lon="3.31634">
        <ele>74</ele>
        <time>2017-03-19T09:49:18Z</time>
      </trkpt>
      <trkpt lat="49.85466" lon="3.31631">
        <ele>76</ele>
        <time>2017-03-19T09:49:21Z</time>
      </trkpt>
      <trkpt lat="49.85472" lon="3.31627">
        <ele>77</ele>
        <time>2017-03-19T09:49:25Z</time>
      </trkpt>
      <trkpt lat="49.85477" lon="3.31625">
        <ele>78</ele>
        <time>2017-03-19T09:49:30Z</time>
      </trkpt>
      <trkpt lat="49.85481" lon="3.31622">
        <ele>78</ele>
        <time>2017-03-19T09:49:33Z</time>
      </trkpt>
      <trkpt lat="49.85486" lon="3.31618">
        <ele>78</ele>
        <time>2017-03-19T09:49:36Z</time>
      </trkpt>
      <trkpt lat="49.8549" lon="3.31614">
        <ele>77</ele>
        <time>2017-03-19T09:49:39Z</time>
      </trkpt>
      <trkpt lat="49.85495" lon="3.31611">
        <ele>76</ele>
        <time>2017-03-19T09:49:42Z</time>
      </trkpt>
      <trkpt lat="49.85499" lon="3.31609">
        <ele>76</ele>
        <time>2017-03-19T09:49:44Z</time>
      </trkpt>
      <trkpt lat="49.85503" lon="3.31606">
        <ele>75</ele>
        <time>2017-03-19T09:49:48Z</time>
      </trkpt>
      <trkpt lat="49.85508" lon="3.31604">
        <ele>74</ele>
        <time>2017-03-19T09:49:51Z</time>
      </trkpt>
      <trkpt lat="49.85512" lon="3.31602">
        <ele>73</ele>
        <time>2017-03-19T09:49:53Z</time>
      </trkpt>
      <trkpt lat="49.85518" lon="3.31602">
        <ele>74</ele>
        <time>2017-03-19T09:49:55Z</time>
      </trkpt>
      <trkpt lat="49.85523" lon="3.31601">
        <ele>74</ele>
        <time>2017-03-19T09:49:58Z</time>
      </trkpt>
      <trkpt lat="49.85527" lon="3.31597">
        <ele>75</ele>
        <time>2017-03-19T09:50:01Z</time>
      </trkpt>
      <trkpt lat="49.85532" lon="3.31593">
        <ele>75</ele>
        <time>2017-03-19T09:50:06Z</time>
      </trkpt>
      <trkpt lat="49.85537" lon="3.31592">
        <ele>75</ele>
        <time>2017-03-19T09:50:10Z</time>
      </trkpt>
      <trkpt lat="49.85541" lon="3.31587">
        <ele>75</ele>
        <time>2017-03-19T09:50:14Z</time>
      </trkpt>
      <trkpt lat="49.85545" lon="3.31582">
        <ele>74</ele>
        <time>2017-03-19T09:50:18Z</time>
      </trkpt>
      <trkpt lat="49.8555" lon="3.3158">
        <ele>73</ele>
        <time>2017-03-19T09:50:21Z</time>
      </trkpt>
      <trkpt lat="49.85555" lon="3.31577">
        <ele>72</ele>
        <time>2017-03-19T09:50:24Z</time>
      </trkpt>
      <trkpt lat="49.8556" lon="3.31576">
        <ele>72</ele>
        <time>2017-03-19T09:50:27Z</time>
      </trkpt>
      <trkpt lat="49.85565" lon="3.31574">
        <ele>72</ele>
        <time>2017-03-19T09:50:31Z</time>
      </trkpt>
      <trkpt lat="49.8557" lon="3.31575">
        <ele>72</ele>
        <time>2017-03-19T09:50:35Z</time>
      </trkpt>
      <trkpt lat="49.85574" lon="3.31572">
        <ele>72</ele>
        <time>2017-03-19T09:50:39Z</time>
      </trkpt>
      <trkpt lat="49.85579" lon="3.3157">
        <ele>72</ele>
        <time>2017-03-19T09:50:43Z</time>
      </trkpt>
      <trkpt lat="49.85584" lon="3.31567">
        <ele>73</ele>
        <time>2017-03-19T09:50:45Z</time>
      </trkpt>
      <trkpt lat="49.85589" lon="3.31567">
        <ele>73</ele>
        <time>2017-03-19T09:50:48Z</time>
      </trkpt>
      <trkpt lat="49.85593" lon="3.31565">
        <ele>73</ele>
        <time>2017-03-19T09:50:52Z</time>
      </trkpt>
      <trkpt lat="49.85598" lon="3.3156">
        <ele>73</ele>
        <time>2017-03-19T09:50:55Z</time>
      </trkpt>
      <trkpt lat="49.85605" lon="3.31558">
        <ele>73</ele>
        <time>2017-03-19T09:50:59Z</time>
      </trkpt>
      <trkpt lat="49.85612" lon="3.31554">
        <ele>73</ele>
        <time>2017-03-19T09:51:03Z</time>
      </trkpt>
      <trkpt lat="49.85617" lon="3.31552">
        <ele>73</ele>
        <time>2017-03-19T09:51:07Z</time>
      </trkpt>
      <trkpt lat="49.85622" lon="3.31551">
        <ele>74</ele>
        <time>2017-03-19T09:51:09Z</time>
      </trkpt>
      <trkpt lat="49.85627" lon="3.31551">
        <ele>74</ele>
        <time>2017-03-19T09:51:12Z</time>
      </trkpt>
      <trkpt lat="49.85631" lon="3.31548">
        <ele>74</ele>
        <time>2017-03-19T09:51:15Z</time>
      </trkpt>
      <trkpt lat="49.85635" lon="3.31542">
        <ele>75</ele>
        <time>2017-03-19T09:51:19Z</time>
      </trkpt>
      <trkpt lat="49.85641" lon="3.31539">
        <ele>74</ele>
        <time>2017-03-19T09:51:24Z</time>
      </trkpt>
      <trkpt lat="49.85645" lon="3.31535">
        <ele>75</ele>
        <time>2017-03-19T09:51:26Z</time>
      </trkpt>
      <trkpt lat="49.85651" lon="3.3153">
        <ele>75</ele>
        <time>2017-03-19T09:51:29Z</time>
      </trkpt>
      <trkpt lat="49.85657" lon="3.31526">
        <ele>76</ele>
        <time>2017-03-19T09:51:34Z</time>
      </trkpt>
      <trkpt lat="49.85663" lon="3.31522">
        <ele>76</ele>
        <time>2017-03-19T09:51:38Z</time>
      </trkpt>
      <trkpt lat="49.85668" lon="3.31517">
        <ele>76</ele>
        <time>2017-03-19T09:51:43Z</time>
      </trkpt>
      <trkpt lat="49.85673" lon="3.31514">
        <ele>77</ele>
        <time>2017-03-19T09:51:47Z</time>
      </trkpt>
      <trkpt lat="49.8568" lon="3.31511">
        <ele>78</ele>
        <time>2017-03-19T09:51:50Z</time>
      </trkpt>
      <trkpt lat="49.85685" lon="3.31507">
        <ele>79</ele>
        <time>2017-03-19T09:51:53Z</time>
      </trkpt>
      <trkpt lat="49.8569" lon="3.31504">
        <ele>79</ele>
        <time>2017-03-19T09:51:58Z</time>
      </trkpt>
      <trkpt lat="49.85695" lon="3.315">
        <ele>79</ele>
        <time>2017-03-19T09:52:02Z</time>
      </trkpt>
      <trkpt lat="49.85699" lon="3.31499">
        <ele>79</ele>
        <time>2017-03-19T09:52:05Z</time>
      </trkpt>
      <trkpt lat="49.85702" lon="3.31494">
        <ele>78</ele>
        <time>2017-03-19T09:52:08Z</time>
      </trkpt>
      <trkpt lat="49.85707" lon="3.31488">
        <ele>77</ele>
        <time>2017-03-19T09:52:13Z</time>
      </trkpt>
      <trkpt lat="49.85713" lon="3.31485">
        <ele>76</ele>
        <time>2017-03-19T09:52:16Z</time>
      </trkpt>
      <trkpt lat="49.85717" lon="3.31482">
        <ele>76</ele>
        <time>2017-03-19T09:52:20Z</time>
      </trkpt>
      <trkpt lat="49.85722" lon="3.31477">
        <ele>76</ele>
        <time>2017-03-19T09:52:23Z</time>
      </trkpt>
      <trkpt lat="49.85726" lon="3.31474">
        <ele>76</ele>
        <time>2017-03-19T09:52:26Z</time>
      </trkpt>
      <trkpt lat="49.85731" lon="3.31469">
        <ele>75</ele>
        <time>2017-03-19T09:52:30Z</time>
      </trkpt>
      <trkpt lat="49.85735" lon="3.31463">
        <ele>75</ele>
        <time>2017-03-19T09:52:33Z</time>
      </trkpt>
      <trkpt lat="49.8574" lon="3.3146">
        <ele>74</ele>
        <time>2017-03-19T09:52:38Z</time>
      </trkpt>
      <trkpt lat="49.85744" lon="3.31457">
        <ele>74</ele>
        <time>2017-03-19T09:52:42Z</time>
      </trkpt>
      <trkpt lat="49.85749" lon="3.31452">
        <ele>74</ele>
        <time>2017-03-19T09:52:45Z</time>
      </trkpt>
      <trkpt lat="49.85753" lon="3.31448">
        <ele>74</ele>
        <time>2017-03-19T09:52:48Z</time>
      </trkpt>
      <trkpt lat="49.85758" lon="3.31444">
        <ele>74</ele>
        <time>2017-03-19T09:52:51Z</time>
      </trkpt>
      <trkpt lat="49.85761" lon="3.31437">
        <ele>74</ele>
        <time>2017-03-19T09:52:54Z</time>
      </trkpt>
      <trkpt lat="49.85761" lon="3.3143">
        <ele>75</ele>
        <time>2017-03-19T09:52:57Z</time>
      </trkpt>
      <trkpt lat="49.85761" lon="3.31421">
        <ele>74</ele>
        <time>2017-03-19T09:53:02Z</time>
      </trkpt>
      <trkpt lat="49.85762" lon="3.31413">
        <ele>75</ele>
        <time>2017-03-19T09:53:05Z</time>
      </trkpt>
      <trkpt lat="49.85764" lon="3.31405">
        <ele>75</ele>
        <time>2017-03-19T09:53:09Z</time>
      </trkpt>
      <trkpt lat="49.85763" lon="3.31396">
        <ele>75</ele>
        <time>2017-03-19T09:53:12Z</time>
      </trkpt>
      <trkpt lat="49.85763" lon="3.31389">
        <ele>75</ele>
        <time>2017-03-19T09:53:15Z</time>
      </trkpt>
      <trkpt lat="49.85764" lon="3.3138">
        <ele>75</ele>
        <time>2017-03-19T09:53:18Z</time>
      </trkpt>
      <trkpt lat="49.85763" lon="3.31372">
        <ele>76</ele>
        <time>2017-03-19T09:53:21Z</time>
      </trkpt>
      <trkpt lat="49.85762" lon="3.31365">
        <ele>76</ele>
        <time>2017-03-19T09:53:24Z</time>
      </trkpt>
      <trkpt lat="49.85762" lon="3.31356">
        <ele>76</ele>
        <time>2017-03-19T09:53:29Z</time>
      </trkpt>
      <trkpt lat="49.85763" lon="3.31347">
        <ele>77</ele>
        <time>2017-03-19T09:53:34Z</time>
      </trkpt>
      <trkpt lat="49.85765" lon="3.31341">
        <ele>78</ele>
        <time>2017-03-19T09:53:37Z</time>
      </trkpt>
      <trkpt lat="49.85766" lon="3.31333">
        <ele>79</ele>
        <time>2017-03-19T09:53:40Z</time>
      </trkpt>
      <trkpt lat="49.85767" lon="3.31325">
        <ele>80</ele>
        <time>2017-03-19T09:53:44Z</time>
      </trkpt>
      <trkpt lat="49.85767" lon="3.31317">
        <ele>80</ele>
        <time>2017-03-19T09:53:48Z</time>
      </trkpt>
      <trkpt lat="49.85766" lon="3.31308">
        <ele>79</ele>
        <time>2017-03-19T09:53:52Z</time>
      </trkpt>
      <trkpt lat="49.85766" lon="3.31301">
        <ele>78</ele>
        <time>2017-03-19T09:53:55Z</time>
      </trkpt>
      <trkpt lat="49.85764" lon="3.31292">
        <ele>77</ele>
        <time>2017-03-19T09:53:58Z</time>
      </trkpt>
      <trkpt lat="49.85764" lon="3.31283">
        <ele>77</ele>
        <time>2017-03-19T09:54:01Z</time>
      </trkpt>
      <trkpt lat="49.85762" lon="3.31273">
        <ele>78</ele>
        <time>2017-03-19T09:54:04Z</time>
      </trkpt>
      <trkpt lat="49.85761" lon="3.31265">
        <ele>79</ele>
        <time>2017-03-19T09:54:08Z</time>
      </trkpt>
      <trkpt lat="49.85761" lon="3.31257">
        <ele>80</ele>
        <time>2017-03-19T09:54:12Z</time>
      </trkpt>
      <trkpt lat="49.85761" lon="3.31248">
        <ele>82</ele>
        <time>2017-03-19T09:54:16Z</time>
      </trkpt>
      <trkpt lat="49.85762" lon="3.31241">
        <ele>83</ele>
        <time>2017-03-19T09:54:19Z</time>
      </trkpt>
      <trkpt lat="49.85761" lon="3.31233">
        <ele>83</ele>
        <time>2017-03-19T09:54:22Z</time>
      </trkpt>
      <trkpt lat="49.85761" lon="3.31225">
        <ele>83</ele>
        <time>2017-03-19T09:54:26Z</time>
      </trkpt>
      <trkpt lat="49.85761" lon="3.31218">
        <ele>82</ele>
        <time>2017-03-19T09:54:30Z</time>
      </trkpt>
      <trkpt lat="49.8576" lon="3.31208">
        <ele>81</ele>
        <time>2017-03-19T09:54:34Z</time>
      </trkpt>
      <trkpt lat="49.85761" lon="3.31201">
        <ele>79</ele>
        <time>2017-03-19T09:54:38Z</time>
      </trkpt>
      <trkpt lat="49.85761" lon="3.31192">
        <ele>79</ele>
        <time>2017-03-19T09:54:42Z</time>
      </trkpt>
      <trkpt lat="49.85764" lon="3.31184">
        <ele>79</ele>
        <time>2017-03-19T09:54:46Z</time>
      </trkpt>
      <trkpt lat="49.85764" lon="3.31174">
        <ele>80</ele>
        <time>2017-03-19T09:54:50Z</time>
      </trkpt>
      <trkpt lat="49.85767" lon="3.31166">
        <ele>80</ele>
        <time>2017-03-19T09:54:54Z</time>
      </trkpt>
      <trkpt lat="49.85767" lon="3.31159">
        <ele>80</ele>
        <time>2017-03-19T09:54:59Z</time>
      </trkpt>
      <trkpt lat="49.85766" lon="3.31151">
        <ele>79</ele>
        <time>2017-03-19T09:55:02Z</time>
      </trkpt>
      <trkpt lat="49.85766" lon="3.31144">
        <ele>79</ele>
        <time>2017-03-19T09:55:04Z</time>
      </trkpt>
      <trkpt lat="49.85765" lon="3.31136">
        <ele>78</ele>
        <time>2017-03-19T09:55:08Z</time>
      </trkpt>
      <trkpt lat="49.85765" lon="3.31128">
        <ele>78</ele>
        <time>2017-03-19T09:55:11Z</time>
      </trkpt>
      <trkpt lat="49.85764" lon="3.31119">
        <ele>78</ele>
        <time>2017-03-19T09:55:15Z</time>
      </trkpt>
      <trkpt lat="49.85763" lon="3.31112">
        <ele>78</ele>
        <time>2017-03-19T09:55:18Z</time>
      </trkpt>
      <trkpt lat="49.85763" lon="3.31104">
        <ele>78</ele>
        <time>2017-03-19T09:55:22Z</time>
      </trkpt>
      <trkpt lat="49.85763" lon="3.31095">
        <ele>77</ele>
        <time>2017-03-19T09:55:27Z</time>
      </trkpt>
      <trkpt lat="49.85761" lon="3.31088">
        <ele>76</ele>
        <time>2017-03-19T09:55:31Z</time>
      </trkpt>
      <trkpt lat="49.85757" lon="3.31082">
        <ele>76</ele>
        <time>2017-03-19T09:55:34Z</time>
      </trkpt>
      <trkpt lat="49.85753" lon="3.31077">
        <ele>77</ele>
        <time>2017-03-19T09:55:38Z</time>
      </trkpt>
      <trkpt lat="49.85749" lon="3.31072">
        <ele>77</ele>
        <time>2017-03-19T09:55:41Z</time>
      </trkpt>
      <trkpt lat="49.85746" lon="3.31067">
        <ele>78</ele>
        <time>2017-03-19T09:55:44Z</time>
      </trkpt>
      <trkpt lat="49.85742" lon="3.31061">
        <ele>79</ele>
        <time>2017-03-19T09:55:47Z</time>
      </trkpt>
      <trkpt lat="49.85737" lon="3.31058">
        <ele>79</ele>
        <time>2017-03-19T09:55:50Z</time>
      </trkpt>
      <trkpt lat="49.85733" lon="3.31053">
        <ele>79</ele>
        <time>2017-03-19T09:55:53Z</time>
      </trkpt>
      <trkpt lat="49.85727" lon="3.3105">
        <ele>79</ele>
        <time>2017-03-19T09:55:57Z</time>
      </trkpt>
      <trkpt lat="49.85722" lon="3.3105">
        <ele>78</ele>
        <time>2017-03-19T09:56:00Z</time>
      </trkpt>
      <trkpt lat="49.85717" lon="3.31051">
        <ele>77</ele>
        <time>2017-03-19T09:56:03Z</time>
      </trkpt>
      <trkpt lat="49.85713" lon="3.31053">
        <ele>77</ele>
        <time>2017-03-19T09:56:06Z</time>
      </trkpt>
      <trkpt lat="49.85708" lon="3.31053">
        <ele>77</ele>
        <time>2017-03-19T09:56:09Z</time>
      </trkpt>
      <trkpt lat="49.85703" lon="3.31054">
        <ele>78</ele>
        <time>2017-03-19T09:56:12Z</time>
      </trkpt>
      <trkpt lat="49.85698" lon="3.31054">
        <ele>80</ele>
        <time>2017-03-19T09:56:15Z</time>
      </trkpt>
      <trkpt lat="49.85693" lon="3.31053">
        <ele>81</ele>
        <time>2017-03-19T09:56:18Z</time>
      </trkpt>
      <trkpt lat="49.85687" lon="3.31055">
        <ele>82</ele>
        <time>2017-03-19T09:56:21Z</time>
      </trkpt>
      <trkpt lat="49.85682" lon="3.31054">
        <ele>84</ele>
        <time>2017-03-19T09:56:24Z</time>
      </trkpt>
      <trkpt lat="49.85677" lon="3.31053">
        <ele>84</ele>
        <time>2017-03-19T09:56:28Z</time>
      </trkpt>
      <trkpt lat="49.85673" lon="3.31052">
        <ele>85</ele>
        <time>2017-03-19T09:56:32Z</time>
      </trkpt>
      <trkpt lat="49.85667" lon="3.31055">
        <ele>84</ele>
        <time>2017-03-19T09:56:37Z</time>
      </trkpt>
      <trkpt lat="49.85661" lon="3.31054">
        <ele>83</ele>
        <time>2017-03-19T09:56:41Z</time>
      </trkpt>
      <trkpt lat="49.85655" lon="3.31051">
        <ele>80</ele>
        <time>2017-03-19T09:56:45Z</time>
      </trkpt>
      <trkpt lat="49.8565" lon="3.31052">
        <ele>77</ele>
        <time>2017-03-19T09:56:48Z</time>
      </trkpt>
      <trkpt lat="49.85645" lon="3.31051">
        <ele>75</ele>
        <time>2017-03-19T09:56:51Z</time>
      </trkpt>
      <trkpt lat="49.85639" lon="3.3105">
        <ele>73</ele>
        <time>2017-03-19T09:56:54Z</time>
      </trkpt>
      <trkpt lat="49.85634" lon="3.3105">
        <ele>73</ele>
        <time>2017-03-19T09:56:58Z</time>
      </trkpt>
      <trkpt lat="49.85628" lon="3.3105">
        <ele>73</ele>
        <time>2017-03-19T09:57:02Z</time>
      </trkpt>
      <trkpt lat="49.85622" lon="3.31049">
        <ele>74</ele>
        <time>2017-03-19T09:57:06Z</time>
      </trkpt>
      <trkpt lat="49.85617" lon="3.3105">
        <ele>75</ele>
        <time>2017-03-19T09:57:09Z</time>
      </trkpt>
      <trkpt lat="49.85612" lon="3.31052">
        <ele>76</ele>
        <time>2017-03-19T09:57:12Z</time>
      </trkpt>
      <trkpt lat="49.85607" lon="3.3105">
        <ele>77</ele>
        <time>2017-03-19T09:57:15Z</time>
      </trkpt>
      <trkpt lat="49.85602" lon="3.31052">
        <ele>76</ele>
        <time>2017-03-19T09:57:19Z</time>
      </trkpt>
      <trkpt lat="49.85596" lon="3.31052">
        <ele>77</ele>
        <time>2017-03-19T09:57:22Z</time>
      </trkpt>
      <trkpt lat="49.8559" lon="3.31053">
        <ele>76</ele>
        <time>2017-03-19T09:57:25Z</time>
      </trkpt>
      <trkpt lat="49.85584" lon="3.31051">
        <ele>76</ele>
        <time>2017-03-19T09:57:29Z</time>
      </trkpt>
      <trkpt lat="49.85579" lon="3.31051">
        <ele>76</ele>
        <time>2017-03-19T09:57:31Z</time>
      </trkpt>
      <trkpt lat="49.85574" lon="3.3105">
        <ele>77</ele>
        <time>2017-03-19T09:57:35Z</time>
      </trkpt>
      <trkpt lat="49.85568" lon="3.3105">
        <ele>77</ele>
        <time>2017-03-19T09:57:40Z</time>
      </trkpt>
      <trkpt lat="49.85563" lon="3.3105">
        <ele>75</ele>
        <time>2017-03-19T09:57:45Z</time>
      </trkpt>
      <trkpt lat="49.85557" lon="3.3105">
        <ele>74</ele>
        <time>2017-03-19T09:57:49Z</time>
      </trkpt>
      <trkpt lat="49.85553" lon="3.31049">
        <ele>72</ele>
        <time>2017-03-19T09:57:52Z</time>
      </trkpt>
      <trkpt lat="49.85548" lon="3.3105">
        <ele>71</ele>
        <time>2017-03-19T09:57:55Z</time>
      </trkpt>
      <trkpt lat="49.85543" lon="3.31048">
        <ele>70</ele>
        <time>2017-03-19T09:57:59Z</time>
      </trkpt>
      <trkpt lat="49.85539" lon="3.3105">
        <ele>70</ele>
        <time>2017-03-19T09:58:02Z</time>
      </trkpt>
      <trkpt lat="49.85533" lon="3.31048">
        <ele>69</ele>
        <time>2017-03-19T09:58:05Z</time>
      </trkpt>
      <trkpt lat="49.85527" lon="3.31047">
        <ele>69</ele>
        <time>2017-03-19T09:58:10Z</time>
      </trkpt>
      <trkpt lat="49.85523" lon="3.31046">
        <ele>68</ele>
        <time>2017-03-19T09:58:15Z</time>
      </trkpt>
      <trkpt lat="49.85517" lon="3.31043">
        <ele>68</ele>
        <time>2017-03-19T09:58:23Z</time>
      </trkpt>
      <trkpt lat="49.85512" lon="3.31041">
        <ele>69</ele>
        <time>2017-03-19T09:58:27Z</time>
      </trkpt>
      <trkpt lat="49.85513" lon="3.31033">
        <ele>69</ele>
        <time>2017-03-19T09:58:31Z</time>
      </trkpt>
      <trkpt lat="49.85516" lon="3.3103">
        <ele>70</ele>
        <time>2017-03-19T09:58:46Z</time>
      </trkpt>
      <trkpt lat="49.85516" lon="3.3103">
        <ele>72</ele>
        <time>2017-03-19T09:58:48Z</time>
      </trkpt>
    </trkseg>
  </trk>
</gpx>